[[{"header":{"parameterUnit":"m.s-1","parameterCategory":1,"la1":30.6,"la2":28.766,"lo1":-90.7593,"lo2":-88.6598,"dy":0.0162,"dx":0.0183,"nx":116,"ny":114,"refTime":"2023-08-14T06:00:00:Z","depth":0,"parameterNumber":2,"parameterNumberName":"U-component_of_WINDS"},"data":[0.0,0.0,0.0,0.0,0.0,0.0,0.0,0.0,0.0,0.0,0.0,0.0,0.0,0.0,0.0,0.0,0.0,0.0,0.0,0.0,0.0,0.0,0.0,0.0,0.0,0.0,0.0,0.0,0.0,0.0,0.0,0.0,0.0,0.0,0.0,0.0,0.0,0.0,0.0,0.0,0.0,0.0,0.0,0.0,0.0,0.0,0.0,0.0,0.0,0.0,0.0,0.0,0.0,0.0,0.0,0.0,0.0,0.0,0.0,0.0,0.0,0.0,0.0,0.0,0.0,0.0,0.0,0.0,0.0,0.0,0.0,0.0,0.0,0.0,0.0,0.0,0.0,0.0,0.0,0.0,0.0,0.0,0.0,0.0,0.0,0.0,0.0,0.0,0.0,0.0,0.0,0.0,0.0,0.0,0.0,0.0,0.0,0.0,0.0,0.0,0.0,0.0,0.0,0.0,0.0,0.0,0.0,0.0,0.0,0.0,0.0,0.0,0.0,0.0,0.0,0.0,0.0,0.0,0.0,0.0,0.0,0.0,0.0,0.0,0.0,0.0,0.0,0.0,0.0,0.0,0.0,0.0,0.0,0.0,0.0,0.0,0.0,0.0,0.0,0.0,0.0,0.0,0.0,0.0,0.0,0.0,0.0,0.0,0.0,0.0,0.0,0.0,0.0,0.0,0.0,0.0,0.0,0.0,0.0,0.0,0.0,0.0,0.0,0.0,0.0,0.0,0.0,0.0,0.0,0.0,0.0,0.0,0.0,0.0,0.0,0.0,0.0,0.0,0.0,0.0,0.0,0.0,0.0,0.0,0.0,0.0,0.0,0.0,0.0,0.0,0.0,0.0,0.0,0.0,0.0,0.0,0.0,0.0,0.0,0.0,0.0,0.0,0.0,0.0,0.0,0.0,0.0,0.0,0.0,0.0,0.0,0.0,0.0,0.0,0.0,0.0,0.0,0.0,0.0,0.0,0.0,0.0,0.0,0.0,0.0,0.0,0.0,0.0,0.0,0.0,0.0,0.0,0.0,0.0,0.0,0.0,0.0,0.0,0.0,0.0,0.0,0.0,0.0,0.0,0.0,0.0,0.0,0.0,0.0,0.0,0.0,0.0,0.0,0.0,0.0,0.0,0.0,0.0,0.0,0.0,0.0,0.0,0.0,0.0,0.0,0.0,0.0,0.0,0.0,0.0,0.0,0.0,0.0,0.0,0.0,0.0,0.0,0.0,0.0,0.0,0.0,0.0,0.0,0.0,0.0,0.0,0.0,0.0,0.0,0.0,0.0,0.0,0.0,0.0,0.0,0.0,0.0,0.0,0.0,0.0,0.0,0.0,0.0,0.0,0.0,0.0,0.0,0.0,0.0,0.0,0.0,0.0,0.0,0.0,0.0,0.0,0.0,0.0,0.0,0.0,0.0,0.0,0.0,0.0,0.0,0.0,0.0,0.0,0.0,0.0,0.0,0.0,0.0,0.0,0.0,0.0,0.0,0.0,0.0,0.0,0.0,0.0,0.0,0.0,0.0,0.0,0.0,0.0,0.0,0.0,0.0,0.0,0.0,0.0,0.0,0.0,0.0,0.0,0.0,0.0,0.0,0.0,0.0,0.0,0.0,0.0,0.0,0.0,0.0,0.0,0.0,0.0,0.0,0.0,0.0,0.0,0.0,0.0,0.0,0.0,0.0,0.0,0.0,0.0,0.0,0.0,0.0,0.0,0.0,0.0,0.0,0.0,0.0,0.0,0.0,0.0,0.0,0.0,0.0,0.0,0.0,0.0,0.0,0.0,0.0,0.0,0.0,0.0,0.0,0.0,0.0,0.0,0.0,0.0,0.0,0.0,0.0,0.0,0.0,0.0,0.0,0.0,0.0,0.0,0.0,0.0,0.0,0.0,0.0,0.0,0.0,0.0,0.0,0.0,0.0,0.0,0.0,0.0,0.0,0.0,0.0,0.0,0.0,0.0,0.0,0.0,0.0,0.0,0.0,0.0,0.0,0.0,0.0,0.0,0.0,0.0,0.0,0.0,0.0,0.0,0.0,0.0,0.0,0.0,0.0,0.0,0.0,0.0,0.0,0.0,0.0,0.0,0.0,0.0,0.0,0.0,0.0,0.0,0.0,0.0,0.0,0.0,0.0,0.0,0.0,0.0,0.0,0.0,0.0,0.0,0.0,0.0,0.0,0.0,0.0,0.0,0.0,0.0,0.0,0.0,0.0,0.0,0.0,0.0,0.0,0.0,0.0,0.0,0.0,0.0,0.0,0.0,0.0,0.0,0.0,0.0,0.0,0.0,0.0,0.0,0.0,0.0,0.0,0.0,0.0,0.0,0.0,0.0,0.0,0.0,0.0,0.0,0.0,0.0,0.0,0.0,0.0,0.0,0.0,0.0,0.0,0.0,0.0,0.0,0.0,0.0,0.0,0.0,0.0,0.0,0.0,0.0,0.0,0.0,0.0,0.0,0.0,0.0,0.0,0.0,0.0,0.0,0.0,0.0,0.0,0.0,0.0,0.0,0.0,0.0,0.0,0.0,0.0,0.0,0.0,0.0,0.0,0.0,0.0,0.0,0.0,0.0,0.0,0.0,0.0,0.0,0.0,0.0,0.0,0.0,0.0,0.0,0.0,0.0,0.0,0.0,0.0,0.0,0.0,0.0,0.0,0.0,0.0,0.0,0.0,0.0,0.0,0.0,0.0,0.0,0.0,0.0,0.0,0.0,0.0,0.0,0.0,0.0,0.0,0.0,0.0,0.0,0.0,0.0,0.0,0.0,0.0,0.0,0.0,0.0,0.0,0.0,0.0,0.0,0.0,0.0,0.0,0.0,0.0,0.0,0.0,0.0,0.0,0.0,0.0,0.0,0.0,0.0,0.0,0.0,0.0,0.0,0.0,0.0,0.0,0.0,0.0,0.0,0.0,0.0,0.0,0.0,0.0,0.0,0.0,0.0,0.0,0.0,0.0,0.0,0.0,0.0,0.0,0.0,0.0,0.0,0.0,0.0,0.0,0.0,0.0,0.0,0.0,0.0,0.0,0.0,0.0,0.0,0.0,0.0,0.0,0.0,0.0,0.0,0.0,0.0,0.0,0.0,0.0,0.0,0.0,0.0,0.0,0.0,0.0,0.0,0.0,0.0,0.0,0.0,0.0,0.0,0.0,0.0,0.0,0.0,0.0,0.0,0.0,0.0,0.0,0.0,0.0,0.0,0.0,0.0,0.0,0.0,0.0,0.0,0.0,0.0,0.0,0.0,0.0,0.0,0.0,0.0,0.0,0.0,0.0,0.0,0.0,0.0,0.0,0.0,0.0,0.0,0.0,0.0,0.0,0.0,0.0,0.0,0.0,0.0,0.0,0.0,0.0,0.0,0.0,0.0,0.0,0.0,0.0,0.0,0.0,0.0,0.0,0.0,0.0,0.0,0.0,0.0,0.0,0.0,0.0,0.0,0.0,0.0,0.0,0.0,0.0,0.0,0.0,0.0,0.0,0.0,0.0,0.0,0.0,0.0,0.0,0.0,0.0,0.0,0.0,0.0,0.0,0.0,0.0,0.0,0.0,0.0,0.0,0.0,0.0,0.0,0.0,0.0,0.0,0.0,0.0,0.0,0.0,0.0,0.0,0.0,0.0,0.0,0.0,0.0,0.0,0.0,0.0,0.0,0.0,0.0,0.0,0.0,0.0,0.0,0.0,0.0,0.0,0.0,0.0,0.0,0.0,0.0,0.0,0.0,0.0,0.0,0.0,0.0,0.0,0.0,0.0,0.0,0.0,0.0,0.0,0.0,0.0,0.0,0.0,0.0,0.0,0.0,0.0,0.0,0.0,0.0,0.0,0.0,0.0,0.0,0.0,0.0,0.0,0.0,0.0,0.0,0.0,0.0,0.0,0.0,0.0,0.0,0.0,0.0,0.0,0.0,0.0,0.0,0.0,0.0,0.0,0.0,0.0,0.0,0.0,0.0,0.0,0.0,0.0,0.0,0.0,0.0,0.0,0.0,0.0,0.0,0.0,0.0,0.0,0.0,0.0,0.0,0.0,0.0,0.0,0.0,0.0,0.0,0.0,0.0,0.0,0.0,0.0,0.0,0.0,0.0,0.0,0.0,0.0,0.0,0.0,0.0,0.0,0.0,0.0,0.0,0.0,0.0,0.0,0.0,0.0,0.0,0.0,0.0,0.0,0.0,0.0,0.0,0.0,0.0,0.0,0.0,0.0,0.0,0.0,0.0,0.0,0.0,0.0,0.0,0.0,0.0,0.0,0.0,0.0,0.0,0.0,0.0,0.0,0.0,0.0,0.0,0.0,0.0,0.0,0.0,0.0,0.0,0.0,0.0,0.0,0.0,0.0,0.0,0.0,0.0,0.0,0.0,0.0,0.0,0.0,0.0,0.0,0.0,0.0,0.0,0.0,0.0,0.0,0.0,0.0,0.0,0.0,0.0,0.0,0.0,0.0,0.0,0.0,0.0,0.0,0.0,0.0,0.0,0.0,0.0,0.0,0.0,0.0,0.0,0.0,0.0,0.0,0.0,0.0,0.0,0.0,0.0,0.0,0.0,0.0,0.0,0.0,0.0,0.0,0.0,0.0,0.0,0.0,0.0,0.0,0.0,0.0,0.0,0.0,0.0,0.0,0.0,0.0,0.0,0.0,0.0,0.0,0.0,0.0,0.0,0.0,0.0,0.0,0.0,0.0,0.0,0.0,0.0,0.0,0.0,0.0,0.0,0.0,0.0,0.0,0.0,0.0,0.0,0.0,0.0,0.0,0.0,0.0,0.0,0.0,0.0,0.0,0.0,0.0,0.0,0.0,0.0,0.0,0.0,0.0,0.0,0.0,0.0,0.0,0.0,0.0,0.0,0.0,0.0,0.0,0.0,0.0,0.0,0.0,0.0,0.0,0.0,0.0,0.0,0.0,0.0,0.0,0.0,0.0,0.0,0.0,0.0,0.0,0.0,0.0,0.0,0.0,0.0,0.0,0.0,0.0,0.0,0.0,0.0,0.0,0.0,0.0,0.0,0.0,0.0,0.0,0.0,0.0,0.0,0.0,0.0,0.0,0.0,0.0,0.0,0.0,0.0,0.0,0.0,0.0,0.0,0.0,0.0,0.0,0.0,0.0,0.0,0.0,0.0,0.0,0.0,0.0,0.0,0.0,0.0,0.0,0.0,0.0,0.0,0.0,0.0,0.0,0.0,0.0,0.0,0.0,0.0,0.0,0.0,0.0,0.0,0.0,0.0,0.0,0.0,0.0,0.0,0.0,0.0,0.0,0.0,0.0,0.0,0.0,0.0,0.0,0.0,0.0,0.0,0.0,0.0,0.0,0.0,0.0,0.0,0.0,0.0,0.0,0.0,0.0,0.0,0.0,0.0,0.0,0.0,0.0,0.0,0.0,0.0,0.0,0.0,0.0,0.0,0.0,0.0,0.0,0.0,0.0,0.0,0.0,0.0,0.0,0.0,0.0,0.0,0.0,0.0,0.0,0.0,0.0,0.0,0.0,0.0,0.0,0.0,0.0,0.0,0.0,0.0,0.0,0.0,0.0,0.0,0.0,0.0,0.0,0.0,0.0,0.0,0.0,0.0,0.0,0.0,0.0,0.0,0.0,0.0,0.0,0.0,0.0,0.0,0.0,0.0,0.0,0.0,0.0,0.0,0.0,0.0,0.0,0.0,0.0,0.0,0.0,0.0,0.0,0.0,0.0,0.0,0.0,0.0,0.0,0.0,0.0,0.0,0.0,0.0,0.0,0.0,0.0,0.0,0.0,0.0,0.0,0.0,0.0,0.0,0.0,0.0,0.0,0.0,0.0,0.0,0.0,0.0,0.0,0.0,0.0,0.0,0.0,0.0,0.0,0.0,0.0,0.0,0.0,0.0,0.0,0.0,0.0,0.0,0.0,0.0,0.0,0.0,0.0,0.0,0.0,0.0,0.0,0.0,0.0,0.0,0.0,0.0,0.0,0.0,0.0,0.0,0.0,0.0,0.0,0.0,0.0,0.0,0.0,0.0,0.0,0.0,0.0,0.0,0.0,0.0,0.0,0.0,0.0,0.0,0.0,0.0,0.0,0.0,0.0,0.0,0.0,0.0,0.0,0.0,0.0,0.0,0.0,0.0,-4.3025,0.0,0.0,0.0,0.0,0.0,0.0,0.0,0.0,0.0,0.0,0.0,0.0,0.0,0.0,0.0,0.0,0.0,0.0,0.0,0.0,0.0,0.0,0.0,0.0,0.0,0.0,0.0,0.0,0.0,0.0,0.0,0.0,0.0,0.0,0.0,0.0,0.0,0.0,0.0,0.0,0.0,0.0,0.0,0.0,0.0,0.0,0.0,0.0,0.0,0.0,0.0,0.0,0.0,0.0,0.0,0.0,0.0,0.0,0.0,0.0,0.0,0.0,0.0,0.0,0.0,0.0,0.0,0.0,0.0,0.0,0.0,0.0,0.0,0.0,0.0,0.0,0.0,0.0,0.0,0.0,0.0,0.0,0.0,0.0,0.0,0.0,0.0,0.0,0.0,0.0,0.0,0.0,0.0,0.0,0.0,0.0,0.0,0.0,0.0,0.0,0.0,0.0,0.0,0.0,0.0,0.0,0.0,0.0,0.0,0.0,0.0,0.0,0.0,0.0,0.0,0.0,-4.2798,0.0,0.0,0.0,0.0,0.0,0.0,0.0,0.0,0.0,0.0,0.0,0.0,0.0,0.0,0.0,0.0,0.0,0.0,0.0,0.0,0.0,0.0,0.0,0.0,0.0,0.0,0.0,0.0,0.0,0.0,0.0,0.0,0.0,0.0,0.0,0.0,0.0,0.0,0.0,0.0,0.0,0.0,0.0,0.0,0.0,0.0,0.0,0.0,0.0,0.0,0.0,0.0,0.0,0.0,0.0,0.0,0.0,0.0,0.0,0.0,0.0,0.0,0.0,0.0,0.0,0.0,0.0,0.0,0.0,0.0,0.0,0.0,0.0,0.0,0.0,0.0,0.0,0.0,0.0,0.0,0.0,0.0,0.0,0.0,0.0,0.0,0.0,0.0,0.0,0.0,0.0,0.0,0.0,0.0,0.0,0.0,0.0,0.0,0.0,0.0,0.0,0.0,0.0,0.0,0.0,0.0,0.0,0.0,-4.282,-4.3719,-4.3676,-4.5615,-4.5413,-4.3692,-4.4459,-4.3829,-4.2233,0.0,0.0,0.0,0.0,0.0,0.0,0.0,0.0,0.0,0.0,0.0,0.0,0.0,0.0,0.0,0.0,0.0,0.0,0.0,0.0,0.0,0.0,0.0,0.0,0.0,0.0,0.0,0.0,0.0,0.0,0.0,0.0,0.0,0.0,0.0,0.0,0.0,0.0,0.0,2.5068,2.5192,2.2645,1.7933,2.0641,0.0,0.0,0.0,0.0,0.0,0.0,0.0,0.0,0.0,0.0,0.0,0.0,0.0,0.0,0.0,0.0,0.0,0.0,0.0,0.0,0.0,0.0,0.0,0.0,0.0,0.0,0.0,0.0,0.0,0.0,0.0,0.0,0.0,0.0,0.0,0.0,0.0,0.0,0.0,0.0,0.0,0.0,0.0,-2.191,-2.5835,0.0,0.0,0.0,0.0,0.0,0.0,0.0,0.0,0.0,0.0,0.0,0.0,0.0,-3.6275,-3.8687,-4.0357,-4.2354,-4.4544,-4.543,-4.621,-4.6903,-4.6988,-4.6809,-4.6544,-4.7695,0.0,-4.1854,-4.1099,0.0,0.0,0.0,0.0,0.0,0.0,0.0,0.0,0.0,0.0,0.0,0.0,0.0,0.0,0.0,0.0,0.0,0.0,0.0,0.0,0.0,0.0,0.0,0.0,0.0,0.0,0.0,0.0,0.0,0.0,0.0,0.0,0.0,0.0,0.0,0.0,2.6694,2.5924,2.4106,2.3941,2.0389,1.4341,1.2817,1.2375,1.2441,0.9231,0.0,0.0,0.0,0.0,0.0,0.0,0.0,0.0,0.0,0.0,0.0,0.0,0.0,0.0,0.0,0.0,0.0,0.0,0.0,0.0,0.0,0.0,0.0,0.0,0.0,0.0,0.0,0.0,0.0,0.0,0.0,0.0,0.0,0.0,0.0,0.0,0.0,0.0,0.0,-1.9643,-2.526,-2.8107,-3.0782,-3.1681,0.0,0.0,0.0,0.0,0.0,0.0,0.0,0.0,0.0,-3.7629,-3.8447,-4.0014,-4.2399,-4.3725,-4.5256,-4.6905,-4.7928,-4.8116,-4.7512,-4.8387,-4.8011,-4.6691,-4.8368,-4.7384,-4.4536,-4.4234,-4.2644,-4.0313,0.0,0.0,0.0,0.0,-3.7636,-3.8283,0.0,0.0,0.0,0.0,0.0,0.0,0.0,0.0,0.0,0.0,0.0,0.0,0.0,0.0,0.0,0.0,0.0,0.0,0.0,0.0,0.0,0.0,0.0,0.0,0.0,0.0,0.0,0.0,2.5898,2.4666,2.2173,2.2336,1.8136,1.0368,0.5234,0.3817,0.4872,0.0775,-0.0317,0.0,0.0,0.0,0.0,0.0,0.0,0.0,0.0,0.0,0.0,0.0,0.0,0.0,0.0,0.0,0.0,0.0,0.0,0.0,0.0,0.0,0.0,0.0,0.0,0.0,0.0,0.0,0.0,0.0,0.0,0.0,0.0,0.0,0.0,0.0,0.0,0.0,0.0,-2.2959,-2.7917,-2.9993,-3.3581,-3.4761,0.0,0.0,0.0,0.0,0.0,0.0,-3.6029,-3.7992,-3.9428,-4.0127,-4.1309,-4.3176,-4.5795,-4.6274,-4.735,-4.9183,-4.9785,-4.9419,-4.8425,-5.0009,-4.9694,-4.7882,-4.9677,-4.9538,-4.8221,-4.7259,-4.5272,-4.2692,-4.2081,-4.0872,-3.9605,-3.9601,-4.0006,-4.0835,0.0,0.0,0.0,0.0,0.0,0.0,0.0,0.0,0.0,0.0,0.0,0.0,0.0,0.0,0.0,0.0,0.0,0.0,0.0,0.0,0.0,0.0,0.0,0.0,0.0,0.0,0.0,2.3969,2.2401,2.048,1.8338,2.0057,1.4804,0.38,-0.0484,-0.1863,-0.1366,-0.5727,-0.7578,-0.7572,0.0,0.0,0.0,0.0,0.0,0.0,0.0,0.0,0.0,0.0,0.0,0.0,0.0,0.0,0.0,0.0,0.0,0.0,0.0,0.0,0.0,0.0,0.0,0.0,0.0,0.0,0.0,0.0,0.0,0.0,0.0,0.0,0.0,0.0,0.0,0.0,0.0,0.0,0.0,-3.2968,-3.6534,0.0,0.0,0.0,0.0,-3.814,-3.9077,-4.0014,-4.082,-4.0964,-4.1575,-4.2871,-4.3075,-4.4869,-4.8659,-4.727,-4.8206,-5.1506,-5.0352,-5.0019,-5.0587,-5.1835,-5.2138,-5.1759,-5.2785,-5.3049,-5.2377,-4.9027,-4.6475,-4.4613,-4.392,-4.2797,-4.1578,-4.1312,-4.1337,-4.1417,0.0,0.0,0.0,0.0,0.0,0.0,0.0,0.0,0.0,0.0,0.0,0.0,0.0,0.0,0.0,0.0,0.0,0.0,0.0,0.0,0.0,0.0,0.0,0.0,0.0,0.0,2.2351,2.1337,1.9837,1.7547,1.4636,1.4498,0.9493,0.0351,-0.4133,-0.7725,-1.0397,-1.2259,-1.2795,-1.2273,-1.2361,-1.1527,0.0,0.0,0.0,0.0,0.0,0.0,0.0,0.0,0.0,0.0,0.0,0.0,0.0,0.0,0.0,0.0,0.0,0.0,0.0,0.0,0.0,0.0,0.0,0.0,0.0,0.0,0.0,0.0,0.0,0.0,0.0,0.0,0.0,0.0,0.0,0.0,0.0,-3.6699,-4.0069,0.0,-4.1723,-4.1775,-4.2141,-4.3069,-4.4135,-4.4515,-4.4349,-4.5232,-4.531,-4.4181,-4.5157,-4.6944,-4.9382,-4.8835,-4.9683,-5.1688,-5.1641,-5.1261,-5.0682,-5.1608,-5.203,-5.2059,-5.2629,-5.2903,-5.2839,-5.1424,-4.9719,-4.7746,-4.6608,-4.5461,-4.432,-4.3849,-4.3949,-4.4288,0.0,0.0,0.0,0.0,0.0,0.0,0.0,0.0,0.0,0.0,0.0,0.0,0.0,0.0,0.0,0.0,0.0,0.0,0.0,0.0,0.0,0.0,0.0,0.0,0.0,2.1194,1.9707,1.7964,1.5867,1.3222,1.0197,0.8313,0.386,-0.279,-0.8624,-1.2798,-1.5499,-1.6662,-1.6992,-1.6703,-1.7323,-1.6535,-1.4859,0.0,0.0,0.0,0.0,0.0,0.0,0.0,0.0,0.0,0.0,0.0,0.0,0.0,0.0,0.0,0.0,0.0,0.0,0.0,0.0,0.0,0.0,0.0,0.0,0.0,0.0,0.0,0.0,0.0,0.0,0.0,0.0,0.0,0.0,0.0,-3.452,-3.7924,-4.1689,-4.3884,-4.3543,-4.4816,-4.6007,-4.6737,-4.8018,-4.8409,-4.7551,-4.8409,-4.8076,-4.6179,-4.7604,-4.9089,-5.0815,-5.0615,-5.1156,-5.2321,-5.2517,-5.2059,-5.1066,-5.1878,-5.25,-5.2949,-5.304,-5.3285,-5.3651,-5.3004,-5.1708,-4.9913,-4.8536,-4.7151,-4.5822,-4.5476,-4.5581,-4.5843,0.0,0.0,0.0,0.0,0.0,0.0,0.0,0.0,0.0,0.0,0.0,0.0,0.0,0.0,0.0,0.0,0.0,0.0,0.0,0.0,0.0,0.0,0.0,0.0,2.0105,1.8111,1.6016,1.3731,1.0444,0.7494,0.4865,0.1719,-0.1715,-0.5758,-1.3834,-1.6894,-1.5927,-1.8523,-2.0144,-2.0977,-2.0808,-2.0278,-1.9406,0.0,0.0,0.0,0.0,0.0,0.0,0.0,0.0,0.0,0.0,0.0,0.0,0.0,0.0,0.0,0.0,0.0,0.0,0.0,0.0,0.0,0.0,0.0,0.0,0.0,0.0,0.0,0.0,0.0,0.0,0.0,0.0,0.0,-2.6013,-3.1046,-3.5226,-3.6767,-4.1326,-4.4006,-4.3047,-4.6033,-4.8372,-4.9071,-5.0809,-5.1458,-5.0558,-5.0281,-4.9819,-4.8781,-4.9896,-5.1341,-5.2877,-5.2446,-5.2719,-5.3684,-5.305,-5.2431,-5.1797,-5.2943,-5.395,-5.4855,-5.4107,-5.4283,-5.4979,-5.357,-5.2132,-5.0713,-4.9403,-4.7759,-4.6029,-4.6164,-4.606,-4.5793,0.0,0.0,0.0,0.0,0.0,0.0,0.0,0.0,0.0,0.0,0.0,0.0,0.0,0.0,0.0,0.0,0.0,0.0,0.0,0.0,0.0,0.0,0.0,0.0,1.7687,1.6127,1.3022,0.8417,0.5124,0.1915,-0.139,-0.2725,-0.5687,-1.0019,-1.3588,-1.5808,-1.7015,-1.8858,-1.9977,-2.0679,-2.0676,-2.0724,-2.0542,0.0,0.0,0.0,0.0,0.0,0.0,0.0,0.0,0.0,0.0,0.0,0.0,0.0,0.0,0.0,0.0,0.0,0.0,0.0,0.0,0.0,0.0,0.0,0.0,0.0,0.0,0.0,0.0,0.0,0.0,0.0,0.0,-2.7665,-3.0103,-3.4347,-3.8776,-4.2926,-4.533,-4.7288,-4.8946,-5.0053,-5.0815,-5.1453,-5.1612,-5.1755,-5.1931,-5.1917,-5.1521,-5.0578,-5.1734,-5.2541,-5.3088,-5.3234,-5.3904,-5.4936,-5.4331,-5.3697,-5.3064,-5.3395,-5.3801,-5.4157,-5.3895,-5.4283,-5.4979,-5.357,-5.1944,-5.0211,-4.9687,-4.8673,-4.7464,-4.7102,-4.6739,-4.6329,0.0,0.0,0.0,0.0,0.0,0.0,0.0,0.0,0.0,0.0,0.0,0.0,0.0,0.0,0.0,0.0,0.0,0.0,0.0,0.0,0.0,0.0,0.0,1.6607,1.4321,1.1999,0.8669,0.4495,0.0996,-0.2127,-0.4928,-0.6887,-0.9293,-1.2064,-1.4134,-1.5758,-1.7002,-1.8444,-1.9526,-2.0259,-2.0584,-2.096,-2.1346,-2.0998,-2.0533,-2.0027,-1.9514,-1.9358,-1.9229,-1.8164,0.0,0.0,0.0,0.0,0.0,0.0,0.0,0.0,0.0,0.0,0.0,0.0,0.0,0.0,0.0,0.0,0.0,0.0,0.0,0.0,0.0,0.0,0.0,0.0,-2.7587,-3.0811,-3.4414,-3.7282,-4.0536,-4.4648,-4.6435,-4.8034,-4.9533,-5.0632,-5.1296,-5.1376,-5.1772,-5.223,-5.2911,-5.2675,-5.2516,-5.263,-5.3339,-5.3636,-5.3638,-5.4566,-5.514,-5.5478,-5.5351,-5.5036,-5.4433,-5.4433,-5.4354,0.0,-5.4293,-5.4405,-5.4569,-5.3445,-5.1836,0.0,0.0,0.0,0.0,0.0,-4.6668,-4.624,0.0,0.0,0.0,0.0,0.0,0.0,0.0,0.0,0.0,0.0,0.0,0.0,0.0,0.0,0.0,0.0,0.0,0.0,0.0,0.0,0.0,1.9127,1.6584,1.3819,1.0668,0.6786,0.3697,0.1533,-0.2456,-0.5165,-0.6822,-1.0283,-1.2141,-1.2811,-1.5113,-1.6261,-1.6542,-1.7817,-1.8956,-1.9869,-2.0257,-2.1032,-2.1848,-2.1848,-2.1785,-2.1635,-2.141,-2.1167,-2.0685,-1.9436,0.0,0.0,0.0,0.0,0.0,0.0,0.0,0.0,0.0,0.0,0.0,0.0,0.0,0.0,0.0,0.0,0.0,0.0,0.0,0.0,0.0,0.0,0.0,0.0,-3.0615,-3.3773,-3.8119,-3.9462,-4.1019,-4.3713,-4.5799,-4.7117,-4.7292,-4.9276,-5.0266,-4.9837,-5.1376,-5.2579,-5.3357,0.0,0.0,0.0,0.0,-5.4734,-5.4629,-5.5701,-5.6008,-5.558,-5.6123,-5.6069,-5.5709,-5.5738,-5.5454,-5.5054,-5.4962,-5.4688,-5.4127,-5.3409,-5.1852,-4.9892,-4.897,-4.7672,-4.6314,-4.6491,-4.6371,0.0,0.0,0.0,0.0,0.0,0.0,0.0,0.0,0.0,0.0,0.0,0.0,0.0,0.0,0.0,0.0,0.0,0.0,0.0,0.0,0.0,2.0719,1.7488,1.4088,1.1149,0.8804,0.3621,0.044,-0.0723,-0.5863,-0.8718,-0.9588,-1.1191,-1.3032,-1.5,-1.5368,-1.6088,-1.7196,-1.7748,-1.8587,-1.9507,-1.9439,-2.0728,-2.2481,-2.2488,-2.2153,-2.1602,-2.1133,-2.0415,-1.9289,-1.7637,-1.6777,-1.6364,-1.5565,0.0,0.0,0.0,0.0,0.0,0.0,0.0,0.0,0.0,0.0,0.0,0.0,0.0,0.0,0.0,0.0,0.0,0.0,0.0,0.0,-2.8721,-3.123,-3.3933,-3.6997,-3.8698,-4.1111,-4.474,-4.5937,-4.6991,-4.8322,-4.8888,-4.928,-4.9609,-5.0408,-5.1469,-5.2648,-5.3591,-5.4484,-5.5225,-5.5722,-5.5817,-5.5261,-5.5496,-5.5891,-5.6208,0.0,0.0,-5.5694,-5.5857,-5.5603,-5.5054,-5.5054,-5.4953,-5.4893,-5.4151,-5.2377,-4.9801,-4.76,-4.6623,-4.658,-4.6756,-4.6617,-4.6162,0.0,0.0,0.0,0.0,0.0,0.0,0.0,0.0,0.0,0.0,0.0,0.0,0.0,0.0,0.0,0.0,0.0,0.0,0.0,2.1488,1.9071,1.642,1.3085,0.9974,0.713,0.2955,-0.0343,-0.2716,-0.6387,-0.8844,-1.0362,-1.1843,-1.3312,-1.4683,-1.5,-1.5595,-1.6242,-1.6728,-1.7477,-1.8311,-1.8653,-1.9836,-2.1481,-2.1388,-2.113,-2.0727,-2.064,-2.0033,-1.906,-1.7406,-1.6734,-1.6553,-1.5534,-1.5358,-1.5512,0.0,0.0,0.0,0.0,0.0,0.0,0.0,0.0,0.0,0.0,0.0,0.0,0.0,0.0,-2.2943,0.0,0.0,-2.7867,-3.0724,-3.2241,-3.4048,-3.6615,-3.828,-4.0477,-4.3839,-4.497,-4.6012,-4.7405,-4.8021,-4.8813,-5.0114,-5.0753,-5.1814,-5.3427,-5.4418,-5.5167,-5.548,-5.5736,-5.5599,-5.4998,-5.4998,-5.5556,-5.6551,-5.6258,-5.6551,-5.739,-5.7121,-5.6661,-5.6119,-5.5759,-5.5406,-5.4964,-5.3181,-5.1448,-4.9674,-4.7724,-4.6795,-4.6594,-4.6844,-4.6617,-4.6277,0.0,0.0,0.0,0.0,0.0,0.0,0.0,0.0,0.0,0.0,0.0,0.0,0.0,0.0,0.0,0.0,0.0,0.0,0.0,2.0104,1.7639,1.5396,1.249,0.9334,0.5918,0.2964,-0.025,-0.378,-0.604,-0.8138,-1.0312,-1.211,-1.3278,-1.3828,-1.4568,-1.505,-1.5228,-1.5777,-1.6471,-1.7213,-1.7903,-1.8761,-1.9796,-1.9579,-1.9644,-1.9645,-1.983,-1.9374,-1.854,-1.7294,-1.6882,-1.667,-1.5843,-1.5808,-1.5952,-1.5523,-1.5145,0.0,0.0,0.0,0.0,0.0,0.0,0.0,0.0,0.0,-2.0916,-2.2317,-2.3721,-2.5339,-2.7466,-2.813,-2.9387,-3.2286,-3.2868,-3.3813,-3.6192,-3.7575,-3.9334,-4.2003,-4.3601,-4.4945,-4.6188,-4.7192,-4.8506,-5.0519,-5.1137,-5.2232,-5.4383,-5.508,-5.5481,-5.548,-5.552,-5.513,-5.4497,-5.4505,-5.5215,-5.6534,-5.6559,-5.7498,-5.9098,-5.8375,-5.7793,-5.7374,-5.6394,-5.5588,-5.4743,-5.2267,-5.0819,-4.9908,-4.8561,-4.7439,-4.6786,-4.6948,-4.6721,-4.6252,0.0,0.0,0.0,0.0,0.0,0.0,0.0,0.0,0.0,0.0,0.0,0.0,0.0,0.0,0.0,0.0,0.0,0.0,2.2337,1.8955,1.6026,1.403,1.1366,0.8611,0.5713,0.2437,-0.0558,-0.3103,-0.6163,-0.8504,-1.0174,-1.1368,-1.2623,-1.4028,-1.4141,-1.4643,-1.552,-1.5868,-1.6471,-1.7221,-1.7186,-1.7621,-1.8357,-1.8088,-1.855,-1.9182,-1.904,-1.7785,-1.6157,-1.5777,-1.5503,-1.5291,-1.5706,-1.5531,-1.521,-1.5165,0.0,-1.3941,-1.3429,-1.3726,-1.4566,-1.6181,-1.7152,-1.802,0.0,0.0,-2.2475,-2.3281,-2.5098,-2.6826,-2.7467,-2.9171,-3.0701,-3.1475,-3.2267,-3.317,-3.4646,-3.5742,-3.7325,-3.9659,-4.2326,-4.4531,-4.615,-4.6866,-4.8125,-5.0493,-5.0737,-5.1878,-5.4313,-5.5077,-5.5396,-5.5451,-5.552,-5.513,-5.4497,-5.4413,-5.4912,-5.5872,-5.6362,-5.7532,-5.9083,-5.8483,-5.8198,-5.8053,-5.6094,-5.4861,-5.4112,-5.3139,-5.1981,-5.0638,-4.9282,-4.8083,-4.7193,-4.7359,-4.6859,-4.6081,0.0,0.0,0.0,0.0,0.0,0.0,0.0,0.0,0.0,0.0,0.0,0.0,0.0,0.0,0.0,0.0,0.0,0.0,2.0924,1.8268,1.6004,1.4474,1.2788,1.0375,0.7057,0.5021,0.2047,-0.1835,-0.3818,-0.6161,-0.8755,-0.9525,-1.0477,-1.1636,-1.1783,-1.2603,-1.3725,-1.3926,-1.4816,-1.6265,-1.6312,-1.6292,-1.6414,-1.6814,-1.6381,-1.5803,-1.6477,-1.6001,0.0,0.0,-1.3417,-1.3414,-1.3762,-1.3703,-1.335,-1.3053,-1.2774,0.0,-1.2734,-1.3501,-1.4602,-1.6049,-1.6878,-1.7754,-1.9753,-2.084,-2.1851,-2.364,-2.488,-2.6231,-2.8048,-2.9084,-3.0126,0.0,-3.2085,-3.2529,-3.3346,-3.4758,-3.6229,-3.7504,-4.101,-4.4325,-4.6708,-4.7337,-4.9193,-5.2598,-5.2945,-5.3709,-5.5535,-5.6225,-5.6239,-5.548,-5.5153,-5.487,-5.4497,-5.4198,-5.4868,-5.653,-5.7182,-5.8162,-5.922,-5.894,-5.8211,-5.6979,-5.5699,-5.4735,-5.4001,-5.2815,-5.2002,-5.1349,-4.9907,-4.8638,-4.7488,-4.6897,-4.6565,-4.6371,0.0,0.0,0.0,0.0,0.0,0.0,0.0,0.0,0.0,0.0,0.0,0.0,0.0,0.0,0.0,0.0,0.0,0.0,0.0,1.8232,1.6642,1.5313,1.4768,0.0,0.92,0.7952,0.5007,0.0331,-0.091,-0.3384,-0.6731,-0.721,-0.8236,-0.9651,-0.9858,-1.0798,-1.2104,-1.2104,-1.3069,-1.457,-1.4927,-1.4923,-1.4688,-1.5358,-1.4607,-1.3339,-1.4432,-1.439,0.0,0.0,-1.2078,-1.1908,-1.2134,-1.2103,-1.1828,-1.1353,-1.1111,-1.1189,-1.1791,-1.2847,-1.4039,-1.512,-1.6304,-1.755,-1.9128,-2.0163,-2.1284,-2.3051,-2.3897,-2.5003,-2.7238,-2.7857,-2.8651,-3.065,-3.1329,-3.1912,-3.2807,-3.4394,-3.5883,-3.7143,-4.043,-4.3769,-4.6914,-4.7768,-4.9704,-5.3724,-5.381,-5.453,-5.6263,-5.665,-5.6427,-5.5832,-5.4842,-5.4484,-5.479,-5.4373,-5.5119,-5.7062,-5.7958,-5.8623,-5.9301,-5.8906,-5.78,-5.6141,-5.5241,-5.4451,-5.3733,-5.2626,-5.188,-5.1287,-4.9828,-4.8501,-4.7232,-4.6239,-4.6135,-4.6491,0.0,0.0,0.0,0.0,0.0,0.0,0.0,0.0,0.0,0.0,0.0,0.0,0.0,0.0,0.0,0.0,0.0,0.0,0.0,1.8975,1.7913,1.6315,1.6979,1.5677,1.2018,1.0425,0.766,0.3759,0.1891,-0.0759,-0.406,-0.4508,-0.6256,-0.9124,-0.921,-0.9979,-1.1258,-1.1258,-1.156,-1.2175,-1.2777,-1.3226,-1.3607,-1.389,-1.3661,-1.3368,-1.3607,0.0,0.0,0.0,-1.1881,-1.1457,-1.1705,-1.1502,0.0,-1.0765,-1.0372,-1.0041,-1.0365,-1.1475,-1.2666,-1.3371,-1.5365,-1.7338,-1.7727,-1.9559,-2.1233,-2.1249,-2.2405,-2.3564,-2.427,-2.5174,-2.6477,-2.8213,-2.9577,-3.1196,-3.3431,-3.4713,-3.6614,-3.9823,-4.0811,-4.2758,0.0,-4.7691,-4.9269,-5.2574,-5.2124,-5.3153,-5.6191,-5.5808,-5.575,-5.6389,-5.4544,-5.4301,-5.5604,-5.5026,-5.5501,-5.7144,-5.8316,-5.9018,-5.9254,-5.7911,-5.6884,-5.611,-5.4719,-5.3755,-5.3139,-5.3055,-5.193,-5.0032,-4.873,-4.742,-4.6137,-4.5395,-4.558,-4.621,0.0,0.0,0.0,0.0,0.0,0.0,0.0,0.0,0.0,0.0,0.0,0.0,0.0,0.0,0.0,0.0,0.0,0.0,0.0,1.9856,1.9459,1.8275,1.8798,1.7813,1.4904,1.3859,1.1502,0.7788,0.6194,0.3867,0.0896,-0.0092,-0.1493,-0.3095,-0.436,-0.5751,-0.7086,-0.7621,-0.8758,-1.0257,-1.0657,-1.0792,-1.0604,-1.0762,-1.015,-0.9137,0.0,0.0,0.0,0.0,0.0,-0.9112,-0.8729,-0.8144,-0.7678,-0.7531,-0.8378,-0.9426,-0.981,-1.0824,-1.2203,-1.3572,-1.4696,-1.5987,-1.7573,-1.8561,-1.9479,-2.0589,-2.0245,-2.0414,-2.2515,-2.261,-2.3505,-2.6917,-2.8457,-3.0279,-3.3323,-3.5264,-3.7291,-3.965,-4.2289,0.0,0.0,0.0,0.0,-5.1775,-5.221,-5.3092,-5.5068,-5.5736,-5.5968,-5.575,-5.5256,-5.5221,-5.5654,-5.5677,-5.6143,-5.7083,-5.7542,-5.7819,-5.7879,-5.6473,-5.5699,-5.5414,-5.404,-5.3313,-5.2976,-5.205,-5.0769,-4.9434,-4.8443,-4.7137,-4.5535,-4.5317,-4.5374,-4.558,0.0,0.0,0.0,0.0,0.0,0.0,0.0,0.0,0.0,0.0,0.0,0.0,0.0,0.0,0.0,0.0,0.0,0.0,0.0,0.0,2.0831,2.0094,2.1146,2.0627,1.8047,1.7408,1.5525,1.235,1.0861,0.8748,0.5954,0.4516,0.2916,0.1327,-0.0193,-0.1784,-0.337,-0.3844,-0.501,-0.6785,-0.7359,-0.77,-0.7883,-0.787,-0.7521,0.0,0.0,0.0,0.0,0.0,-0.7385,-0.7031,-0.6379,-0.6073,-0.5836,-0.5877,-0.7121,-0.8691,-0.9091,-1.0261,-1.1562,-1.2772,-1.3407,-1.4414,-1.6246,-1.6998,-1.7695,-1.9233,-1.8401,-1.8065,-2.0078,-2.0061,-2.0931,-2.4262,-2.6763,-2.9584,-3.3892,-3.6159,-3.8726,-4.2336,-4.4967,-4.7057,0.0,0.0,0.0,-5.1382,-5.2426,-5.3268,-5.411,-5.5464,-5.5938,-5.5499,-5.5419,-5.5693,-5.6213,-5.6237,-5.6751,-5.7917,-5.7386,-5.7358,-5.7548,-5.5888,-5.513,-5.5067,-5.3945,-5.3329,-5.2992,-5.2081,-5.0682,-4.9161,-4.8245,-4.6778,-4.5094,-4.4827,-4.48,-4.494,0.0,0.0,0.0,0.0,0.0,0.0,0.0,0.0,0.0,0.0,0.0,0.0,0.0,0.0,0.0,0.0,0.0,0.0,0.0,0.0,0.0,2.1525,2.3679,2.3764,2.1315,2.0779,1.9436,1.7138,1.5585,1.3434,1.0868,0.8978,0.6749,0.4309,0.3399,0.1833,-0.0,0.0102,-0.0607,-0.1796,-0.299,-0.4192,-0.5282,-0.5368,0.0,0.0,0.0,0.0,0.0,0.0,-0.5539,-0.5277,-0.5008,-0.5282,-0.5673,-0.5791,-0.675,-0.7933,-0.8384,-0.957,-1.0618,-1.0903,-1.1729,-1.2788,-1.3877,-1.5058,-1.6,-1.7035,-1.6721,-1.65,0.0,0.0,-1.8789,-2.0757,-2.456,-2.9197,-3.4915,-3.7369,-4.1046,0.0,0.0,0.0,0.0,0.0,0.0,-5.157,0.0,-5.3547,-5.35,-5.4967,-5.5857,-5.5709,-5.5347,-5.5789,-5.71,-5.6526,-5.7332,-5.9191,-5.7816,-5.75,-5.8053,-5.5999,-5.5083,-5.5035,-5.4356,-5.3676,-5.3044,-5.3013,-5.1451,-4.9056,-4.7923,-4.6281,-4.4561,-4.385,-4.3912,-4.4504,0.0,0.0,0.0,0.0,0.0,0.0,0.0,0.0,0.0,0.0,0.0,0.0,0.0,0.0,0.0,0.0,0.0,0.0,0.0,0.0,0.0,0.0,0.0,0.0,0.0,0.0,0.0,0.0,0.0,1.5449,1.4146,1.1453,0.9814,0.0,0.7119,0.5487,0.433,0.3804,0.2766,0.1495,0.0,-0.0763,-0.1411,0.0,0.0,0.0,0.0,0.0,0.0,0.0,-0.4991,-0.4302,-0.3842,-0.4438,-0.5186,-0.5259,-0.66,-0.8252,-0.8699,-0.9175,-0.9774,-1.0707,-1.1168,-1.1748,-1.355,-1.4008,-1.4367,-1.5544,-1.4407,-1.3619,-1.4631,0.0,0.0,-2.057,-2.5163,0.0,-3.6009,-4.0563,0.0,-4.937,-5.0913,-5.2233,-5.3712,-5.3605,0.0,0.0,-5.3163,-5.3488,-5.445,-5.6299,-5.7115,-5.6587,-5.7007,-5.7177,-5.71,-5.7559,-5.7776,-5.7737,-5.6868,-5.6268,-5.5888,-5.4846,-5.4356,-5.4324,-5.366,-5.2949,-5.2254,-5.1733,-5.031,-4.8369,-4.7139,-4.5859,-4.4464,-4.3437,-4.3642,-4.4411,0.0,0.0,0.0,0.0,0.0,0.0,0.0,0.0,0.0,0.0,0.0,0.0,0.0,0.0,0.0,0.0,0.0,0.0,0.0,0.0,0.0,0.0,0.0,0.0,0.0,0.0,0.0,0.0,0.0,0.0,0.0,1.4503,1.3182,1.2505,1.0484,0.9131,0.8143,0.0,0.0,0.0,0.0,0.0,0.0,0.0,0.0,0.0,0.0,0.0,0.0,0.0,0.0,-0.3425,-0.3097,-0.4016,-0.5174,-0.5158,-0.6717,-0.8547,-0.893,-0.914,-0.9481,-1.0045,-1.0217,-1.0628,-1.2515,-1.2566,-1.2699,-1.4049,-1.2958,-1.2011,-1.262,-1.3902,-1.5862,0.0,0.0,0.0,-3.6897,-4.207,-4.7088,0.0,-5.3878,-5.5038,-5.6225,-5.5916,-5.5576,0.0,-5.457,-5.4525,-5.5275,-5.6716,-5.748,-5.7389,-5.7909,-5.7965,-5.759,-5.8073,-5.7911,-5.7216,-5.652,-5.5809,-5.5114,-5.4419,-5.4103,-5.4055,0.0,-5.287,-5.2444,-5.1717,-5.0476,-4.8764,-4.7391,-4.6232,-4.5067,-4.3437,-4.3642,-4.4676,0.0,0.0,0.0,0.0,0.0,0.0,0.0,0.0,0.0,0.0,0.0,0.0,0.0,0.0,0.0,0.0,0.0,0.0,0.0,0.0,0.0,0.0,0.0,0.0,0.0,0.0,0.0,0.0,0.0,0.0,0.0,0.0,0.0,0.0,0.0,0.0,0.0,0.0,0.0,0.0,0.0,0.0,0.0,0.0,0.0,0.0,0.0,0.0,0.0,0.0,-0.1362,-0.2685,-0.2472,-0.3748,-0.5246,-0.5327,-0.6888,-0.856,-0.9096,-0.9266,-0.9357,-0.9374,-0.938,-0.9846,-1.1416,-1.1358,-1.1433,-1.2731,-1.2118,-1.1257,-1.1064,-1.3242,-1.585,-1.7955,0.0,-3.0548,-3.7795,-4.3027,-4.8521,-5.5077,-5.6618,-5.7422,-5.8308,-5.7595,-5.7136,-5.7318,-5.6595,-5.6198,-5.6374,-5.7155,-5.7741,-5.8161,-5.8201,-5.8274,-5.8274,-5.8274,-5.7927,-5.7125,-5.652,-5.5809,-5.5027,-5.4333,-5.4055,-5.3843,0.0,0.0,-5.2692,-5.2128,-5.1,-4.9513,-4.8045,-4.6865,-4.5665,-4.3725,-4.3818,-4.494,0.0,0.0,0.0,0.0,0.0,0.0,0.0,0.0,0.0,0.0,0.9077,0.7138,0.0,0.0,0.0,0.0,0.0,0.0,0.0,0.0,0.0,0.0,0.0,0.0,0.0,0.0,0.0,0.0,0.0,0.0,0.0,0.0,0.0,0.0,0.0,0.0,0.0,0.0,0.0,0.0,0.0,0.0,0.0,0.0,0.0,0.0,0.0,0.0,0.0,0.0,-0.0303,-0.2166,-0.1896,-0.3102,-0.468,-0.5628,-0.6571,-0.7483,-0.8993,-0.9269,-0.9222,-0.9351,-1.006,-1.081,-1.1353,-1.1557,-1.1798,-1.1968,-1.1269,-1.0829,-1.1223,-1.3367,-1.6654,-2.126,-2.6909,-3.3149,-3.9966,-4.5853,-5.0962,0.0,-5.6741,-5.8303,-5.9672,-5.856,0.0,0.0,0.0,-5.748,-5.8597,-5.9358,-5.9286,-5.8294,-5.8338,-5.8274,-5.8274,-5.8274,-5.7835,-5.6942,-5.6431,-5.5721,-5.4835,-5.4175,-5.3546,-5.2964,0.0,0.0,-5.1124,-5.113,-5.0363,-4.8964,-4.7729,-4.655,-4.5379,-4.4007,-4.3912,-4.4504,0.0,0.0,0.0,0.0,0.0,0.0,0.0,0.0,1.2131,1.0374,0.8098,0.6596,0.6376,0.6665,0.0,0.0,0.0,0.0,0.0,0.0,0.0,0.0,0.0,0.0,0.0,0.0,2.0106,2.0297,0.0,0.0,0.0,0.0,0.0,0.0,0.0,0.0,0.0,0.0,0.0,0.0,0.0,0.0,0.0,0.0,0.0,0.0,0.0,0.0,0.0,0.0,0.1196,-0.0309,-0.1417,-0.2658,-0.3895,-0.4832,-0.6086,-0.7253,-0.8133,-0.8697,-0.9096,-0.9323,-0.9599,-1.0035,-1.105,-1.0893,-1.0654,-1.1384,-1.1234,-1.1063,-1.1402,-1.3825,-1.6927,-2.0799,-2.6119,-3.2436,-3.9788,-4.586,-5.1323,-5.601,-5.8014,-5.9289,-6.0141,-5.9183,-5.8634,-5.9139,0.0,-5.8325,-5.9721,-5.9774,-5.9317,-5.8306,-5.7819,-5.7538,-5.7538,-5.71,-5.6383,-5.5571,-5.5332,-5.4815,-5.4053,-5.3725,-5.3208,-5.2535,-5.226,0.0,-5.0665,-5.0499,-4.9718,-4.8656,-4.7634,-4.6682,-4.5822,-4.4555,-4.4476,-4.5152,0.0,0.0,0.0,0.0,0.0,0.0,0.0,1.4243,1.2405,0.9938,0.7919,0.6579,0.6357,0.608,0.608,0.0,0.0,0.0,0.0,0.0,0.0,0.0,0.0,0.0,0.0,0.0,0.0,1.9157,1.9258,0.0,0.0,0.0,0.0,0.0,1.6123,0.0,0.0,0.0,0.0,0.0,0.0,0.0,0.0,0.0,0.0,0.0,0.0,0.0,0.0,0.0,0.2623,0.1211,-0.0765,-0.2004,-0.3009,-0.392,-0.5189,-0.6473,-0.726,-0.7936,-0.8709,-0.9313,-0.9398,-0.977,-1.1019,-1.0618,-1.0314,-1.1467,-1.1585,-1.174,-1.2486,-1.4825,-1.7713,-2.0844,-2.5689,-3.1797,-3.9532,-4.5419,-5.1031,-5.6707,-5.8712,0.0,-6.0185,-5.927,0.0,0.0,0.0,0.0,-5.9586,-5.9001,-5.8448,-5.7961,-5.7084,-5.6694,-5.6851,-5.5902,-5.5124,-5.4333,-5.4407,-5.397,-5.3072,-5.3072,-5.2635,-5.1841,-5.1549,0.0,0.0,-5.0009,-4.934,-4.8355,-4.7649,-4.6887,-4.6135,-4.4954,-4.4968,-4.5518,0.0,0.0,0.0,0.0,0.0,0.0,0.0,1.4417,1.3203,1.1397,0.9323,0.7698,0.6815,0.6124,0.5915,0.0,0.0,0.0,0.0,0.0,0.0,0.0,0.0,0.0,0.0,0.0,0.0,1.7585,1.7805,0.0,0.0,0.0,0.0,0.0,0.0,1.5513,0.0,0.0,0.0,0.0,0.0,0.0,0.0,0.0,0.0,0.0,0.0,0.0,0.0,0.0,0.0,0.1352,0.0403,-0.073,-0.1938,-0.3228,-0.3657,-0.4392,-0.6804,-0.7431,-0.7798,-0.9106,-1.0703,-1.1738,-1.1358,-1.2102,-1.2836,-1.2868,-1.2528,-1.293,-1.5141,-1.7138,-1.9995,-2.4667,-2.8938,-3.395,-4.0664,-4.6127,-5.0872,-5.453,0.0,0.0,-5.9865,-5.875,0.0,0.0,0.0,0.0,-5.75,-5.6852,-5.6636,-5.6914,-5.6254,-5.6116,-5.6559,-5.5811,-5.5049,-5.4094,-5.4333,-5.3617,-5.2095,-5.2095,-5.1468,-5.0242,-5.0346,0.0,0.0,-4.9788,-4.9163,-4.8003,-4.7904,-4.6784,-4.5216,-4.5124,-4.4862,-4.4504,0.0,0.0,0.0,0.0,0.0,0.0,1.5188,1.4141,1.2982,1.1579,0.9567,0.793,0.6905,0.5972,0.5365,0.0,0.0,0.0,0.0,0.0,0.0,0.0,0.0,0.0,0.0,0.0,1.6137,1.774,1.7546,0.0,0.0,0.0,0.0,0.0,0.0,1.4761,1.4094,0.0,0.0,0.0,0.0,0.0,0.0,0.0,0.0,0.0,0.0,0.0,0.2052,0.2368,0.1281,-0.0367,-0.0933,-0.2104,0.0,0.0,-0.281,-0.3905,-0.5773,-0.6802,-0.7922,-1.0164,-1.0747,-1.1261,-1.2746,-1.2758,-1.2808,-1.4115,-1.4497,-1.5126,-1.7266,-1.9434,-2.2038,-2.5436,-2.9041,0.0,-3.875,-4.3304,-4.8063,-5.3492,-5.5829,0.0,0.0,0.0,-5.7229,0.0,0.0,0.0,-5.5335,-5.5873,-5.621,-5.6207,-5.5352,-5.4953,-5.5067,-5.4218,-5.3663,-5.3294,-5.3369,-5.2874,-5.1858,-5.1858,-5.1117,-4.9835,-5.0003,0.0,0.0,-4.9597,-4.8821,-4.7463,-4.7463,-4.6506,-4.5124,-4.5124,-4.523,-4.5244,0.0,0.0,0.0,0.0,0.0,1.5979,1.5057,1.4281,1.3321,1.2001,1.0413,0.9025,0.7808,0.658,0.5663,0.5064,0.0,0.0,0.0,0.0,0.0,0.0,0.0,0.0,0.0,0.0,1.5532,1.7416,1.71,1.6696,0.0,0.0,1.5279,1.4227,0.0,0.0,0.0,0.0,0.0,0.0,0.0,0.0,0.0,0.0,0.0,0.0,0.0,0.0,0.0,0.0,0.0,-0.3006,-0.3282,0.0,0.0,0.0,-0.3022,-0.4363,-0.5978,-0.7182,-0.8618,-1.1504,-1.191,-1.2152,-1.4317,-1.421,-1.4144,-1.6078,-1.675,-1.7717,-2.011,-2.2125,-2.438,-2.708,0.0,-3.3454,-3.7907,-4.1571,-4.5834,-5.134,0.0,-5.5347,0.0,-5.7543,0.0,0.0,0.0,0.0,0.0,-5.4964,-5.549,-5.5395,-5.4469,-5.4041,-5.4003,-5.3142,-5.2713,-5.2713,-5.2513,-5.2052,-5.1405,-5.1205,-5.0466,-4.9374,0.0,0.0,0.0,-4.9437,-4.8656,-4.7291,-4.7291,-4.6521,-4.5307,-4.5307,-4.5413,-4.5427,0.0,0.0,0.0,0.0,0.0,0.0,0.0,1.5103,1.462,1.3055,1.2363,1.1353,0.9811,0.8242,0.7115,0.6628,0.0,0.0,0.0,0.0,0.0,0.0,0.0,0.0,0.0,0.0,1.4763,1.6111,1.6225,1.6123,1.5842,1.5922,1.5065,1.3411,0.0,0.0,0.0,0.0,0.0,0.0,0.0,0.0,0.0,0.0,0.0,0.0,0.0,0.0,0.0,0.0,0.0,0.0,0.0,0.0,0.0,0.0,-0.455,-0.5601,-0.7786,-0.8669,-0.9901,-1.3029,-1.4639,-1.5594,-1.6186,-1.7019,-1.8011,-1.9122,-1.9353,-2.0459,-2.4175,-2.5455,-2.7105,-3.0508,-3.2645,0.0,-3.9077,-4.2217,-4.507,0.0,0.0,-5.1188,-5.4251,-5.5559,0.0,0.0,0.0,0.0,0.0,-5.3805,-5.4031,-5.4391,-5.3606,-5.3322,-5.3714,-5.3052,-5.2713,-5.2698,-5.2036,-5.1359,-5.0682,-5.0005,-4.9312,0.0,0.0,0.0,0.0,-4.921,-4.8604,-4.7578,-4.7578,-4.6901,-4.588,-4.588,-4.5244,-4.4411,0.0,0.0,0.0,0.0,0.0,0.0,0.0,1.4462,1.4009,1.3358,1.2396,1.1218,0.9864,0.833,0.719,0.6624,0.0,0.0,0.0,0.0,0.0,0.0,0.0,0.0,0.0,0.0,1.3094,1.4201,1.4235,1.4275,1.405,1.3082,1.2282,1.1803,1.113,1.0429,0.0,0.0,0.0,0.0,0.0,0.0,0.0,0.0,0.0,0.0,0.0,0.0,0.0,0.0,0.0,0.0,0.0,0.0,0.0,-1.2008,-0.9917,-0.8384,-1.0436,-1.1904,-1.3749,-1.6968,-1.7903,-1.8564,-2.0053,-2.0898,-2.1732,-2.3004,-2.4026,-2.5339,-2.7532,-2.8743,-3.0296,-3.2801,-3.4733,-3.6597,0.0,0.0,0.0,-4.8836,-5.3517,-5.6498,0.0,0.0,0.0,0.0,0.0,0.0,0.0,-5.3599,-5.3502,-5.3559,-5.3268,-5.309,-5.3037,-5.2821,-5.2483,-5.2021,-5.1805,-5.1113,-5.0005,-4.9789,0.0,0.0,0.0,0.0,0.0,-4.9078,-4.8256,-4.7016,-4.7016,-4.6344,-4.5307,-4.4954,-4.4862,-4.4755,0.0,0.0,0.0,0.0,0.0,0.0,0.0,1.368,1.3074,1.3034,1.197,1.093,1.0198,0.8918,0.788,0.7504,0.0,0.0,0.0,0.0,0.0,0.0,0.0,0.0,0.0,1.0201,1.1424,1.2526,1.2052,1.1733,1.1558,1.0124,0.9115,0.848,0.8098,0.7517,0.0,0.0,0.0,0.0,0.0,0.0,-0.274,0.0,0.0,0.0,0.0,0.0,0.0,0.0,0.0,0.0,0.0,0.0,0.0,0.0,-1.6555,-1.4847,-1.4929,-1.5968,-1.7802,-2.0715,-2.1446,-2.1947,-2.3682,-2.437,-2.5142,-2.6964,-2.8033,-2.9209,-3.1089,-3.2041,-3.3122,-3.4866,-3.6039,-3.7374,0.0,0.0,0.0,-4.9037,0.0,0.0,0.0,0.0,0.0,0.0,0.0,0.0,0.0,-5.3246,-5.2968,-5.2982,-5.2982,-5.2893,-5.2713,-5.2713,-5.2498,-5.2082,-5.1559,-5.0882,-5.0051,-4.9528,0.0,0.0,0.0,0.0,0.0,-4.865,-4.7949,-4.6959,-4.677,-4.6077,-4.5032,-4.4769,-4.4569,-4.4462,0.0,0.0,0.0,0.0,0.0,0.0,0.0,0.0,1.2081,1.2194,1.1261,1.0584,1.0848,0.9711,0.8942,0.905,0.0,0.0,0.0,0.0,0.0,0.0,0.0,0.0,0.0,0.8403,0.9489,1.0689,0.9364,0.8505,0.8069,0.676,0.5175,0.3544,0.3637,0.3216,0.2348,0.1215,0.0499,-0.0087,-0.2425,-0.42,0.0,0.0,0.0,0.0,0.0,0.0,0.0,0.0,0.0,0.0,0.0,0.0,0.0,0.0,0.0,0.0,0.0,-2.0952,-2.2193,-2.46,-2.5404,-2.5863,-2.7019,-2.7528,0.0,-3.0923,-3.1502,-3.2372,-3.4728,-3.5234,-3.5589,-3.66,-3.6878,-3.7918,0.0,-4.2607,0.0,0.0,-5.1958,0.0,0.0,0.0,0.0,0.0,0.0,0.0,0.0,-5.2738,-5.2415,-5.2544,-5.2606,-5.2667,-5.2713,-5.2667,-5.2606,-5.2544,-5.1251,-5.059,-5.0497,-4.9204,0.0,0.0,0.0,0.0,0.0,-4.8118,-4.7709,-4.7222,-4.6771,-4.5956,-4.5124,-4.5032,-4.4462,-4.36,0.0,0.0,0.0,0.0,0.0,0.0,0.0,0.0,0.0,0.0,1.0455,1.0012,1.0341,0.9249,0.87,0.0,0.0,0.0,0.0,0.0,0.0,0.0,0.0,0.0,0.0,0.5826,0.5973,0.4937,0.3859,0.2698,0.1363,-0.0323,-0.1858,-0.3134,-0.2201,-0.1737,-0.1594,-0.1945,-0.2477,-0.329,-0.5003,-0.6458,0.0,0.0,0.0,0.0,-2.0605,-2.2972,0.0,0.0,0.0,0.0,0.0,0.0,0.0,0.0,-2.8461,-2.9485,-2.9273,0.0,-2.7885,-2.9699,-3.0613,-3.1095,0.0,-3.2397,-3.3689,-3.42,-3.5548,-3.6573,-3.6552,-3.7308,-3.7815,-3.7482,-3.8685,-4.0193,-4.1647,-4.6392,0.0,-5.3081,-5.5503,-5.6233,0.0,0.0,0.0,0.0,0.0,0.0,0.0,-5.2284,-5.1775,-5.1174,-5.1667,-5.219,-5.2713,-5.219,-5.1682,-5.1159,-5.0313,-4.9635,-4.9097,-4.8758,0.0,0.0,0.0,0.0,-4.8521,-4.7734,-4.7336,-4.7207,-4.6299,-4.5656,-4.5032,-4.4676,-4.4195,-4.36,0.0,0.0,0.0,0.0,0.0,0.0,0.0,0.0,0.0,0.0,0.0,0.0,0.0,0.0,0.0,0.0,0.0,0.0,0.0,0.0,0.0,0.0,0.0,0.0,0.3231,0.2989,0.2102,0.0551,-0.1804,-0.3712,-0.5212,-0.7493,-0.875,-0.903,-0.7817,-0.6757,-0.5922,-0.5972,-0.5887,-0.5689,-0.639,0.0,0.0,0.0,0.0,0.0,-2.166,-2.4999,0.0,-2.7341,-2.8334,-2.9618,0.0,0.0,0.0,0.0,-3.2266,-3.334,-3.414,-3.3201,-3.2203,-3.3315,-3.3817,-3.4044,-3.4062,-3.4958,-3.5921,-3.6767,-3.8004,-3.8897,-3.8673,-3.943,-3.975,-3.8717,-4.021,0.0,0.0,0.0,-5.2221,-5.4868,-5.5859,0.0,0.0,0.0,0.0,0.0,0.0,0.0,0.0,-5.1997,-5.1397,-5.0697,-5.0743,-5.1097,-5.1775,-5.1728,-5.1359,-5.0682,-5.0005,-4.9481,-4.9097,-4.8758,-4.862,0.0,0.0,0.0,-4.7904,-4.7204,-4.6697,-4.6166,-4.5144,-4.4393,-4.404,-4.3961,-4.3682,-4.3227,0.0,0.0,0.0,0.0,0.0,0.0,0.0,0.0,0.0,0.0,0.0,0.0,0.0,0.0,0.0,0.0,0.0,0.0,0.0,0.0,0.0,0.0,0.0,0.2352,0.2116,0.0234,-0.1634,-0.3435,-0.7235,-0.9999,-1.1825,-1.4362,-1.5162,-1.4374,-1.3247,-1.1816,-1.0414,-1.0319,-0.9419,-0.8039,-0.7901,0.0,0.0,0.0,0.0,0.0,0.0,0.0,0.0,-3.0029,-3.1192,-3.2501,-3.2786,0.0,0.0,0.0,0.0,0.0,-3.6854,-3.6531,-3.5968,-3.6219,-3.6162,-3.6168,-3.6537,-3.6689,-3.723,-3.8741,-3.9632,-4.0232,-4.0671,-4.1304,0.0,0.0,0.0,0.0,-4.8431,-5.0337,-5.2359,-5.5207,0.0,0.0,0.0,0.0,0.0,0.0,0.0,0.0,0.0,-5.1599,-5.0925,-5.0475,-4.9928,-4.9912,-5.0374,-5.1051,-5.1113,-5.0528,-4.9851,-4.9528,-4.9497,-4.8897,-4.862,0.0,0.0,0.0,-4.7189,-4.6564,-4.5723,-4.4867,-4.3723,-4.2934,-4.2657,-4.3118,-4.3026,-4.2726,0.0,0.0,0.0,0.0,0.0,0.0,0.0,0.0,0.0,0.0,0.0,0.0,0.0,0.0,0.0,0.0,0.0,0.0,0.0,0.0,0.0,0.0,0.2895,0.1562,0.0156,-0.186,-0.4722,-0.843,-1.1569,-1.5197,-1.9111,-1.995,-1.9983,-1.9158,-1.8083,-1.6581,-1.4871,-1.3698,-1.3002,-1.2572,-1.1968,0.0,0.0,0.0,0.0,0.0,0.0,0.0,0.0,-3.3535,-3.3417,-3.3553,-3.4252,0.0,0.0,0.0,0.0,0.0,-3.797,-3.9065,-3.9909,-3.9119,-3.9323,-3.9654,-3.9447,-3.9879,-4.0325,-4.0323,-4.0826,-4.1365,-4.143,-4.2031,-4.2374,0.0,0.0,-4.8333,0.0,0.0,-5.4299,0.0,0.0,0.0,0.0,0.0,0.0,0.0,0.0,0.0,0.0,-5.0782,-4.991,-4.9254,-4.9519,-4.9435,-4.8943,-4.9635,-4.9943,-4.9835,-4.9127,-4.8773,-4.8773,-4.8666,-4.862,0.0,0.0,-4.8088,-4.7073,-4.5727,-4.4803,-4.4224,-4.2621,-4.2034,-4.2034,-4.2488,-4.2307,-4.1965,0.0,0.0,0.0,0.0,0.0,0.0,0.0,0.0,0.0,0.0,0.0,0.0,0.0,0.0,0.0,0.0,0.0,0.0,0.0,0.0,0.0,0.3097,0.1094,-0.0388,-0.1394,-0.4862,-0.867,-1.2845,-1.668,-2.0237,-2.3385,-2.3466,-2.3201,-2.254,-2.1146,-1.9372,-1.7493,-1.6839,-1.5771,-1.4455,0.0,0.0,0.0,0.0,0.0,0.0,0.0,0.0,0.0,0.0,-3.5484,-3.5557,-3.5915,0.0,0.0,0.0,0.0,0.0,-3.7584,-3.8817,-4.0149,-4.0522,-4.1281,-4.1803,-4.1292,-4.1693,-4.2029,-4.1274,-4.1699,-4.2299,0.0,0.0,-4.5025,-4.7022,0.0,-5.0321,-5.2714,-5.3636,-5.433,0.0,0.0,0.0,0.0,0.0,0.0,0.0,0.0,0.0,0.0,0.0,-4.9957,-4.9027,-4.9223,-4.8955,-4.8081,-4.8758,-4.9112,-4.9097,-4.8773,-4.8419,-4.8065,-4.8065,-4.7865,-4.7542,0.0,-4.7289,-4.5859,-4.5215,-4.4124,-4.2884,-4.1498,-4.0959,-4.1036,-4.1742,-4.2411,-4.2977,0.0,0.0,0.0,0.0,0.0,0.0,0.0,0.0,0.0,0.0,0.0,0.0,0.0,0.0,0.0,0.0,0.0,0.0,0.0,0.0,0.3023,0.0871,-0.1778,-0.352,-0.3997,-0.8369,-1.2742,-1.7117,-2.1188,-2.4041,-2.5841,-2.5697,-2.5141,-2.4259,-2.2709,-2.1044,-1.9413,-1.9107,-1.8035,-1.6374,0.0,0.0,0.0,0.0,0.0,0.0,0.0,0.0,0.0,0.0,0.0,0.0,0.0,0.0,0.0,-3.6637,-3.6785,-3.6966,-3.6801,-3.7935,-3.944,-4.0954,-4.2157,-4.3072,-4.3201,-4.3637,-4.396,-4.3448,-4.3827,-4.4336,0.0,-4.5642,0.0,-5.099,-5.1553,-5.2059,-5.3678,0.0,0.0,0.0,0.0,0.0,0.0,0.0,0.0,0.0,0.0,0.0,0.0,0.0,-4.9872,-4.886,-4.8748,-4.8244,-4.7373,-4.7881,-4.8142,-4.8142,-4.8296,-4.8019,-4.7373,-4.7373,-4.7096,-4.6619,-4.7142,-4.6328,-4.4603,-4.4632,-4.3517,-4.1663,-4.0663,-4.0419,-4.0597,-4.1275,-4.2396,-4.3471,0.0,0.0,0.0,0.0,0.0,0.0,0.0,0.0,0.0,0.0,0.0,0.0,0.0,0.0,0.0,0.0,0.0,0.0,0.0,0.0,-0.1612,-0.3118,-0.601,-0.7995,-0.8905,-1.2483,-1.6589,-2.1262,-2.3851,-2.5466,-2.6192,-2.6453,-2.5507,-2.3442,-2.2186,-2.1416,-2.0924,-1.9766,-1.9529,-1.9747,-1.8921,0.0,0.0,0.0,0.0,0.0,0.0,0.0,0.0,0.0,0.0,0.0,0.0,0.0,-3.6538,-3.5702,-3.598,-3.6554,-3.6043,-3.7324,-3.9103,-4.0147,-4.1518,-4.3282,-4.5885,-4.6602,-4.711,-4.8318,-4.8599,-4.8453,0.0,-4.7898,-4.8745,-5.0991,-5.2533,-5.4191,0.0,0.0,0.0,0.0,0.0,0.0,0.0,0.0,0.0,0.0,0.0,0.0,0.0,0.0,0.0,-4.8402,-4.7939,-4.7357,-4.668,-4.6726,-4.6742,-4.6742,-4.7373,-4.7327,-4.6665,-4.6665,-4.665,-4.6603,-4.665,-4.5649,-4.4007,-4.3862,-4.2668,-4.0976,-4.0765,-4.0943,-4.1284,-4.1368,-4.1748,-4.2223,0.0,0.0,0.0,0.0,0.0,0.0,0.0,0.0,0.0,0.0,0.0,0.0,0.0,0.0,0.0,0.0,0.0,0.0,0.0,0.0,-0.5052,-0.72,-1.0166,-1.3546,-1.7484,-1.8629,-2.1113,-2.4963,-2.6876,-2.743,-2.6788,-2.5865,-2.4915,-2.3987,-2.2537,-2.1837,-2.1711,-2.1252,-2.0934,-2.0847,-2.0941,-2.035,0.0,0.0,0.0,0.0,0.0,0.0,0.0,0.0,-4.0251,-3.9881,0.0,-3.7933,-3.6293,-3.5447,-3.4718,-3.4259,-3.4559,-3.6437,-3.8606,-4.0047,-4.1709,-4.3702,-4.6615,-4.7965,-4.8927,-4.9599,-5.0905,-5.1503,0.0,0.0,-5.3102,-5.3391,-5.5118,-5.6604,0.0,0.0,0.0,0.0,0.0,0.0,0.0,0.0,0.0,0.0,0.0,0.0,0.0,0.0,0.0,-4.8308,-4.7524,-4.6808,-4.5972,-4.6388,-4.6172,-4.5357,-4.6449,-4.6619,-4.5972,-4.5972,-4.5741,-4.5357,-4.5788,-4.4956,-4.3253,-4.3568,-4.2624,-4.0927,-4.0768,-4.0958,-4.1396,-4.1396,-4.1662,-4.2092,0.0,0.0,0.0,0.0,0.0,0.0,0.0,0.0,0.0,0.0,0.0,0.0,0.0,0.0,0.0,0.0,0.0,0.0,-0.7518,-0.8235,-0.9697,-1.2284,-1.5048,-1.8786,-2.3697,-2.432,-2.6018,-2.8993,-2.9714,-2.8917,-2.6719,-2.546,-2.4496,-2.3902,-2.2886,-2.2519,-2.2776,-2.2574,-2.2595,-2.2805,-2.2933,-2.3227,0.0,0.0,0.0,0.0,0.0,0.0,0.0,0.0,-4.1225,0.0,0.0,0.0,-3.5859,-3.4857,-3.3805,-3.303,-3.3339,-3.5441,-3.7985,-3.9606,-4.1704,-4.4333,-4.7917,-4.9424,-5.0504,-5.2246,-5.3322,-5.3661,-5.2828,0.0,0.0,0.0,-5.6493,0.0,0.0,0.0,0.0,0.0,0.0,0.0,0.0,0.0,0.0,0.0,0.0,0.0,0.0,0.0,0.0,0.0,-4.6603,-4.569,-4.4861,-4.5433,-4.5172,-4.4264,-4.4987,-4.5203,-4.4941,-4.4941,-4.4587,-4.3987,-4.4419,-4.3708,-4.2212,-4.267,-4.2117,-4.0997,-4.1128,-4.1055,-4.1004,-4.1504,-4.1699,-4.1787,0.0,0.0,0.0,0.0,0.0,0.0,0.0,0.0,0.0,0.0,0.0,0.0,0.0,0.0,0.0,0.0,0.0,0.0,-1.161,-1.3605,-1.5886,-1.8454,-2.0746,-2.3379,-2.6454,-2.9122,-3.1431,-3.3395,-3.2257,-2.9645,-2.5731,-2.5507,-2.455,-2.2925,-2.3092,-2.3569,-2.4174,-2.3643,-2.4555,-2.6186,-2.492,-2.5192,-2.6481,0.0,0.0,0.0,0.0,0.0,0.0,0.0,-4.1009,-4.0129,0.0,0.0,0.0,-3.3743,-3.3407,-3.3297,-3.2376,-3.4502,-3.7375,-3.8796,-4.1491,-4.5163,-5.0239,-5.1078,-5.2152,-5.6812,-5.6142,-5.4816,-5.5488,-5.3478,0.0,-5.5575,0.0,0.0,0.0,0.0,0.0,0.0,0.0,0.0,0.0,0.0,0.0,0.0,0.0,0.0,0.0,0.0,0.0,0.0,-4.4815,-4.3943,-4.3284,-4.3503,-4.3571,-4.3556,-4.291,-4.294,-4.3556,-4.3556,-4.3217,-4.2575,-4.2425,-4.1799,-4.0908,-4.1033,-4.1062,-4.1163,-4.1816,-4.1265,-4.0249,-4.1584,-4.1657,-4.1091,0.0,0.0,0.0,0.0,0.0,0.0,0.0,0.0,0.0,0.0,0.0,0.0,0.0,0.0,0.0,0.0,0.0,0.0,-1.5057,-1.7092,-1.9158,-2.1342,-2.3923,-2.6467,-2.8979,-3.2474,-3.3935,-3.3277,-3.2109,-3.0168,-2.7419,-2.6072,-2.5485,-2.5617,-2.5087,-2.5679,-2.704,-2.6396,-2.695,-2.8239,-2.7985,-2.8118,-2.8612,0.0,0.0,0.0,0.0,0.0,0.0,0.0,0.0,0.0,0.0,0.0,0.0,-3.4013,-3.3459,-3.3487,-3.4016,-3.579,-3.8102,-4.047,-4.3214,-4.6388,-5.0386,-5.1665,-5.3177,-5.7741,-5.7707,-5.685,-5.6558,-5.7019,0.0,0.0,0.0,0.0,0.0,0.0,0.0,0.0,0.0,0.0,0.0,0.0,0.0,0.0,0.0,0.0,0.0,0.0,0.0,0.0,-4.356,-4.2591,-4.24,-4.2563,-4.2697,-4.2682,-4.2126,-4.2248,-4.2894,-4.2894,-4.2786,-4.2544,-4.1942,-4.1385,-4.0828,-4.0367,-4.0492,-4.1076,-4.08,-4.0452,-4.0147,-4.0539,-4.0568,-4.0394,0.0,0.0,0.0,0.0,0.0,0.0,0.0,0.0,0.0,0.0,0.0,0.0,0.0,0.0,0.0,0.0,0.0,0.0,0.0,0.0,-2.2322,-2.4448,-2.6858,-2.9206,-3.1306,-3.4007,-3.4824,-3.3721,-3.2632,-3.0834,-2.8519,-2.7618,-2.7449,-2.786,-2.7769,-2.8351,-2.9387,-2.9338,-2.9987,-3.1148,-3.1366,-3.1226,-3.102,0.0,0.0,0.0,0.0,0.0,0.0,0.0,0.0,0.0,0.0,0.0,-3.5477,-3.4194,-3.3902,-3.4114,-3.4741,-3.6704,-3.9215,-4.17,-4.4557,-4.7798,-5.1648,-5.4,-5.6188,-5.8944,-5.8836,-5.8351,-5.8631,-5.8819,0.0,0.0,0.0,0.0,0.0,0.0,0.0,0.0,0.0,0.0,0.0,0.0,0.0,0.0,0.0,0.0,0.0,0.0,0.0,0.0,-4.2034,-4.1105,-4.1105,-4.1096,-4.1213,-4.1519,-4.0728,-4.0674,-4.1401,-4.1955,-4.2048,-4.173,-4.0816,-4.0135,-3.9719,-3.942,-3.9733,-4.0321,-4.0162,-3.9784,-3.9407,-3.99,-3.9944,-3.9741,0.0,0.0,0.0,0.0,0.0,0.0,0.0,0.0,0.0,0.0,0.0,0.0,0.0,0.0,0.0,0.0,0.0,0.0,0.0,0.0,-2.5317,-2.7465,-2.9579,-3.158,-3.3401,-3.425,-3.4562,-3.4284,-3.3415,-3.1789,-2.9464,-2.9915,-3.0039,-2.9986,-3.0732,-3.1294,-3.1682,-3.2276,-3.3332,-3.458,-3.4632,-3.4166,-3.3546,-3.4254,0.0,0.0,0.0,0.0,0.0,0.0,0.0,0.0,-3.5646,-3.5182,-3.499,-3.4201,-3.4542,-3.5194,-3.5178,-3.7461,-4.0446,-4.2874,-4.6196,-4.9918,-5.3913,-5.7531,-6.0089,-6.0062,0.0,-5.9459,-6.0895,-5.9426,0.0,0.0,0.0,0.0,0.0,0.0,0.0,0.0,0.0,0.0,0.0,0.0,0.0,0.0,0.0,0.0,0.0,0.0,0.0,0.0,-4.0266,-3.9522,-3.9522,-3.9169,-3.9349,0.0,-3.8844,-3.8681,-3.9564,-4.0863,-4.1008,-4.0261,-3.9341,-3.8574,-3.7854,-3.851,-3.8894,-3.917,-3.9726,-3.9218,-3.8347,-3.9494,-3.9581,-3.9117,0.0,0.0,0.0,0.0,0.0,0.0,0.0,0.0,0.0,0.0,0.0,0.0,0.0,0.0,0.0,0.0,0.0,0.0,0.0,0.0,-2.717,-2.9564,-3.2414,-3.4018,-3.4297,-3.4906,-3.446,-3.2832,-3.3329,-3.3117,-3.2304,-3.1221,-3.1759,-3.3683,-3.2886,-3.3752,-3.575,-3.4702,-3.5176,-3.6532,-3.5864,-3.5499,-3.5288,-3.485,-3.4486,0.0,0.0,0.0,0.0,0.0,0.0,0.0,-3.4454,-3.4881,-3.5484,-3.4283,-3.5169,-3.6676,-3.7648,-3.9256,-4.1606,-4.5906,-5.1378,-5.6196,-5.8305,-5.9674,-6.0278,-5.9236,-5.9452,-5.9867,-6.0246,-6.0409,0.0,0.0,0.0,0.0,0.0,0.0,0.0,0.0,0.0,0.0,0.0,0.0,0.0,0.0,0.0,0.0,0.0,0.0,0.0,-3.9751,-3.856,-3.7945,-3.7945,-3.7606,-3.7749,0.0,-3.8011,-3.8469,-3.9592,-3.9841,-3.9485,-3.8664,-3.8888,-3.8403,-3.7423,-3.7886,-3.8337,-3.8759,-3.8601,-3.8449,-3.8231,-3.8507,-3.8522,-3.842,0.0,0.0,0.0,0.0,0.0,0.0,0.0,0.0,0.0,0.0,0.0,0.0,0.0,0.0,0.0,0.0,0.0,0.0,0.0,0.0,0.0,-3.2617,-3.4365,-3.5429,-3.5712,-3.5771,-3.5351,-3.4387,-3.5083,-3.4871,-3.3956,-3.4006,-3.4906,-3.6502,-3.5843,-3.637,-3.7629,-3.6987,-3.723,-3.7969,-3.7875,-3.7367,-3.6688,-3.6292,-3.5629,-3.4927,-3.4397,0.0,0.0,0.0,0.0,0.0,0.0,0.0,-3.54,-3.4728,-3.5666,-3.7025,-3.765,-3.9445,-4.2354,-4.727,-5.1891,-5.5754,-5.7751,-5.901,-5.9581,-5.9222,-5.9216,-5.9372,-5.9387,0.0,0.0,0.0,0.0,0.0,0.0,0.0,0.0,0.0,0.0,0.0,0.0,0.0,0.0,0.0,0.0,0.0,0.0,-3.9719,-3.9086,-3.838,-3.7551,-3.708,-3.708,-3.6564,-3.6791,-3.7714,-3.7594,-3.8087,-3.9017,-3.929,-3.8892,-3.8062,-3.8103,-3.7844,-3.7456,-3.7706,-3.8018,-3.8361,-3.8257,-3.8202,-3.8202,-3.8202,-3.8202,-3.8202,0.0,0.0,0.0,0.0,0.0,0.0,0.0,0.0,0.0,0.0,0.0,0.0,0.0,0.0,0.0,0.0,0.0,0.0,0.0,0.0,0.0,-3.5514,-3.5967,-3.632,-3.6704,-3.6405,-3.621,-3.6206,-3.7018,-3.6837,-3.5723,-3.6985,-3.7944,-3.8648,-3.8522,-3.8562,-3.8687,-3.88,-3.8907,-3.8925,-3.9452,-3.8861,-3.7727,-3.7576,-3.6764,-3.5579,-3.5097,-3.4932,-3.4879,-3.4205,0.0,0.0,0.0,0.0,-3.5139,-3.5035,-3.5859,-3.6751,-3.6816,-3.9565,-4.3384,-4.7745,-5.0962,-5.3567,-5.5506,-5.714,-5.8335,-5.8735,-5.8735,-5.8579,0.0,0.0,0.0,0.0,0.0,0.0,0.0,0.0,0.0,0.0,0.0,0.0,0.0,0.0,0.0,0.0,0.0,0.0,-3.865,-3.8445,-3.8007,-3.7229,-3.6714,-3.6442,-3.6538,-3.5845,-3.6194,-3.763,-3.7799,-3.8008,-3.8376,-3.8984,-3.8726,-3.7851,-3.7419,-3.7296,-3.7457,-3.7548,-3.7763,-3.8127,-3.8202,-3.8202,-3.8202,-3.8202,-3.8202,-3.8202,0.0,0.0,0.0,0.0,0.0,0.0,0.0,0.0,0.0,0.0,0.0,0.0,0.0,0.0,0.0,0.0,0.0,0.0,-2.7988,0.0,0.0,-3.6628,-3.737,-3.7114,-3.5745,-3.6059,-3.5685,-3.4594,-3.6957,-3.8589,-3.9361,-3.8547,-3.8898,-4.0158,-3.9181,-3.9239,-4.0075,-3.9467,-3.9227,-3.9193,-3.8792,-3.8472,-3.8164,-3.7228,-3.6766,-3.6612,-3.6082,-3.5977,-3.604,-3.5952,-3.563,0.0,0.0,0.0,-3.505,-3.4486,-3.5168,-3.6283,-3.7295,-4.1388,-4.5826,-4.7712,-5.1699,-5.5029,-5.4728,0.0,-5.6474,0.0,-5.7296,-5.8459,0.0,0.0,0.0,0.0,0.0,0.0,0.0,0.0,0.0,0.0,0.0,0.0,0.0,0.0,0.0,0.0,0.0,0.0,-3.759,-3.7126,-3.6565,-3.5981,-3.5873,-3.6007,-3.6436,-3.5292,-3.5745,-3.7753,-3.9098,-3.936,-3.8639,-3.8916,-3.8447,-3.7274,-3.7201,-3.7132,-3.7148,-3.7457,-3.761,-3.7687,-3.8052,-3.8202,-3.8202,-3.8202,-3.8202,-3.8202,0.0,0.0,0.0,0.0,0.0,0.0,0.0,0.0,0.0,0.0,0.0,0.0,0.0,0.0,0.0,-2.4759,-2.6169,-2.8137,-3.072,-3.2923,-3.4944,-3.6768,-3.7318,-3.739,-3.6916,-3.6808,-3.6603,-3.6326,-3.7883,-3.9215,-4.0318,-4.0449,-4.1186,-4.2359,-4.1453,-4.1198,-4.1357,-4.036,-3.9799,-3.959,-3.8931,-3.8544,-3.831,-3.7388,-3.6993,-3.6808,-3.636,-3.6514,-3.6867,-3.6867,-3.6678,-3.6344,-3.5677,0.0,0.0,0.0,-3.4881,-3.5834,-3.7449,-3.9411,-4.1909,-4.5491,-4.7789,-4.9893,-5.2533,-5.3537,-5.395,-5.4005,-5.4821,0.0,0.0,0.0,0.0,0.0,0.0,0.0,0.0,0.0,0.0,0.0,0.0,0.0,0.0,0.0,0.0,0.0,0.0,-3.8243,-3.6252,-3.609,-3.5886,-3.5507,-3.5615,-3.6031,-3.6772,-3.6136,-3.6613,-3.8105,-3.8641,-3.8482,-3.7744,-3.7836,-3.7811,-3.7636,-3.739,-3.7385,-3.7672,-3.7825,-3.7915,-3.7976,-3.8127,-3.8202,-3.8202,-3.8202,-3.8202,-3.8202,0.0,0.0,0.0,0.0,0.0,0.0,0.0,0.0,0.0,0.0,0.0,0.0,0.0,0.0,0.0,0.0,-2.7537,-2.9807,-3.2713,-3.4109,-3.5497,-3.7084,-3.7283,-3.7458,-3.7713,-3.7091,-3.7022,-3.7514,-3.8253,-3.9249,-4.0429,-4.1342,-4.2555,-4.3847,-4.332,-4.2678,-4.1971,-4.1094,-4.0527,-4.0196,-3.9226,-3.8753,-3.8601,-3.7963,-3.7459,-3.711,-3.7183,-3.7419,-3.781,-3.797,-3.7912,-3.768,-3.6997,-3.6243,0.0,0.0,0.0,-3.5508,-3.6878,-3.7188,-3.8082,-4.226,-4.3216,-4.4329,0.0,0.0,-5.0841,0.0,0.0,0.0,0.0,0.0,0.0,0.0,0.0,0.0,0.0,0.0,0.0,0.0,0.0,0.0,0.0,0.0,0.0,0.0,0.0,-3.6952,-3.5345,-3.5359,-3.5372,-3.54,-3.5615,-3.6191,-3.7148,-3.7195,-3.7446,-3.7769,-3.785,-3.7607,-3.702,-3.702,-3.721,-3.7544,-3.7011,-3.7259,-3.797,-3.797,-3.797,-3.797,-3.797,-3.797,-3.7955,-3.7781,-3.7661,-3.7702,0.0,0.0,0.0,0.0,0.0,0.0,0.0,0.0,0.0,0.0,0.0,0.0,-2.0103,-2.2648,-2.4946,-2.6518,-2.7507,-2.9645,-3.3483,-3.7016,-3.8684,-3.8076,-3.7789,0.0,-3.7036,-3.6055,-3.5846,-3.6485,-3.7451,-3.8683,-4.0155,-4.05,-4.1808,-4.3785,-4.3816,-4.2971,-4.1544,-4.1527,-4.1456,-4.1177,-3.9456,-3.9063,-3.9428,-3.8985,-3.8372,-3.794,-3.9173,-3.9387,-3.9189,-3.9755,-3.9567,-3.8986,-3.8318,-3.7259,-3.6141,0.0,0.0,0.0,-3.5323,-3.6119,-3.7124,-3.8098,-3.9304,-4.0959,0.0,0.0,0.0,0.0,0.0,0.0,0.0,0.0,0.0,0.0,0.0,0.0,0.0,0.0,0.0,0.0,0.0,0.0,0.0,0.0,0.0,0.0,0.0,-3.5141,-3.5032,-3.4634,-3.4812,-3.5629,-3.571,-3.627,-3.7534,-3.7872,-3.7486,-3.632,-3.7428,-3.7714,-3.7183,-3.7183,-3.6936,-3.6387,-3.572,-3.6185,-3.736,-3.736,-3.736,-3.736,-3.736,-3.736,-3.7273,-3.6635,-3.6329,-3.6208,0.0,0.0,0.0,0.0,0.0,0.0,0.0,0.0,0.0,0.0,0.0,0.0,0.0,-2.1933,-2.4529,-2.7114,-2.9614,-3.2048,-3.448,-3.6113,-3.7062,-3.7204,-3.7564,-3.735,-3.6421,-3.6535,-3.6478,-3.6421,-3.7377,-3.8544,-3.9716,-4.0299,-4.1054,-4.1967,-4.2276,-4.2226,-4.1796,-4.0917,-4.0604,-4.0696,-4.0073,-4.0064,-4.0375,-3.9322,-3.8852,-3.8788,-3.8344,-3.8912,-3.9813,-4.0031,-4.0234,-4.0307,-3.9625,-3.8275,-3.6664,-3.5183,-3.4709,-3.4668,-3.4668,-3.4607,-3.503,-3.7044,-3.7545,-3.8637,-4.2912,-4.4341,-4.5467,0.0,0.0,0.0,0.0,0.0,0.0,0.0,0.0,0.0,0.0,0.0,0.0,0.0,0.0,0.0,0.0,0.0,0.0,0.0,0.0,0.0,-3.4415,-3.4371,-3.4468,-3.4581,-3.4902,-3.5626,-3.6779,-3.6487,-3.6266,-3.6134,-3.6207,-3.6133,-3.5948,-3.5948,-3.5613,-3.5082,-3.4849,-3.5488,-3.6664,-3.6664,-3.6664,-3.6592,-3.6127,-3.6148,-3.6344,-3.5232,-3.4996,-3.5264,0.0,0.0,0.0,0.0,0.0,0.0,0.0,0.0,0.0,-1.486,0.0,0.0,0.0,0.0,-2.4423,-2.8074,-3.116,-3.3521,-3.4913,-3.591,-3.6634,-3.7095,-3.7451,-3.7301,-3.662,-3.6683,-3.6628,-3.6479,-3.7148,-3.8083,-3.912,-3.9637,-4.0192,-4.0749,-4.0813,-4.1152,-4.1617,-4.0484,-4.0259,-4.0745,-4.0252,-4.0607,-4.1286,-4.0451,-4.022,-4.0285,-3.9521,-3.9853,-4.0771,-4.0771,-4.1062,-4.1323,-4.0641,-3.9131,-3.723,-3.5299,-3.4733,-3.469,-3.4472,-3.3811,-3.3704,-3.579,-3.5534,-3.6006,-4.0609,0.0,-4.3132,0.0,0.0,0.0,0.0,0.0,0.0,0.0,0.0,0.0,0.0,0.0,0.0,0.0,0.0,0.0,0.0,0.0,0.0,0.0,0.0,0.0,-3.3771,-3.3882,-3.4043,-3.4209,-3.493,-3.5494,-3.5996,-3.5575,-3.5448,-3.5539,-3.5126,-3.492,-3.492,-3.492,-3.4735,-3.4414,-3.4414,-3.5009,-3.5996,-3.5996,-3.5996,-3.5911,-3.5165,-3.5113,-3.5246,-3.3861,-3.3558,-3.3799,0.0,0.0,0.0,0.0,0.0,0.0,0.0,0.0,-1.6058,-1.584,0.0,0.0,0.0,0.0,0.0,-2.9429,-3.2018,-3.3811,-3.4742,-3.6686,-3.7801,-3.7917,-3.7518,-3.7334,-3.7518,0.0,0.0,0.0,0.0,0.0,0.0,-3.8391,-3.9103,-4.0315,-3.9587,-3.9851,-4.0805,-4.0254,-4.059,-4.1294,-3.9978,-4.051,-4.2157,-4.2417,-4.2466,-4.2383,-4.2652,-4.2482,-4.2092,-4.2078,-4.2107,-4.2034,-4.1323,-3.9784,-3.7883,-3.5981,-3.5485,-3.5285,0.0,0.0,0.0,-3.4196,0.0,0.0,-3.6431,0.0,-3.9841,0.0,0.0,0.0,0.0,0.0,0.0,0.0,0.0,0.0,0.0,0.0,0.0,0.0,0.0,0.0,0.0,0.0,0.0,0.0,0.0,-3.3081,-3.3081,-3.3142,-3.3598,-3.4589,-3.5688,-3.5981,-3.5412,-3.5343,-3.5024,-3.4414,-3.4414,-3.4414,-3.4414,-3.4414,-3.4414,-3.4414,-3.4414,-3.4762,-3.5343,-3.5328,-3.5343,-3.5288,-3.4455,-3.4096,-3.3982,-3.2536,-3.195,-3.1859,0.0,0.0,0.0,0.0,0.0,0.0,0.0,-1.7282,-1.7423,0.0,0.0,0.0,-1.8836,-2.289,-2.7014,-3.0718,-3.2556,-3.3883,-3.4795,-3.6137,-3.6676,-3.6326,-3.6705,-3.6515,-3.5702,0.0,0.0,0.0,0.0,0.0,0.0,0.0,0.0,-3.957,-3.887,-3.8743,-3.9034,-3.8851,-3.9279,-3.999,-4.0101,-4.0975,-4.2082,-4.1581,-4.1504,-4.164,-4.061,-4.1048,-4.202,-4.1541,-4.231,-4.3195,-4.1599,-4.0394,-3.9204,-3.7317,-3.6765,-3.6519,-3.5401,0.0,0.0,0.0,0.0,0.0,0.0,0.0,0.0,0.0,0.0,0.0,0.0,0.0,0.0,0.0,0.0,0.0,0.0,0.0,0.0,0.0,0.0,0.0,0.0,0.0,0.0,0.0,-3.324,-3.3081,-3.3081,-3.3257,-3.3367,-3.3422,-3.4228,-3.4725,-3.4675,-3.4675,-3.4588,-3.4414,-3.4414,-3.4414,-3.4414,-3.4414,-3.4414,-3.4414,-3.4414,-3.4516,-3.4607,-3.4068,-3.4059,-3.4284,-3.2494,-3.2337,-3.2824,-3.1085,-3.065,-3.0966,0.0,0.0,0.0,0.0,0.0,0.0,0.0,-1.7637,-1.7733,0.0,0.0,0.0,-2.1101,-2.5232,-2.8724,-3.1254,-3.257,-3.3704,-3.4608,-3.5318,-3.5759,-3.5779,-3.6224,-3.6013,-3.5057,0.0,0.0,0.0,0.0,0.0,0.0,0.0,0.0,0.0,0.0,0.0,-3.7531,-3.7472,-3.8054,-3.906,-3.9747,-4.0894,-4.2209,-4.2129,-4.2319,-4.2599,-4.1609,-4.1932,-4.2832,-4.244,-4.2876,-4.3282,-4.1613,-4.0829,-4.0133,-3.8231,-3.768,-3.7404,-3.6112,-3.5265,-3.4682,-3.4824,0.0,0.0,-3.645,-3.753,0.0,0.0,0.0,0.0,0.0,0.0,0.0,0.0,0.0,0.0,0.0,0.0,0.0,0.0,0.0,0.0,0.0,0.0,0.0,-3.3081,-3.3081,-3.2968,-3.2729,-3.2992,-3.3074,-3.2922,-3.3535,-3.4023,-3.4414,-3.4153,-3.4153,-3.4414,-3.4414,-3.4414,-3.4414,-3.4414,-3.4414,-3.4414,-3.4414,-3.4105,-3.3507,-3.2709,-3.2932,-3.3547,-3.1875,-3.1522,-3.1707,-3.0582,-3.0193,-3.0269,0.0,0.0,0.0,0.0,0.0,0.0,0.0,-1.7674,-1.7612,0.0,-1.846,-2.0754,-2.5047,-2.7785,-2.9945,-3.1517,-3.2567,-3.3537,-3.4426,-3.4579,-3.5038,-3.5828,-3.5872,-3.5604,-3.5146,-3.519,0.0,0.0,0.0,0.0,0.0,0.0,0.0,0.0,0.0,0.0,-3.6399,-3.618,0.0,-3.8299,-3.9112,-4.046,0.0,0.0,-4.3852,-4.4227,-4.3957,-4.3921,-4.4008,-4.4066,-4.3473,-4.2635,-4.1482,-4.0968,-4.0573,-3.8804,-3.8254,-3.7965,-3.678,-3.6011,-3.5546,-3.547,-3.5375,0.0,-3.5264,-3.6508,-3.7904,0.0,0.0,0.0,0.0,0.0,0.0,0.0,0.0,0.0,0.0,0.0,0.0,0.0,0.0,0.0,0.0,-3.3139,-3.298,-3.298,-3.2918,-3.2726,-3.2135,-3.2618,-3.2901,-3.2839,-3.3263,-3.3703,-3.4196,-3.3645,-3.3688,-3.4312,-3.4312,-3.4356,-3.4414,-3.4414,-3.4414,-3.4414,-3.4346,-3.3536,-3.2314,-3.1541,-3.1913,-3.2735,-3.1739,-3.1083,-3.0735,-3.0479,-3.0156,-2.9792,-1.5113,0.0,0.0,0.0,0.0,0.0,0.0,-1.774,-1.7953,-1.8766,-2.1278,-2.4225,-2.7713,-2.9237,-3.0933,-3.3212,-3.3873,-3.4535,-3.5559,-3.5382,-3.5336,-3.5501,-3.5507,-3.5223,-3.4583,-3.5063,0.0,0.0,0.0,0.0,0.0,0.0,0.0,0.0,0.0,0.0,0.0,0.0,0.0,-3.7313,-3.8456,-3.9669,-4.086,-4.2187,-4.2614,-4.2573,-4.3047,-4.3529,-4.4052,-4.42,-4.3178,-4.1776,0.0,0.0,0.0,-3.8805,-3.8573,-3.8365,-3.7356,-3.7027,-3.6678,-3.5633,-3.6065,0.0,-3.5914,-3.6764,-3.7857,0.0,0.0,0.0,0.0,0.0,0.0,0.0,0.0,0.0,0.0,0.0,0.0,0.0,0.0,0.0,0.0,-3.2559,-3.239,-3.239,-3.1976,-3.1787,-3.1811,-3.2488,-3.2741,-3.2417,-3.3092,-3.3282,-3.289,-3.2759,-3.3021,-3.3659,-3.3659,-3.392,-3.4414,-3.4414,-3.4414,-3.4332,-3.3742,-3.3014,-3.2342,-3.1406,-3.0897,-3.0566,-2.9279,-2.929,-2.996,-2.9466,-2.949,-2.9792,-1.7174,0.0,0.0,0.0,0.0,0.0,0.0,0.0,-1.9024,-2.0319,-2.4156,-2.754,-2.959,-3.1281,-3.2782,-3.401,-3.4923,-3.552,-3.5682,-3.6077,-3.6198,-3.5857,-3.5878,-3.5664,-3.5372,-3.5685,-3.5525,0.0,0.0,0.0,0.0,0.0,0.0,0.0,0.0,0.0,0.0,0.0,-3.5696,-3.6891,-3.8222,0.0,-4.0538,-4.1924,-4.2242,-4.2179,-4.2774,-4.3344,-4.356,-4.292,-4.2053,0.0,-4.0645,-3.9929,-3.9122,0.0,-3.8588,-3.844,0.0,0.0,0.0,-3.6504,-3.6491,0.0,0.0,-3.6827,-3.7296,-3.77,0.0,0.0,0.0,0.0,0.0,0.0,0.0,0.0,0.0,0.0,0.0,0.0,0.0,0.0,0.0,-3.188,-3.18,-3.18,-3.1665,-3.1602,-3.168,-3.2597,-3.2971,-3.2778,-3.3269,-3.347,-3.347,-3.3151,-3.3311,-3.3935,-3.3935,-3.4109,-3.4414,-3.4414,-3.4182,-3.3742,-3.3367,-3.2458,-3.1192,-3.0421,-2.9515,-2.8728,-2.8874,-2.9114,-2.9365,-2.9365,-2.9541,-2.9792,-1.9171,-1.9155,0.0,0.0,0.0,0.0,0.0,0.0,-2.049,-2.2509,-2.6795,-3.0244,-3.1878,-3.3539,-3.4824,-3.5369,-3.6218,-3.6577,-3.6318,-3.6943,-3.6983,-3.6288,-3.6259,-3.6072,-3.5669,-3.5913,-3.5669,0.0,0.0,0.0,0.0,0.0,0.0,0.0,0.0,-3.5657,-3.4964,0.0,0.0,-3.6295,0.0,-3.9328,-4.0517,-4.1857,-4.2242,-4.2179,-4.2591,-4.282,-4.2753,-4.1164,-4.0655,-4.048,-3.9614,-3.9053,0.0,0.0,0.0,0.0,0.0,0.0,0.0,0.0,0.0,-3.6461,0.0,0.0,0.0,0.0,0.0,0.0,0.0,0.0,0.0,0.0,0.0,0.0,0.0,0.0,0.0,0.0,0.0,0.0,0.0,-3.1153,-3.1085,-3.1085,-3.1125,-3.1261,-3.1399,-3.2338,-3.2945,-3.3083,-3.3183,-3.3529,-3.4051,-3.3543,-3.3601,-3.424,-3.424,-3.4216,-3.4182,-3.4182,-3.3742,-3.3003,-3.2847,-3.1734,-3.0045,-2.9444,-2.8433,-2.7406,-2.8662,-2.9001,-2.8825,-2.9302,-2.9603,-2.9792,-2.0317,-2.024,-2.0512,0.0,0.0,0.0,0.0,0.0,-2.2194,-2.6413,-2.877,-3.1572,-3.5617,-3.5652,-3.6427,-3.8905,-3.7965,-3.7804,-3.9303,-3.8065,-3.695,-3.6151,-3.6076,-3.5152,-3.3315,-3.4353,-3.4353,-3.3192,0.0,0.0,0.0,0.0,0.0,0.0,-3.5389,-3.4684,-3.3965,0.0,-3.4539,0.0,-3.7236,-3.8995,0.0,-4.1584,-4.2092,-4.2082,-4.1795,-4.1625,-4.1148,0.0,-3.9249,-3.883,0.0,-3.6975,-3.6692,-3.6387,0.0,0.0,0.0,0.0,0.0,0.0,-3.7201,0.0,0.0,0.0,-3.6929,-3.7138,0.0,0.0,0.0,0.0,0.0,0.0,0.0,0.0,0.0,0.0,0.0,0.0,0.0,0.0,0.0,0.0,-2.998,-2.998,-2.9622,-2.9697,-3.04,-3.1156,-3.1811,-3.2587,-3.2593,-3.2658,-3.273,-3.2672,-3.2948,-3.3572,-3.3572,-3.3499,-3.3367,-3.3367,-3.2946,-3.2218,-3.1476,-3.0729,-3.0012,-2.9285,-2.8296,-2.7256,-2.6954,-2.7394,-2.821,-2.8273,-2.8925,-2.9792,-2.1856,-2.2032,-2.2208,0.0,0.0,0.0,0.0,0.0,0.0,-3.0378,-3.3127,-3.5642,-3.7761,-3.7929,-3.8534,-4.0074,-3.9206,-3.8529,-3.8608,-3.8123,-3.7659,-3.725,-3.6907,-3.632,-3.5494,-3.5642,-3.4979,-3.3512,-3.3996,0.0,0.0,0.0,0.0,0.0,-3.3848,0.0,-3.2974,0.0,-3.4611,0.0,0.0,0.0,0.0,-4.0278,-4.0838,-4.0604,-4.0049,-3.9811,-3.9468,0.0,-3.782,0.0,0.0,0.0,0.0,-3.6243,0.0,0.0,0.0,0.0,0.0,0.0,0.0,0.0,-3.7293,0.0,-3.6356,0.0,0.0,0.0,0.0,0.0,0.0,0.0,-3.2789,0.0,0.0,0.0,0.0,0.0,0.0,0.0,0.0,0.0,0.0,0.0,0.0,-2.9966,-3.031,-3.1415,-3.2163,-3.2513,-3.2875,-3.3064,-3.3064,-3.3441,-3.3746,-3.4022,-3.3575,-3.3265,-3.3213,-3.2791,-3.2146,-3.1415,-3.1044,-3.0358,-2.9336,-2.8722,-2.7996,-2.7231,-2.6747,-2.6942,-2.7632,-2.7632,-2.8335,-2.9289,-2.3345,-2.3361,-2.3486,-2.4034,0.0,0.0,0.0,0.0,0.0,0.0,-3.5812,-3.8106,-3.9404,-3.9531,-4.0049,-4.1517,-4.0413,-3.9412,-3.8916,-3.8652,-3.8249,-3.7565,-3.715,-3.669,-3.6127,-3.5947,-3.5112,-3.3514,0.0,0.0,0.0,0.0,0.0,0.0,0.0,-3.2249,-3.2074,0.0,-3.3886,-3.4117,-3.5759,-3.6453,-3.6654,-3.8445,-3.8985,-3.8635,-3.8092,-3.7768,-3.7436,-3.6874,-3.6543,0.0,-3.6718,0.0,0.0,0.0,0.0,0.0,-3.5902,0.0,0.0,0.0,0.0,0.0,0.0,0.0,0.0,0.0,0.0,0.0,0.0,0.0,-3.2302,-3.2442,0.0,-3.1747,0.0,0.0,0.0,0.0,0.0,0.0,0.0,0.0,0.0,-2.8399,-2.9136,-2.9605,-2.9821,-3.1039,-3.1873,-3.2237,-3.2875,-3.3282,-3.347,-3.4095,-3.4264,-3.4045,-3.352,-3.3003,-3.2563,-3.2001,-3.1341,-3.062,-3.062,-2.9934,-2.8888,-2.8335,-2.777,-2.7231,-2.6747,-2.6703,-2.708,-2.7231,-2.7883,-2.8725,-2.4565,-2.3962,-2.3691,-2.4925,0.0,0.0,0.0,0.0,0.0,0.0,0.0,0.0,-4.0802,-3.9873,-4.04,-4.4166,-4.1824,-4.0603,-4.167,-3.9987,-3.8167,-3.6223,-3.607,-3.5128,-3.3316,-3.3882,-3.3751,-3.2619,0.0,0.0,0.0,0.0,0.0,0.0,-3.1742,-3.1254,-3.1294,-3.1751,-3.1609,-3.1189,-3.3252,-3.4385,-3.5053,0.0,-3.6596,-3.6171,-3.621,0.0,0.0,-3.5164,-3.5431,0.0,0.0,0.0,0.0,0.0,0.0,0.0,0.0,0.0,0.0,-3.5257,0.0,0.0,0.0,0.0,-3.5449,0.0,0.0,0.0,0.0,-3.4795,-3.3883,-3.2716,-3.2513,0.0,0.0,0.0,0.0,0.0,0.0,0.0,0.0,0.0,0.0,-2.7344,-2.7468,-2.7855,-2.8495,-2.9275,-3.0273,-3.1464,-3.2193,-3.2846,-3.3456,-3.4095,-3.4045,-3.3227,-3.3213,-3.242,-3.0957,-3.097,-3.0545,-2.9869,-2.9869,-2.9465,-2.8888,-2.8335,-2.777,-2.7231,-2.6747,-2.6533,-2.6622,-2.708,-2.7645,-2.821,-2.4675,-2.4767,-2.4855,-2.5333,-2.5899,0.0,0.0,-3.2022,0.0,0.0,-3.7449,0.0,0.0,-4.2245,-4.2474,-4.4561,-4.2787,-4.1051,-3.991,-3.9284,-3.8291,-3.6801,-3.7336,-3.71,-3.6096,-3.6182,-3.5264,-3.3385,0.0,0.0,0.0,0.0,0.0,0.0,0.0,-3.0495,0.0,0.0,0.0,0.0,0.0,-3.2866,-3.3437,0.0,0.0,-3.5461,-3.525,-3.497,0.0,-3.4678,-3.4557,-3.4385,-3.3763,-3.3941,-3.4295,-3.3958,-3.3805,0.0,0.0,0.0,-3.3979,-3.4869,0.0,0.0,0.0,0.0,0.0,0.0,0.0,0.0,0.0,-3.4022,-3.3235,-3.2593,-3.215,-3.1088,0.0,0.0,0.0,0.0,0.0,0.0,0.0,0.0,0.0,-2.7256,-2.7069,-2.7392,0.0,-2.9219,-2.9969,-3.0887,-3.1526,-3.1961,-3.2179,-3.3253,-3.3413,-3.2623,-3.2526,-3.1915,-3.0895,-3.0406,-3.0075,-2.9792,-2.9792,-2.9264,-2.8373,-2.8185,-2.7557,-2.6716,-2.6596,-2.6533,-2.6546,-2.6666,-2.708,-2.7695,-2.5096,-2.5179,-2.5377,0.0,0.0,0.0,0.0,0.0,0.0,0.0,-3.8862,0.0,-4.3242,0.0,-4.2691,0.0,-4.2651,-4.0971,-3.9357,-3.9316,-3.8834,-3.7645,-3.8091,-3.8066,-3.7508,-3.7326,-3.6315,-3.4216,-3.372,-3.2924,0.0,0.0,0.0,0.0,0.0,-3.0075,-2.9894,-3.0753,-3.1126,0.0,0.0,-3.108,0.0,0.0,-3.3038,-3.3832,0.0,-3.2967,-3.2767,-3.2974,-3.2803,-3.234,-3.2008,-3.2147,-3.2524,-3.2268,-3.2489,-3.281,-3.3334,-3.3343,0.0,-3.3581,-3.3477,0.0,-3.4788,0.0,0.0,0.0,0.0,0.0,0.0,0.0,-3.299,-3.2564,-3.1961,-3.0768,0.0,-2.7351,0.0,0.0,0.0,0.0,0.0,0.0,-2.6383,-2.6346,-2.6426,-2.7,0.0,0.0,-2.9608,-3.0568,-3.1192,-3.1387,-3.1123,-3.2464,-3.2532,-3.1556,-3.1645,-3.1267,-3.0482,-2.9998,-2.9792,-2.9689,-2.9689,-2.8987,-2.7963,-2.7644,-2.7001,-2.6025,-2.5721,-2.5652,-2.5721,-2.6314,-2.6804,-2.7381,-2.5784,-2.5457,0.0,0.0,-2.9083,0.0,0.0,0.0,-3.6759,0.0,-3.9194,-4.0682,-4.2334,-4.1307,-4.1115,-4.2666,-4.1513,-4.0461,-4.0087,-4.0045,-3.9551,-3.8414,-3.8497,-3.8087,-3.7355,-3.7477,-3.6703,-3.4969,-3.4588,0.0,0.0,0.0,0.0,0.0,-3.0228,0.0,-2.9792,-2.9792,-2.9792,-2.9624,-2.8816,-2.9042,-2.9881,-2.9032,-2.9834,-3.1347,-3.0508,-2.969,-2.9203,-3.017,-3.002,-2.9645,-3.0314,-3.053,-3.0552,-3.0273,-3.0841,-3.1481,-3.0399,-3.178,-3.3033,-3.1493,0.0,0.0,0.0,0.0,-3.438,0.0,0.0,0.0,0.0,0.0,0.0,-3.2614,-3.1855,-3.0663,-2.8766,-2.7351,-2.6421,0.0,0.0,0.0,0.0,-2.5865,-2.5729,-2.4698,-2.558,-2.6569,0.0,0.0,-2.9142,-3.0507,-3.1101,-3.108,-3.0495,-3.1654,-3.1501,-3.0045,-3.062,-3.0469,-2.9792,-2.9792,-2.9611,-2.9341,-2.9341,-2.8669,-2.7644,-2.6812,-2.6041,-2.5194,-2.442,-2.412,-2.4337,-2.5873,-2.6804,-2.7281,-2.5482,-2.6157,-2.7053,0.0,-2.8649,-2.9404,0.0,0.0,0.0,0.0,-3.8569,-4.0011,-4.2121,-4.2026,-4.1848,-4.2345,-4.1384,0.0,0.0,0.0,-3.9249,-3.8307,-3.9424,-3.9543,-3.8691,-3.8522,-3.7547,-3.58,-3.4489,0.0,-3.2659,0.0,0.0,0.0,0.0,-3.0152,-2.9792,-2.9792,-2.9456,-2.8749,-2.8234,-2.8428,0.0,0.0,-2.8643,-2.9487,-2.9644,-2.9263,-2.8688,-2.8686,-2.8746,-2.8541,-2.7896,-2.8395,-2.9052,-2.8306,-2.8998,-2.9952,-2.9765,-3.0019,-3.0528,-3.0963,-3.1087,-3.154,0.0,0.0,0.0,0.0,0.0,0.0,0.0,0.0,0.0,-3.2542,-3.068,-2.9118,-2.8583,0.0,0.0,-2.7319,0.0,0.0,-2.582,-2.5536,-2.5265,-2.4994,-2.5351,0.0,0.0,0.0,0.0,-2.9808,-3.0026,-2.9987,-2.9848,-3.048,-3.0319,-2.936,-3.0424,-3.0469,-2.9792,-2.9599,-2.9094,-2.8426,-2.8279,-2.7422,-2.6152,-2.5618,-2.5017,-2.4414,-2.4039,-2.4337,-2.5004,-2.5453,-2.5934,-2.6468,-2.6087,-2.7201,0.0,-2.8627,0.0,0.0,-3.0872,0.0,0.0,-3.6877,-3.816,0.0,-4.0634,-4.0751,-4.0582,-4.0526,-3.9725,0.0,-3.8055,0.0,0.0,-3.8502,-3.9511,-3.9921,-3.942,-3.8681,-3.7612,-3.6109,-3.4659,0.0,-3.2659,0.0,0.0,0.0,0.0,-3.0075,-2.9804,-2.9547,-2.9358,-2.9102,-2.7957,0.0,0.0,-2.7396,-2.7147,-2.7328,-2.7455,-2.7315,-2.6995,-2.6729,-2.6583,-2.6298,-2.5798,-2.6208,-2.6682,-2.6237,-2.7238,-2.842,-2.8282,-2.8937,-2.9868,-3.0544,-3.0701,-3.1206,-3.2946,-3.3297,-3.3367,0.0,0.0,0.0,0.0,0.0,0.0,-3.1366,-2.96,-2.8233,-2.7986,0.0,0.0,0.0,-2.6674,0.0,0.0,-2.5408,-2.511,-2.4633,0.0,0.0,0.0,0.0,0.0,-2.8967,-2.9476,-2.9361,-2.8725,-2.9885,-2.9921,-2.8664,-2.9866,-3.0114,-2.9611,-2.9094,-2.8426,-2.7775,-2.729,-2.6425,-2.5367,-2.4664,-2.4104,-2.3776,-2.3143,-2.3475,-2.4299,-2.4647,-2.5409,-2.634,-2.704,-2.8099,0.0,0.0,0.0,0.0,0.0,-3.3952,0.0,-3.6815,0.0,-3.8937,-3.8937,-3.8833,-3.8605,-3.8222,0.0,-3.7013,-3.6513,-3.7949,-3.8786,-3.8828,-3.931,-3.9599,-3.9625,-3.8316,-3.704,-3.5921,-3.4634,0.0,0.0,0.0,0.0,0.0,0.0,0.0,0.0,-2.9096,-2.9166,-2.9521,-2.7755,-2.7241,-2.7521,-2.6365,-2.5675,-2.531,-2.4765,-2.4726,-2.4725,-2.4532,-2.4043,-2.3657,-2.4026,-2.4273,-2.4404,-2.4438,-2.5751,-2.7064,-2.6669,-2.8209,-3.0015,-3.0215,-3.0696,-3.1307,-3.2155,-3.269,-3.3101,-3.3325,-3.3811,-3.4288,0.0,0.0,0.0,0.0,0.0,0.0,0.0,0.0,0.0,0.0,0.0,0.0,0.0,0.0,0.0,0.0,0.0,0.0,0.0,0.0,0.0,-2.8092,-2.9078,0.0,-2.7756,0.0,-2.9704,-2.8262,-2.9315,-2.9611,-2.9172,-2.8426,-2.7695,-2.7128,-2.6295,-2.5568,-2.4919,-2.3819,-2.3276,-2.3136,-2.2143,-2.2412,-2.3301,-2.4016,-2.5194,-2.6533,-2.7253,0.0,0.0,0.0,0.0,-3.2673,-3.361,-3.5098,-3.6547,-3.7819,-3.8802,-3.9423,-3.9423,-3.875,-3.8274,-3.8191,-3.6465,0.0,0.0,0.0,0.0,-3.8779,-3.9297,-3.9574,-3.9625,-3.7224,-3.5682,0.0,0.0,0.0,0.0,0.0,0.0,0.0,0.0,0.0,-2.9378,-2.7987,0.0,-2.7861,-2.6769,-2.6197,-2.597,-2.6146,-2.5275,-2.3977,-2.3362,-2.2848,-2.2523,-2.2523,-2.2522,-2.2574,-2.2648,-2.3461,-2.4529,-2.4865,-2.5802,-2.6658,-2.7024,-2.7894,-2.9004,-3.0037,-3.0393,-3.0908,-3.2648,-3.2704,-3.2646,-3.352,-3.3604,-3.3393,-3.3235,0.0,0.0,0.0,0.0,0.0,0.0,0.0,0.0,0.0,0.0,-2.625,0.0,0.0,0.0,0.0,0.0,0.0,0.0,0.0,0.0,0.0,0.0,0.0,0.0,0.0,-2.8961,-2.8926,-2.9537,-2.9209,-2.8051,-2.7879,-2.6871,-2.5294,-2.4893,-2.4276,-2.3411,-2.2899,-2.2639,-2.2595,-2.1989,-2.2868,-2.4528,-2.4751,-2.5529,-2.6533,-2.7897,0.0,0.0,0.0,0.0,0.0,0.0,-3.5081,0.0,-3.6554,-3.7094,-3.7278,-3.6901,-3.6838,-3.6763,-3.6269,-3.5102,-3.4411,-3.4654,-3.5201,-3.5825,-3.6567,-3.7206,-3.7493,-3.7538,-3.5437,-3.423,-3.4045,0.0,-3.0626,-3.1095,0.0,0.0,-3.0075,0.0,-2.9761,0.0,0.0,0.0,-2.7648,-2.6212,-2.5564,-2.5371,-2.5331,-2.4725,-2.3842,-2.2759,-2.2119,-2.1863,-2.1863,-2.1903,-2.2069,-2.2528,-2.3217,-2.389,-2.462,-2.5412,-2.6293,-2.6996,-2.7846,-2.8736,-2.9639,-2.9796,-3.0258,-3.1788,-3.1724,-3.1705,-3.3199,-3.2887,-3.2266,-3.217,-3.1744,0.0,0.0,0.0,0.0,0.0,0.0,-2.5717,0.0,0.0,0.0,0.0,0.0,0.0,0.0,0.0,0.0,0.0,0.0,0.0,0.0,0.0,0.0,0.0,0.0,0.0,-2.7637,-2.841,-2.8197,-2.7292,-2.678,-2.6065,-2.5249,-2.4517,-2.3909,-2.3408,-2.2624,-2.2172,-2.197,-2.1609,-2.2548,-2.4181,-2.434,-2.5385,-2.6847,0.0,-2.8491,0.0,0.0,-3.0897,0.0,-3.3162,-3.415,-3.5072,-3.5389,-3.5554,-3.5321,-3.4624,-3.5068,-3.5173,-3.4467,-3.3719,-3.3175,-3.2819,-3.3601,-3.4259,-3.4363,-3.5017,-3.5324,-3.5266,-3.3648,-3.2783,0.0,0.0,0.0,0.0,0.0,0.0,0.0,0.0,0.0,0.0,0.0,-2.7361,-2.7643,-2.5834,-2.5037,-2.4917,-2.4556,-2.4098,-2.3514,-2.234,-2.1686,-2.1418,-2.1606,-2.1695,-2.1872,-2.2755,-2.3212,-2.3647,-2.4744,-2.5579,-2.6329,-2.7255,-2.8007,-2.8633,-2.9127,-2.9214,-2.95,-3.065,-3.0548,-3.0732,-3.2555,-3.2139,-3.146,-3.1676,-3.1574,0.0,0.0,0.0,0.0,0.0,0.0,0.0,0.0,0.0,0.0,-2.5121,0.0,0.0,0.0,0.0,0.0,0.0,0.0,0.0,0.0,0.0,-2.7257,-2.6267,0.0,-2.8026,0.0,-2.7334,-2.7293,-2.6531,-2.5834,-2.5502,-2.5472,-2.4425,-2.3867,-2.3701,-2.267,-2.2053,-2.1769,-2.1625,-2.2368,-2.3694,-2.4175,-2.5516,-2.7155,0.0,0.0,0.0,0.0,0.0,0.0,0.0,-3.234,-3.4211,-3.6153,-3.6093,-3.5669,-3.5234,-3.4861,-3.4457,-3.388,-3.2475,-3.1842,-3.2319,-3.2385,-3.2825,-3.3604,-3.4383,-3.4669,-3.4213,-3.2491,-3.1015,0.0,0.0,-2.7996,0.0,0.0,0.0,0.0,0.0,0.0,0.0,-2.7211,-2.6755,-2.6854,-2.5439,-2.4665,-2.4307,-2.4267,-2.3268,-2.1928,-2.1802,-2.1141,-2.0503,-2.1418,-2.1695,-2.1863,-2.2698,-2.3587,-2.4744,-2.6423,-2.701,-2.7255,-2.8179,-2.8431,-2.8548,-2.8657,-2.8636,-2.8862,-2.9594,-2.9693,-3.006,-3.1316,-3.1518,-3.1647,-3.226,-3.0488,-2.9002,0.0,0.0,0.0,0.0,0.0,-2.6062,-2.584,0.0,0.0,0.0,-2.4008,0.0,0.0,0.0,0.0,0.0,0.0,0.0,-2.5597,0.0,-2.6733,-2.7151,-2.7092,0.0,-2.7752,-2.7734,-2.703,-2.5872,-2.5962,-2.5451,-2.4506,-2.4375,-2.4141,-2.3721,-2.2822,-2.2601,-2.2735,-2.259,-2.3229,-2.4329,-2.5652,-2.654,-2.7326,0.0,0.0,0.0,0.0,0.0,0.0,0.0,-3.0488,-3.1797,-3.3621,-3.4147,-3.4027,-3.3486,-3.3162,-3.2823,-3.2403,-3.1309,-3.0823,-3.1291,-3.1238,-3.1402,-3.1785,-3.2311,-3.2255,-3.1662,-3.0701,-2.9877,0.0,0.0,0.0,0.0,0.0,0.0,0.0,0.0,-2.8906,-2.9036,-2.7518,-2.6641,-2.6147,-2.5051,-2.4165,-2.3585,-2.3585,-2.3115,-2.2511,-2.1872,-2.2208,-2.2717,-2.2532,-2.2444,-2.262,-2.3587,-2.4553,-2.5495,-2.6846,-2.7185,-2.7348,-2.8259,-2.851,-2.8457,-2.8147,-2.8074,-2.8139,-2.8426,-2.8699,-2.9215,-3.0648,-3.1218,-3.1361,-3.0862,-2.9772,-2.8837,0.0,0.0,0.0,0.0,0.0,0.0,-2.5241,0.0,-2.4494,0.0,0.0,0.0,0.0,0.0,0.0,0.0,0.0,0.0,-2.4436,0.0,-2.5666,-2.596,-2.633,-2.6428,-2.6249,-2.6424,-2.6155,-2.5355,-2.5438,-2.5123,-2.4414,-2.4414,-2.418,-2.3791,-2.3088,-2.295,-2.3023,-2.2942,-2.3567,-2.4739,-2.5419,-2.6596,-2.7978,-2.3826,0.0,-2.4079,0.0,-2.5124,-2.6012,-2.7645,-2.8332,-2.9256,-3.0531,-3.1405,-3.2017,-3.1992,-3.1938,-3.1702,-3.1338,-3.0635,-3.0319,-3.068,-3.0489,-3.0356,-3.0591,-3.0756,0.0,-2.9832,-2.9447,-2.8967,-2.8332,-2.6907,0.0,0.0,0.0,0.0,0.0,-2.8623,-2.8947,-2.9186,-2.7813,-2.6846,-2.6163,-2.5242,-2.4488,-2.3897,-2.3897,-2.3897,-2.38,-2.3173,-2.378,-2.4734,-2.4084,-2.3978,-2.433,-2.5062,-2.5565,-2.6233,-2.7302,-2.7487,-2.7485,-2.8143,-2.8351,-2.8116,-2.7347,-2.7188,-2.7262,-2.7151,-2.7455,-2.812,-2.9537,-3.0262,-3.0327,-2.9449,-2.9012,-2.852,-2.7615,0.0,0.0,0.0,0.0,0.0,-2.4564,-2.4348,-2.394,-2.3307,-2.2914,0.0,0.0,0.0,0.0,0.0,0.0,0.0,0.0,0.0,0.0,0.0,-2.5594,-2.5769,-2.5273,-2.5586,-2.5363,-2.4852,-2.4852,-2.4726,-2.46,-2.4473,-2.418,-2.3781,-2.3307,-2.3082,-2.314,-2.3253,-2.3886,-2.4756,-2.5452,-2.6653,-2.8123,-2.1619,-2.1672,-2.1766,-2.2062,-2.3135,-2.4186,-2.4439,-2.5625,-2.6624,-2.7021,-2.8224,-2.958,-3.1356,-3.1523,-3.1348,-3.0937,-3.0469,-3.0309,-3.0557,-3.0078,-2.9924,0.0,0.0,-3.0078,-2.9321,-2.9136,-2.8216,-2.6671,0.0,0.0,-2.583,0.0,-2.7988,-2.8291,-2.8486,-2.8799,-2.9186,-2.7813,-2.7174,-2.7092,-2.6163,-2.5746,-2.5735,-2.5735,-2.5735,-2.5735,-2.5735,-2.5735,-2.5819,-2.5735,-2.6412,-2.7174,-2.7174,-2.6841,-2.6701,-2.8104,-2.8138,-2.7693,-2.7912,-2.7893,-2.7566,-2.6058,-2.6012,-2.6174,-2.5754,-2.607,-2.6756,-2.7815,-2.8325,-2.8519,-2.8492,-2.7934,-2.7497,-2.7484,0.0,0.0,0.0,0.0,0.0,-2.4108,-2.3486,-2.2805,-2.2324,0.0,0.0,0.0,0.0,0.0,0.0,0.0,0.0,-2.3153,-2.4361,0.0,-2.4404,-2.4844,-2.5293,-2.5732,-2.5742,-2.5118,-2.4088,-2.4088,-2.4463,-2.5039,-2.4609,-2.418,-2.3781,-2.3307,-2.3082,-2.314,-2.3843,-2.412,-2.4319,-2.6217,-2.6986,-2.7506,-2.0935,-2.1116,-2.1276,-2.137,-2.1685,-2.249,-2.3731,-2.4502,-2.5277,-2.6495,-2.7237,-2.7779,-2.8393,-2.9993,-3.1035,0.0,-3.0459,-3.0078,0.0,-2.9699,-2.9459,-2.947,-2.9741,-2.9662,-2.9321,-2.8946,-2.8188,-2.7044,0.0,0.0,0.0,-2.6008,-2.6846,-2.72,-2.8057,-2.8799,-2.9268,-2.8405,-2.7765,-2.7185,-2.6846,-2.6329,-2.5819,-2.5819,-2.5819,-2.5819,-2.5819,-2.5997,-2.6268,-2.6268,-2.6467,-2.6691,-2.6691,-2.6974,-2.7423,-2.8275,-2.7968,-2.7356,-2.782,-2.7708,-2.7198,-2.637,-2.6511,-2.6629,-2.5728,-2.6177,-2.7056,-2.8103,-2.8051,-2.7802,-2.7802,-2.7297,-2.6633,-2.6057,-2.5581,0.0,0.0,0.0,0.0,-2.3412,-2.3139,-2.2713,0.0,-2.1573,0.0,0.0,0.0,0.0,0.0,0.0,0.0,0.0,-2.2824,0.0,-2.3271,-2.3372,-2.3368,-2.3502,-2.3502,-2.3701,-2.4079,-2.3813,-2.4059,-2.46,-2.417,-2.4098,-2.4319,-2.4397,-2.4729,-2.5395,-2.5832,-2.6249,-2.6605,-2.7268,-2.7835,-2.8484,-2.0675,-2.0909,-2.1109,-2.1109,-2.1109,-2.1481,-2.2716,-2.3084,-2.3698,-2.4909,-2.5782,-2.6286,-2.6286,-2.8446,0.0,-3.0138,-3.0219,-3.0078,-2.9824,-2.9609,-2.9371,-2.9393,-2.954,-2.9558,-2.9311,0.0,0.0,-2.7262,-2.6249,-2.5237,-2.4157,-2.5527,-2.6282,-2.6614,-2.7759,-2.8492,-2.9023,-2.8488,-2.795,-2.7441,-2.7441,-2.7103,-2.6599,-2.6753,-2.6753,-2.6599,-2.6599,-2.6682,-2.6741,-2.656,-2.6473,-2.6427,-2.6311,-2.6438,-2.6813,-2.7522,-2.7328,-2.6951,-2.7313,-2.7196,-2.6814,-2.6084,-2.6439,-2.671,-2.6063,-2.6414,-2.6998,-2.7643,-2.7417,-2.7095,-2.7095,-2.6782,-2.6245,-2.5453,-2.5087,-2.4576,-2.3768,0.0,0.0,0.0,0.0,0.0,0.0,-2.1359,0.0,0.0,0.0,0.0,0.0,0.0,0.0,-2.1885,-2.2129,0.0,-2.2793,-2.246,-2.2347,-2.2484,-2.2089,-2.2685,-2.4079,-2.3286,-2.3472,-2.4394,-2.4316,-2.422,-2.4303,-2.5158,-2.5745,-2.6117,-2.6676,-2.714,-2.744,-2.7657,-2.7999,-2.8458,-2.0648,-2.0895,0.0,0.0,-2.1109,0.0,-2.1481,-2.1859,-2.223,-2.2459,-2.3931,-2.4901,-2.4885,-2.6729,-2.8201,-2.8683,0.0,0.0,0.0,-2.9606,-2.947,-2.9705,-2.9632,-2.9403,-2.927,-2.8804,-2.8121,-2.721,-2.6054,-2.527,-2.4802,-2.5673,-2.6253,-2.671,-2.7487,-2.8088,-2.8551,-2.8128,-2.7881,-2.7881,-2.7893,-2.7893,-2.7973,-2.8351,-2.8203,-2.7893,-2.7881,-2.751,-2.7059,-2.6611,-2.6416,-2.6199,-2.5796,-2.5325,-2.5142,-2.6163,-2.6427,-2.6337,-2.6464,-2.6445,-2.6251,-2.5409,-2.58,-2.6442,-2.6651,-2.6685,-2.6584,-2.6496,-2.6533,-2.6533,-2.6533,-2.6533,-2.6245,-2.5382,-2.4564,-2.3829,-2.3001,0.0,0.0,0.0,0.0,0.0,0.0,-2.1359,-2.1148,0.0,0.0,0.0,0.0,0.0,-2.2279,-2.186,-2.2069,-2.2317,-2.2604,-2.2047,-2.1943,-2.2291,-2.1261,-2.1845,-2.3934,-2.2432,-2.2817,-2.4438,-2.4873,-2.4633,-2.4033,-2.5742,-2.6209,-2.5862,-2.6728,-2.7043,-2.7103,-2.7596,-2.7777,-2.7849,0.0,0.0,-2.1109,-2.1109,-2.1109,-2.1109,-2.1235,-2.1481,-2.1776,-2.1782,-2.2364,-2.2889,-2.2901,-2.4198,-2.5453,-2.6472,-2.8492,-2.958,-2.9248,-2.9033,-2.8849,-2.8495,-2.8689,-2.8634,-2.8471,-2.8219,-2.7548,-2.6474,-2.5635,-2.5087,-2.4802,-2.5502,-2.6346,-2.7136,-2.7588,-2.8073,-2.8584,-2.807,-2.7708,-2.736,-2.78,-2.7893,-2.7893,-2.8042,-2.7962,-2.7881,-2.7522,-2.6852,-2.6095,-2.5983,-2.5217,-2.436,-2.4238,-2.4128,-2.4304,-2.6006,-2.5938,-2.5487,-2.6293,-2.629,-2.603,-2.5753,-2.5719,-2.5923,-2.6566,-2.639,-2.6198,-2.6421,-2.6533,-2.6533,-2.6533,-2.6533,-2.6025,-2.4636,-2.4192,-2.361,-2.2241,-2.1959,0.0,0.0,-2.1807,-2.1731,-2.1512,-2.1359,-2.1268,0.0,0.0,0.0,0.0,-2.1826,-2.1733,-2.1332,-2.1387,-2.1181,-2.0514,-2.0163,-2.0002,-2.0078,-1.952,-2.0387,-2.2441,-2.1371,-2.24,-2.4941,-2.4763,-2.5285,-2.6419,-2.6839,-2.7347,-2.781,-2.8059,-2.8138,-2.8162,-2.827,-2.8318,-2.8342,-2.0007,-2.0508,-2.0955,-2.1089,-2.1002,-2.0909,-2.0909,-2.1044,-2.1259,-2.146,-2.1675,-2.1989,-2.2198,-2.3052,-2.3884,-2.4563,-2.6825,-2.832,-2.8643,-2.8271,-2.7937,-2.7776,-2.7961,-2.7955,-2.7901,-2.7852,-2.7293,-2.6334,-2.5997,-2.5595,-2.5218,-2.5575,-2.6032,-2.6557,-2.6879,-2.7261,-2.7644,-2.7245,-2.699,-2.694,-2.7115,-2.7115,-2.6857,-2.736,-2.7278,-2.6741,-2.6597,-2.6094,-2.5491,-2.5036,-2.4304,-2.3689,-2.3471,-2.3394,-2.3667,-2.5127,-2.5373,-2.5245,-2.6008,-2.5801,-2.5495,-2.559,-2.5616,-2.573,-2.6518,-2.6488,-2.6276,-2.6446,-2.6533,-2.6533,-2.6533,-2.6533,-2.5943,-2.4325,-2.4108,-2.3537,-2.2025,-2.1807,0.0,-2.1807,-2.1907,-2.1886,-2.1653,-2.1688,-2.15,-2.0995,0.0,0.0,-2.0863,-2.0828,-2.098,-2.1117,-2.0617,-2.0158,-1.9844,-1.9453,-1.9406,-1.9747,-1.9565,-2.0472,-2.2329,-2.1643,-2.2719,-2.513,-2.5114,-2.5793,-2.6852,-2.7498,-2.7956,-2.8174,-2.8414,-2.851,-2.851,-2.851,-2.851,-2.851,-1.9733,-2.0201,-2.0635,-2.0929,-2.0775,-2.0608,-2.0608,-2.0639,-2.0691,-2.1124,-2.1314,-2.1637,-2.1964,-2.2314,-2.2599,-2.2823,-2.464,-2.6387,-2.7767,-2.7308,-2.7074,-2.7199,-2.73,-2.7392,-2.7452,-2.7539,-2.7258,-2.6592,-2.6592,-2.6314,-2.5732,-2.5732,-2.583,-2.5897,-2.5923,-2.6125,-2.6462,-2.5998,-2.5968,-2.6102,-2.6185,-2.5924,-2.5568,-2.6588,-2.6295,-2.5416,-2.5599,-2.5297,-2.4745,-2.3928,-2.3678,-2.3547,-2.3132,-2.3001,-2.3101,-2.3948,-2.448,-2.4903,-2.5467,-2.5135,-2.4619,-2.493,-2.504,-2.5363,-2.6202,-2.6443,-2.6535,-2.6483,-2.6533,-2.6533,-2.6521,-2.6533,-2.6013,-2.4552,-2.4192,-2.361,-2.2176,0.0,-2.1828,-2.1824,-2.2009,-2.2028,-2.187,-2.2068,-2.1719,-2.0492,-2.0621,-2.0394,0.0,-1.9619,-1.9923,-2.0676,-1.9861,-1.947,-1.963,-1.9328,-1.9535,-2.0182,-2.0134,-2.1012,-2.2692,-2.2474,-2.3364,-2.5211,-2.5752,-2.6225,-2.6711,-2.7882,-2.8126,-2.7765,-2.8222,-2.8438,-2.851,-2.851,-2.851,-2.851,-1.9693,-1.9873,-2.0027,-2.0314,-2.0334,-2.0301,-2.0301,-2.0261,-2.0382,-2.0712,-2.0571,-2.0543,-2.0863,-2.0722,-2.1027,-2.2092,-2.2135,-2.325,-2.57,-2.6557,-2.6855,-2.6594,-2.6963,-2.7039,-2.6703,-2.7078,-2.7143,-2.6805,-2.6805,-2.6592,-2.6004,-2.6004,-2.637,-2.6873,-2.5941,-2.5815,-2.6251,-2.5215,-2.455,-2.4221,-2.4659,-2.5084,-2.5495,-2.5746,-2.5413,-2.4984,-2.5185,-2.4389,-2.3197,-2.3612,-2.346,-2.3099,-2.3023,-2.2852,-2.2724,-2.2574,-2.2694,-2.3171,-2.4206,-2.3743,-2.292,-2.2929,-2.3587,-2.429,-2.4676,-2.5432,-2.6079,-2.6408,-2.6533,-2.6521,-2.6658,-2.6589,-2.6233,-2.5487,-2.4612,-2.3829,-2.2916,0.0,-2.1865,-2.2012,-2.2046,-2.208,-2.2148,-2.2165,-2.1742,-2.0694,-2.0679,-2.0325,-1.9579,-1.874,-1.848,-1.8808,-1.9399,-1.945,-1.9004,-1.8912,-1.9197,-1.9826,-1.9622,-2.0481,-2.229,-2.2729,-2.3927,-2.576,-2.6622,-2.714,-2.7484,-2.7723,-2.7801,-2.7729,-2.7813,-2.8114,-2.851,-2.851,-2.851,-2.851,-1.9011,-1.9219,-1.9472,-1.992,-1.974,-1.9579,-1.974,-1.9499,-1.9476,-1.989,-1.9864,-1.9948,-2.0368,-2.0172,-2.019,-2.0819,-2.1024,-2.1713,-2.2903,-2.4555,-2.5705,-2.6222,-2.6408,-2.66,-2.6699,-2.7071,-2.7177,-2.69,-2.69,-2.6602,-2.61,-2.61,-2.6058,-2.5979,-2.5204,-2.4953,-2.5025,-2.4255,-2.3717,-2.3533,-2.3703,-2.3645,-2.3421,-2.3836,-2.3629,-2.3166,-2.3737,-2.3219,-2.2418,-2.3112,-2.2961,-2.2553,-2.2553,-2.2306,-2.1925,-2.1756,-2.1889,-2.2264,-2.2952,-2.2577,-2.1987,-2.2281,-2.2604,-2.3067,-2.4307,-2.4933,-2.5523,-2.6314,-2.6533,-2.6521,-2.6589,-2.6521,-2.6245,-2.5581,-2.4707,0.0,0.0,-2.2387,-2.2009,-2.2056,-2.2352,-2.2479,-2.2532,-2.2506,-2.2102,-2.1128,-2.0323,-1.9504,-1.8788,-1.7684,-1.7232,-1.7613,-1.8361,-1.8867,-1.9116,-1.9116,-1.9623,-2.071,-2.034,-2.1236,-2.3183,-2.2932,-2.4221,-2.6554,-2.6359,-2.6878,-2.7705,-2.7416,-2.7296,-2.7296,-2.7296,-2.7621,-2.8089,-2.8089,-2.827,-2.8474,-1.8417,-1.8617,-1.8885,-1.9406,-1.9118,-1.8898,-1.9132,-1.8778,-1.8705,-1.9353,-1.929,-1.9467,-2.0019,-1.9842,-1.9652,-1.9652,-2.0231,-2.0577,-2.0885,-2.2484,-2.4088,-2.5596,-2.5994,-2.635,-2.6832,-2.7012,-2.696,-2.6679,-2.6584,-2.6395,-2.5899,-2.5902,-2.5523,-2.4818,-2.4259,-2.3894,-2.3623,-2.2974,-2.2679,-2.2577,-2.2577,-2.2212,-2.169,-2.2175,-2.1952,-2.1568,-2.2336,-2.2152,-2.1628,-2.2357,-2.2241,-2.1863,-2.1776,-2.1451,-2.1041,-2.0661,-2.0632,-2.0872,-2.1419,-2.1184,-2.0941,-2.1438,-2.158,-2.2072,-2.3886,-2.4337,-2.485,-2.6233,-2.6383,-2.6314,-2.6533,-2.6634,-2.6464,-2.5758,0.0,0.0,0.0,-2.2555,-2.2127,-2.2149,-2.2529,-2.2794,-2.2817,-2.2785,-2.2344,-2.1239,-1.9869,-1.878,-1.7986,-1.6777,-1.6407,-1.716,-1.7743,-1.8371,-1.9028,-1.9325,-1.996,-2.1075,-2.0783,-2.1683,-2.3468,-2.3041,-2.4296,-2.6712,-2.6029,-2.6403,-2.75,-2.6721,-2.6581,-2.6668,-2.6506,-2.6904,-2.756,-2.7669,-2.7897,-2.8023,-1.8377,-1.829,-1.821,-1.8531,-1.8551,-1.8531,-1.8551,-1.8517,-1.8705,-1.9353,-1.9101,-1.9141,-1.9798,-1.9506,-1.9316,-1.9316,-1.939,-1.9879,-2.0783,-2.1089,-2.2089,-2.4187,-2.5693,-2.6496,-2.663,-2.662,-2.6413,-2.5978,-2.5828,-2.5564,-2.5289,-2.5505,-2.508,-2.4175,-2.3515,-2.2825,-2.2176,-2.1142,-2.0697,-2.0726,-2.0726,-2.1043,-2.1607,-2.169,-2.1428,-2.115,-2.1759,-2.1253,-2.044,-2.1098,-2.1318,-2.1165,-2.074,-2.0508,-2.0041,-1.8886,-1.8085,-1.7935,-1.9182,-1.9172,-1.8968,-1.9402,-2.0362,-2.1461,-2.2744,-2.3345,-2.4108,-2.6094,-2.5886,-2.5664,-2.6508,-2.7006,-2.7125,-2.6665,0.0,0.0,-2.3813,-2.2764,-2.208,-2.2187,-2.2562,-2.2837,-2.2804,-2.2784,-2.2246,-2.0773,-1.9679,-1.8596,-1.7419,-1.6393,-1.6393,-1.7598,-1.8392,-1.8525,-1.8039,-1.8976,-1.9544,-1.9942,-1.9915,-2.0492,-2.1768,-2.2935,-2.4126,-2.5418,-2.6075,-2.6609,-2.6872,-2.5616,-2.5468,-2.608,-2.5308,-2.5796,-2.7055,-2.7536,-2.744,-2.6964,-1.7849,-1.7836,-1.7856,-1.8163,-1.8056,-1.7989,-1.8183,-1.805,-1.8037,-1.8466,-1.8575,-1.871,-1.9153,-1.9248,-1.9279,-1.9279,-1.9279,-1.9391,-1.9585,-1.957,-2.0961,-2.3828,-2.5049,-2.5694,-2.5706,-2.5706,-2.5615,-2.5442,-2.5371,-2.5178,-2.4995,-2.4888,-2.4453,-2.364,-2.2867,-2.2185,-2.1668,-2.0845,-2.0383,-2.0154,-2.0154,-2.0162,-2.0164,-2.0164,-2.0071,-2.0,-2.0634,-2.0301,-1.9766,-2.0857,-2.0769,-2.0148,-1.9982,-1.9492,-1.8771,-1.7674,-1.7147,-1.7103,-1.7927,-1.8396,-1.8792,-1.9354,-1.9963,-2.0682,-2.1866,-2.2478,-2.3231,-2.4552,-2.5075,-2.5382,-2.5804,-2.6338,-2.6552,-2.5758,0.0,-2.3971,-2.3043,-2.2237,-2.176,-2.1769,-2.2173,-2.2407,-2.2399,-2.2387,-2.2064,-2.1249,-2.0076,-1.9181,-1.8435,-1.7617,-1.7348,-1.7609,-1.8629,-1.9198,-1.9199,-1.9331,-1.98,-2.0612,-2.0123,-2.0717,-2.2335,-2.211,-2.3067,-2.4995,-2.4482,-2.4723,-2.5292,-2.4153,-2.3891,-2.4113,-2.3817,-2.4494,-2.5651,-2.5861,-2.6328,-2.6761,-1.7522,-1.7582,-1.7649,-1.7862,-1.7722,-1.7655,-1.7869,-1.7716,-1.7694,-1.7911,-1.822,-1.8534,-1.8869,-1.9175,-1.9279,-1.9279,-1.9279,-1.9184,-1.8957,-1.9048,-2.0202,-2.2627,-2.4002,-2.4447,-2.4117,-2.4685,-2.4806,-2.4295,-2.4576,-2.4486,-2.4295,-2.417,-2.3731,-2.2938,-2.2255,-2.1658,-2.1144,-2.0449,-1.998,-1.9732,-1.9732,-1.9558,-1.9301,-1.9301,-1.9301,-1.9381,-1.9775,-1.9539,-1.9231,-2.0079,-1.9844,-1.9054,-1.8975,-1.8399,-1.7674,-1.6886,-1.673,-1.6738,-1.7066,-1.7811,-1.8581,-1.9154,-1.95,-2.0082,-2.14,-2.1793,-2.219,-2.3649,-2.4276,-2.4659,-2.4862,-2.5657,-2.6,-2.5111,-2.4403,-2.3557,-2.266,-2.1849,-2.1301,-2.1221,-2.1617,-2.1891,-2.1807,-2.172,-2.1584,-2.1209,-2.0139,-1.9245,-1.8637,-1.8189,-1.7929,-1.8094,-1.8752,-1.9392,-2.0148,-1.9874,-2.0068,-2.0732,-2.0191,-2.0538,-2.1807,-2.1154,-2.2007,-2.3956,-2.3152,-2.3242,-2.4104,-2.3059,-2.2809,-2.2957,-2.2734,-2.3293,-2.4351,-2.4498,-2.5004,-2.5552,-1.7312,-1.7582,-1.7582,-1.7582,-1.7582,-1.7582,-1.7582,-1.7582,-1.7687,-1.7911,-1.8213,-1.8534,-1.8869,-1.9175,-1.9279,-1.9279,-1.9279,-1.9272,-1.9264,-1.9645,-1.9925,-2.0297,-2.2303,-2.2778,-2.1621,-2.348,-2.3742,-2.2394,-2.3135,-2.3329,-2.3057,-2.3306,-2.2929,-2.2078,-2.1649,-2.1154,-2.0466,-1.9659,-1.9311,-1.9301,-1.9301,-1.9301,-1.9301,-1.9301,-1.9301,-1.9301,-1.9301,-1.9002,-1.87,-1.87,-1.8371,-1.7959,-1.7554,-1.7066,-1.673,-1.673,-1.673,-1.673,-1.673,-1.7302,-1.8112,-1.8612,-1.9026,-1.9735,-2.1329,-2.1135,-2.1259,-2.3582,-2.3486,-2.3213,-2.3975,-2.5046,-2.5611,-2.5088,-2.4482,-2.3796,-2.299,-2.1751,-2.0799,-2.0647,-2.0926,-2.1099,-2.0941,-2.0857,-2.0773,-2.0512,-1.9657,-1.8707,-1.7644,-1.7644,-1.8086,-1.9059,-1.8675,-1.9077,-2.0512,-2.0512,-2.0319,-1.9943,-1.9934,-1.9804,-1.9594,-2.0074,-2.0951,-2.2183,-2.2104,-2.272,-2.3602,-2.2313,-2.2285,-2.2883,-2.2134,-2.2285,-2.3086,-2.3536,-2.3415,-2.2948,-1.6094,-1.6399,-1.6611,-1.7477,-1.7582,-1.7515,-1.7308,-1.7281,-1.7385,-1.7385,-1.7798,-1.8191,-1.8513,-1.8959,-1.9175,-1.9078,-1.9175,-1.9081,-1.8621,-1.8268,-1.8078,-1.8172,-2.0105,-2.0972,-2.0668,-2.122,-2.1167,-2.061,-2.1516,-2.1872,-2.1686,-2.2199,-2.2387,-2.2078,-2.1475,-2.113,-2.0897,-2.0374,-1.9998,-1.9661,-1.9417,-1.9165,-1.8851,-1.8514,-1.8353,-1.8353,-1.8353,-1.8273,-1.8201,-1.8201,-1.7959,-1.7473,-1.7066,-1.6812,-1.673,-1.673,-1.673,-1.673,-1.673,-1.7105,-1.7689,-1.8132,-1.8991,-1.9868,-2.0362,-2.0777,-2.1197,-2.1907,-2.2542,-2.299,-2.3106,-2.3796,-2.3988,-2.2872,-2.252,-2.2043,-2.0934,-2.042,-2.021,-2.0131,-2.0329,-2.0501,-2.0419,-2.0523,-2.0485,-2.0127,-1.958,-1.9092,-1.883,-1.883,-1.8921,-1.9255,-1.9416,-1.9642,-2.0108,-2.0108,-2.0328,-2.075,-2.0475,-2.0429,-2.0642,-2.0365,-2.0718,-2.1438,-2.1006,-2.1233,-2.1878,-2.1201,-2.1088,-2.1318,-2.1011,-2.1461,-2.2155,-2.2282,-2.2617,-2.2905,-1.4761,-1.5094,-1.5368,-1.6644,-1.6358,-1.6264,-1.7052,-1.6741,-1.6606,-1.7244,-1.777,-1.8189,-1.8506,-1.9063,-1.9279,-1.9071,-1.8955,-1.8709,-1.8152,-1.7551,-1.7188,-1.7153,-1.8234,-1.8872,-1.8972,-1.9596,-1.9687,-1.9147,-2.0512,-2.1051,-2.0863,-2.1722,-2.2008,-2.19,-2.1379,-2.093,-2.0594,-2.0205,-1.9723,-1.9119,-1.8865,-1.8652,-1.8371,-1.8121,-1.804,-1.804,-1.804,-1.7878,-1.7797,-1.7797,-1.7473,-1.7066,-1.6812,-1.673,-1.673,-1.673,-1.6635,-1.6524,-1.6524,-1.6817,-1.7329,-1.7794,-1.871,-1.9534,-2.0022,-2.0517,-2.0907,-2.1175,-2.1876,-2.2463,-2.2187,-2.2724,-2.3004,-2.2241,-2.1669,-2.1135,-2.0692,-2.0079,-1.9627,-1.9469,-1.9531,-1.9606,-1.9606,-1.9743,-1.9779,-1.9705,-1.9439,-1.9301,-1.9301,-1.9301,-1.9301,-1.9301,-1.9549,-1.976,-1.9934,-1.9934,-2.0173,-2.064,-2.0402,-2.0319,-2.0374,-1.997,-2.013,-2.0589,-2.0169,-2.0261,-2.0709,-2.0527,-2.0489,-2.0489,-2.0566,-2.0867,-2.1318,-2.1318,-2.1614,-2.1983,-1.3471,-1.3588,-1.3918,-1.519,-1.4407,-1.4322,-1.651,-1.5815,-1.5555,-1.7183,-1.7626,-1.8058,-1.8826,-1.9049,-1.9235,-1.9235,-1.8709,-1.816,-1.7756,-1.7312,-1.7081,-1.6994,-1.669,-1.669,-1.6885,-1.8419,-1.8764,-1.7855,-1.977,-2.0576,-2.0271,-2.1338,-2.1695,-2.1435,-2.1089,-2.0544,-1.9809,-1.9463,-1.8845,-1.8083,-1.8002,-1.7985,-1.7959,-1.7878,-1.787,-1.787,-1.787,-1.7635,-1.731,-1.731,-1.7066,-1.673,-1.673,-1.673,-1.673,-1.673,-1.6484,-1.6206,-1.6206,-1.655,-1.7037,-1.7742,-1.8309,-1.9058,-2.0294,-2.0407,-2.0476,-2.1088,-2.1499,-2.1649,-2.1258,-2.1791,-2.2283,-2.2391,-2.1461,-2.0914,-2.1431,-2.0216,-1.9152,-1.878,-1.87,-1.87,-1.862,-1.87,-1.8851,-1.9301,-1.9301,-1.9301,-1.9301,-1.9301,-1.9301,-1.9301,-1.9366,-1.9558,-1.987,-1.9943,-1.998,-1.998,-1.998,-1.9778,-1.9412,-1.9375,-1.9445,-1.9613,-1.9585,-1.9715,-1.9942,-2.0186,-2.0264,-2.0264,-2.0489,-2.0566,-2.0566,-2.0566,-2.0566,-2.0566,-1.2024,-1.2343,-1.2633,-1.381,-1.3777,-1.3694,-1.4065,-1.3796,-1.4159,-1.5543,-1.598,-1.6777,-1.8366,-1.8419,-1.838,-1.8599,-1.7974,-1.749,-1.7251,-1.712,-1.6949,-1.6683,-1.6407,-1.6312,-1.6414,-1.6958,-1.7044,-1.6581,-1.7777,-1.8179,-1.7742,-1.9298,-1.9771,-1.9314,-1.9887,-1.9852,-1.9392,-1.9221,-1.8895,-1.8468,-1.8137,-1.7804,-1.7473,-1.7139,-1.6976,-1.6976,-1.6976,-1.6902,-1.6812,-1.6812,-1.6812,-1.673,-1.673,-1.673,-1.673,-1.673,-1.6484,-1.6285,-1.6594,-1.6589,-1.6767,-1.8141,-1.862,-1.8984,-2.014,-2.0585,-2.0876,-2.1313,-2.163,-2.166,-2.1243,-2.1362,-2.1204,-2.04,-2.002,-1.9854,-1.9835,-1.9529,-1.9152,-1.878,-1.87,-1.8531,-1.8201,-1.8451,-1.8851,-1.9301,-1.9301,-1.9301,-1.9301,-1.9301,-1.9301,-1.9301,-1.9916,-1.9989,-1.9439,-2.0072,-2.0393,-2.0393,-2.0393,-2.0338,-2.0246,-1.9934,-1.9869,-2.0012,-1.9776,-1.9715,-1.9942,-2.0186,-2.0186,-2.002,-2.0264,-2.0342,-2.0342,-2.0342,-2.0489,-2.0566,-1.0804,-1.0866,-1.1235,-1.2446,-1.2072,-1.1998,-1.3087,-1.2688,-1.2798,-1.4242,-1.4977,-1.5833,-1.7088,-1.7631,-1.7895,-1.7953,-1.7442,-1.6994,-1.684,-1.6585,-1.6407,-1.6407,-1.6116,-1.6028,-1.6028,-1.6116,-1.6116,-1.6028,-1.68,-1.6996,-1.6737,-1.7913,-1.8258,-1.7999,-1.8725,-1.8696,-1.8184,-1.8532,-1.8246,-1.7664,-1.7499,-1.7228,-1.7066,-1.6812,-1.673,-1.673,-1.673,-1.673,-1.673,-1.673,-1.673,-1.673,-1.673,-1.673,-1.673,-1.673,-1.6484,-1.6245,-1.6477,-1.6607,-1.6994,-1.8161,-1.8789,-1.9391,-2.0265,-2.0576,-2.0859,-2.1302,-2.1548,-2.1546,-2.116,-2.1043,-2.0814,-2.0203,-1.9706,-1.9548,-1.9696,-1.9311,-1.8843,-1.8451,-1.821,-1.7968,-1.7716,-1.829,-1.8772,-1.9002,-1.9222,-1.9301,-1.9301,-1.9301,-1.9301,-1.9301,-1.9714,-1.9833,-1.9604,-2.0026,-2.0328,-2.0521,-2.0328,-2.0338,-2.0503,-2.0108,-1.9925,-2.0061,-1.9654,-1.9548,-1.9627,-1.9872,-1.9872,-1.9794,-2.0029,-2.0062,-1.9985,-2.0187,-2.042,-2.0566,-0.9811,-0.9726,-0.997,-1.102,-1.0319,-1.0263,-1.2302,-1.1678,-1.1541,-1.3336,-1.4266,-1.5159,-1.6034,-1.7152,-1.7611,-1.7195,-1.6884,-1.6587,-1.6508,-1.6116,-1.5927,-1.6123,-1.5927,-1.5832,-1.5832,-1.5737,-1.5737,-1.5737,-1.6075,-1.6169,-1.6113,-1.6632,-1.6783,-1.6677,-1.7345,-1.7368,-1.6807,-1.7403,-1.7242,-1.673,-1.673,-1.673,-1.673,-1.673,-1.673,-1.673,-1.673,-1.673,-1.673,-1.673,-1.673,-1.673,-1.673,-1.673,-1.673,-1.673,-1.6484,-1.63,-1.6484,-1.6885,-1.7521,-1.8192,-1.908,-1.9831,-2.0469,-2.0566,-2.0693,-2.1143,-2.1327,-2.1428,-2.1053,-2.0955,-2.078,-2.0564,-1.9822,-1.9478,-1.9948,-1.9277,-1.8558,-1.8044,-1.7588,-1.731,-1.7392,-1.8049,-1.8531,-1.87,-1.9002,-1.9231,-1.9301,-1.9301,-1.9301,-1.9301,-1.9366,-1.9577,-1.9925,-1.9998,-2.0228,-2.0613,-2.0292,-2.0264,-2.0512,-2.0182,-1.9998,-1.9907,-1.9558,-1.9366,-1.9301,-1.9557,-1.9566,-1.9557,-1.9784,-1.9733,-1.9621,-2.013,-2.0342,-2.0411,-0.9657,-0.9644,-0.9632,-0.9855,-0.9743,-0.9735,-1.0053,-0.9933,-1.0668,-1.295,-1.338,-1.4377,-1.6673,-1.7078,-1.6891,-1.6103,-1.636,-1.6441,-1.5927,-1.6028,-1.6028,-1.5832,-1.5832,-1.5832,-1.5832,-1.5635,-1.554,-1.554,-1.5345,-1.4976,-1.454,-1.5033,-1.5,-1.4514,-1.5376,-1.5752,-1.5884,-1.5967,-1.6275,-1.673,-1.673,-1.673,-1.673,-1.673,-1.673,-1.673,-1.673,-1.673,-1.673,-1.673,-1.673,-1.673,-1.673,-1.673,-1.673,-1.673,-1.6726,-1.6909,-1.7156,-1.7532,-1.8052,-1.8929,-1.9449,-1.9831,-2.0469,-2.0566,-2.0693,-2.1143,-2.1327,-2.1432,-2.1189,-2.0987,-2.0708,-2.0079,-1.962,-1.9341,-1.9362,-1.8976,-1.8501,-1.7996,-1.7252,-1.6984,-1.7392,-1.7473,-1.7878,-1.862,-1.878,-1.8922,-1.9301,-1.9301,-1.9301,-1.9301,-1.965,-1.987,-1.9934,-2.0264,-2.064,-2.1025,-2.097,-2.0796,-2.0521,-2.0466,-2.0255,-1.9925,-1.987,-1.9641,-1.9301,-1.9557,-1.9478,-1.9381,-1.9557,-1.9608,-1.964,-2.0167,-2.0029,-1.9794,-0.9628,-0.9628,-0.9628,-0.9628,-0.9628,-0.9628,-0.9628,-0.9628,-1.0105,-1.1623,-1.2302,-1.3312,-1.5069,-1.5896,-1.6259,-1.6035,-1.6116,-1.6021,-1.5825,-1.5927,-1.5859,-1.5598,-1.5585,-1.5511,-1.5351,-1.516,-1.4877,-1.4778,-1.4571,-1.4267,-1.405,-1.3812,-1.3528,-1.3385,-1.411,-1.4691,-1.5151,-1.5567,-1.6072,-1.673,-1.673,-1.673,-1.673,-1.673,-1.673,-1.673,-1.673,-1.673,-1.673,-1.673,-1.673,-1.673,-1.673,-1.673,-1.6738,-1.6984,-1.7114,-1.7263,-1.7674,-1.8202,-1.877,-1.9193,-1.9669,-2.0111,-2.0372,-2.0333,-2.0447,-2.1202,-2.1336,-2.136,-2.1316,-2.1006,-2.0393,-1.966,-1.9353,-1.9057,-1.8606,-1.8413,-1.8019,-1.7309,-1.6916,-1.682,-1.6984,-1.7229,-1.7563,-1.7968,-1.8451,-1.8772,-1.8922,-1.937,-1.965,-1.965,-2.0044,-2.0365,-2.0585,-2.0539,-2.0714,-2.1108,-2.1108,-2.1135,-2.119,-2.0952,-2.0368,-1.9477,-1.9265,-1.8693,-1.7917,-1.8496,-1.8656,-1.8647,-1.9222,-1.933,-1.931,-1.9866,-1.9887,-1.9648]},{"header":{"parameterUnit":"m.s-1","parameterCategory":1,"la1":30.6,"la2":28.766,"lo1":-90.7593,"lo2":-88.6598,"dy":0.0162,"dx":0.0183,"nx":116,"ny":114,"refTime":"2023-08-14T06:00:00:Z","depth":0,"parameterNumber":3,"parameterNumberName":"V-component_of_WINDS"},"data":[0.0,0.0,0.0,0.0,0.0,0.0,0.0,0.0,0.0,0.0,0.0,0.0,0.0,0.0,0.0,0.0,0.0,0.0,0.0,0.0,0.0,0.0,0.0,0.0,0.0,0.0,0.0,0.0,0.0,0.0,0.0,0.0,0.0,0.0,0.0,0.0,0.0,0.0,0.0,0.0,0.0,0.0,0.0,0.0,0.0,0.0,0.0,0.0,0.0,0.0,0.0,0.0,0.0,0.0,0.0,0.0,0.0,0.0,0.0,0.0,0.0,0.0,0.0,0.0,0.0,0.0,0.0,0.0,0.0,0.0,0.0,0.0,0.0,0.0,0.0,0.0,0.0,0.0,0.0,0.0,0.0,0.0,0.0,0.0,0.0,0.0,0.0,0.0,0.0,0.0,0.0,0.0,0.0,0.0,0.0,0.0,0.0,0.0,0.0,0.0,0.0,0.0,0.0,0.0,0.0,0.0,0.0,0.0,0.0,0.0,0.0,0.0,0.0,0.0,0.0,0.0,0.0,0.0,0.0,0.0,0.0,0.0,0.0,0.0,0.0,0.0,0.0,0.0,0.0,0.0,0.0,0.0,0.0,0.0,0.0,0.0,0.0,0.0,0.0,0.0,0.0,0.0,0.0,0.0,0.0,0.0,0.0,0.0,0.0,0.0,0.0,0.0,0.0,0.0,0.0,0.0,0.0,0.0,0.0,0.0,0.0,0.0,0.0,0.0,0.0,0.0,0.0,0.0,0.0,0.0,0.0,0.0,0.0,0.0,0.0,0.0,0.0,0.0,0.0,0.0,0.0,0.0,0.0,0.0,0.0,0.0,0.0,0.0,0.0,0.0,0.0,0.0,0.0,0.0,0.0,0.0,0.0,0.0,0.0,0.0,0.0,0.0,0.0,0.0,0.0,0.0,0.0,0.0,0.0,0.0,0.0,0.0,0.0,0.0,0.0,0.0,0.0,0.0,0.0,0.0,0.0,0.0,0.0,0.0,0.0,0.0,0.0,0.0,0.0,0.0,0.0,0.0,0.0,0.0,0.0,0.0,0.0,0.0,0.0,0.0,0.0,0.0,0.0,0.0,0.0,0.0,0.0,0.0,0.0,0.0,0.0,0.0,0.0,0.0,0.0,0.0,0.0,0.0,0.0,0.0,0.0,0.0,0.0,0.0,0.0,0.0,0.0,0.0,0.0,0.0,0.0,0.0,0.0,0.0,0.0,0.0,0.0,0.0,0.0,0.0,0.0,0.0,0.0,0.0,0.0,0.0,0.0,0.0,0.0,0.0,0.0,0.0,0.0,0.0,0.0,0.0,0.0,0.0,0.0,0.0,0.0,0.0,0.0,0.0,0.0,0.0,0.0,0.0,0.0,0.0,0.0,0.0,0.0,0.0,0.0,0.0,0.0,0.0,0.0,0.0,0.0,0.0,0.0,0.0,0.0,0.0,0.0,0.0,0.0,0.0,0.0,0.0,0.0,0.0,0.0,0.0,0.0,0.0,0.0,0.0,0.0,0.0,0.0,0.0,0.0,0.0,0.0,0.0,0.0,0.0,0.0,0.0,0.0,0.0,0.0,0.0,0.0,0.0,0.0,0.0,0.0,0.0,0.0,0.0,0.0,0.0,0.0,0.0,0.0,0.0,0.0,0.0,0.0,0.0,0.0,0.0,0.0,0.0,0.0,0.0,0.0,0.0,0.0,0.0,0.0,0.0,0.0,0.0,0.0,0.0,0.0,0.0,0.0,0.0,0.0,0.0,0.0,0.0,0.0,0.0,0.0,0.0,0.0,0.0,0.0,0.0,0.0,0.0,0.0,0.0,0.0,0.0,0.0,0.0,0.0,0.0,0.0,0.0,0.0,0.0,0.0,0.0,0.0,0.0,0.0,0.0,0.0,0.0,0.0,0.0,0.0,0.0,0.0,0.0,0.0,0.0,0.0,0.0,0.0,0.0,0.0,0.0,0.0,0.0,0.0,0.0,0.0,0.0,0.0,0.0,0.0,0.0,0.0,0.0,0.0,0.0,0.0,0.0,0.0,0.0,0.0,0.0,0.0,0.0,0.0,0.0,0.0,0.0,0.0,0.0,0.0,0.0,0.0,0.0,0.0,0.0,0.0,0.0,0.0,0.0,0.0,0.0,0.0,0.0,0.0,0.0,0.0,0.0,0.0,0.0,0.0,0.0,0.0,0.0,0.0,0.0,0.0,0.0,0.0,0.0,0.0,0.0,0.0,0.0,0.0,0.0,0.0,0.0,0.0,0.0,0.0,0.0,0.0,0.0,0.0,0.0,0.0,0.0,0.0,0.0,0.0,0.0,0.0,0.0,0.0,0.0,0.0,0.0,0.0,0.0,0.0,0.0,0.0,0.0,0.0,0.0,0.0,0.0,0.0,0.0,0.0,0.0,0.0,0.0,0.0,0.0,0.0,0.0,0.0,0.0,0.0,0.0,0.0,0.0,0.0,0.0,0.0,0.0,0.0,0.0,0.0,0.0,0.0,0.0,0.0,0.0,0.0,0.0,0.0,0.0,0.0,0.0,0.0,0.0,0.0,0.0,0.0,0.0,0.0,0.0,0.0,0.0,0.0,0.0,0.0,0.0,0.0,0.0,0.0,0.0,0.0,0.0,0.0,0.0,0.0,0.0,0.0,0.0,0.0,0.0,0.0,0.0,0.0,0.0,0.0,0.0,0.0,0.0,0.0,0.0,0.0,0.0,0.0,0.0,0.0,0.0,0.0,0.0,0.0,0.0,0.0,0.0,0.0,0.0,0.0,0.0,0.0,0.0,0.0,0.0,0.0,0.0,0.0,0.0,0.0,0.0,0.0,0.0,0.0,0.0,0.0,0.0,0.0,0.0,0.0,0.0,0.0,0.0,0.0,0.0,0.0,0.0,0.0,0.0,0.0,0.0,0.0,0.0,0.0,0.0,0.0,0.0,0.0,0.0,0.0,0.0,0.0,0.0,0.0,0.0,0.0,0.0,0.0,0.0,0.0,0.0,0.0,0.0,0.0,0.0,0.0,0.0,0.0,0.0,0.0,0.0,0.0,0.0,0.0,0.0,0.0,0.0,0.0,0.0,0.0,0.0,0.0,0.0,0.0,0.0,0.0,0.0,0.0,0.0,0.0,0.0,0.0,0.0,0.0,0.0,0.0,0.0,0.0,0.0,0.0,0.0,0.0,0.0,0.0,0.0,0.0,0.0,0.0,0.0,0.0,0.0,0.0,0.0,0.0,0.0,0.0,0.0,0.0,0.0,0.0,0.0,0.0,0.0,0.0,0.0,0.0,0.0,0.0,0.0,0.0,0.0,0.0,0.0,0.0,0.0,0.0,0.0,0.0,0.0,0.0,0.0,0.0,0.0,0.0,0.0,0.0,0.0,0.0,0.0,0.0,0.0,0.0,0.0,0.0,0.0,0.0,0.0,0.0,0.0,0.0,0.0,0.0,0.0,0.0,0.0,0.0,0.0,0.0,0.0,0.0,0.0,0.0,0.0,0.0,0.0,0.0,0.0,0.0,0.0,0.0,0.0,0.0,0.0,0.0,0.0,0.0,0.0,0.0,0.0,0.0,0.0,0.0,0.0,0.0,0.0,0.0,0.0,0.0,0.0,0.0,0.0,0.0,0.0,0.0,0.0,0.0,0.0,0.0,0.0,0.0,0.0,0.0,0.0,0.0,0.0,0.0,0.0,0.0,0.0,0.0,0.0,0.0,0.0,0.0,0.0,0.0,0.0,0.0,0.0,0.0,0.0,0.0,0.0,0.0,0.0,0.0,0.0,0.0,0.0,0.0,0.0,0.0,0.0,0.0,0.0,0.0,0.0,0.0,0.0,0.0,0.0,0.0,0.0,0.0,0.0,0.0,0.0,0.0,0.0,0.0,0.0,0.0,0.0,0.0,0.0,0.0,0.0,0.0,0.0,0.0,0.0,0.0,0.0,0.0,0.0,0.0,0.0,0.0,0.0,0.0,0.0,0.0,0.0,0.0,0.0,0.0,0.0,0.0,0.0,0.0,0.0,0.0,0.0,0.0,0.0,0.0,0.0,0.0,0.0,0.0,0.0,0.0,0.0,0.0,0.0,0.0,0.0,0.0,0.0,0.0,0.0,0.0,0.0,0.0,0.0,0.0,0.0,0.0,0.0,0.0,0.0,0.0,0.0,0.0,0.0,0.0,0.0,0.0,0.0,0.0,0.0,0.0,0.0,0.0,0.0,0.0,0.0,0.0,0.0,0.0,0.0,0.0,0.0,0.0,0.0,0.0,0.0,0.0,0.0,0.0,0.0,0.0,0.0,0.0,0.0,0.0,0.0,0.0,0.0,0.0,0.0,0.0,0.0,0.0,0.0,0.0,0.0,0.0,0.0,0.0,0.0,0.0,0.0,0.0,0.0,0.0,0.0,0.0,0.0,0.0,0.0,0.0,0.0,0.0,0.0,0.0,0.0,0.0,0.0,0.0,0.0,0.0,0.0,0.0,0.0,0.0,0.0,0.0,0.0,0.0,0.0,0.0,0.0,0.0,0.0,0.0,0.0,0.0,0.0,0.0,0.0,0.0,0.0,0.0,0.0,0.0,0.0,0.0,0.0,0.0,0.0,0.0,0.0,0.0,0.0,0.0,0.0,0.0,0.0,0.0,0.0,0.0,0.0,0.0,0.0,0.0,0.0,0.0,0.0,0.0,0.0,0.0,0.0,0.0,0.0,0.0,0.0,0.0,0.0,0.0,0.0,0.0,0.0,0.0,0.0,0.0,0.0,0.0,0.0,0.0,0.0,0.0,0.0,0.0,0.0,0.0,0.0,0.0,0.0,0.0,0.0,0.0,0.0,0.0,0.0,0.0,0.0,0.0,0.0,0.0,0.0,0.0,0.0,0.0,0.0,0.0,0.0,0.0,0.0,0.0,0.0,0.0,0.0,0.0,0.0,0.0,0.0,0.0,0.0,0.0,0.0,0.0,0.0,0.0,0.0,0.0,0.0,0.0,0.0,0.0,0.0,0.0,0.0,0.0,0.0,0.0,0.0,0.0,0.0,0.0,0.0,0.0,0.0,0.0,0.0,0.0,0.0,0.0,0.0,0.0,0.0,0.0,0.0,0.0,0.0,0.0,0.0,0.0,0.0,0.0,0.0,0.0,0.0,0.0,0.0,0.0,0.0,0.0,0.0,0.0,0.0,0.0,0.0,0.0,0.0,0.0,0.0,0.0,0.0,0.0,0.0,0.0,0.0,0.0,0.0,0.0,0.0,0.0,0.0,0.0,0.0,0.0,0.0,0.0,0.0,0.0,0.0,0.0,0.0,0.0,0.0,0.0,0.0,0.0,0.0,0.0,0.0,0.0,0.0,0.0,0.0,0.0,0.0,0.0,0.0,0.0,0.0,0.0,0.0,0.0,0.0,0.0,0.0,0.0,0.0,0.0,0.0,0.0,0.0,0.0,0.0,0.0,0.0,0.0,0.0,0.0,0.0,0.0,0.0,0.0,0.0,0.0,0.0,0.0,0.0,0.0,0.0,0.0,0.0,0.0,0.0,0.0,0.0,0.0,0.0,0.0,0.0,0.0,0.0,0.0,0.0,0.0,0.0,0.0,0.0,0.0,0.0,0.0,0.0,0.0,0.0,0.0,0.0,0.0,0.0,0.0,0.0,0.0,0.0,0.0,0.0,0.0,0.0,0.0,0.0,0.0,0.0,0.0,0.0,0.0,0.0,0.0,0.0,0.0,0.0,0.0,0.0,0.0,0.0,0.0,0.0,0.0,0.0,0.0,0.0,0.0,0.0,0.0,0.0,0.0,0.0,0.0,0.0,0.0,0.0,0.0,0.0,0.0,0.0,0.0,0.0,0.0,0.0,0.0,0.0,0.0,0.0,0.0,0.0,0.0,0.0,0.0,0.0,0.0,0.0,0.0,0.0,0.0,0.0,0.0,0.0,0.0,0.0,0.0,0.0,0.0,0.0,0.0,0.0,0.0,0.0,0.0,0.0,0.0,0.0,0.0,0.0,0.0,0.0,0.0,0.0,0.0,0.0,0.0,0.0,0.0,0.0,0.0,0.0,0.0,0.0,0.0,0.0,0.0,0.0,0.0,0.0,0.0,0.0,0.0,0.0,0.0,0.0,0.0,0.0,-2.957,0.0,0.0,0.0,0.0,0.0,0.0,0.0,0.0,0.0,0.0,0.0,0.0,0.0,0.0,0.0,0.0,0.0,0.0,0.0,0.0,0.0,0.0,0.0,0.0,0.0,0.0,0.0,0.0,0.0,0.0,0.0,0.0,0.0,0.0,0.0,0.0,0.0,0.0,0.0,0.0,0.0,0.0,0.0,0.0,0.0,0.0,0.0,0.0,0.0,0.0,0.0,0.0,0.0,0.0,0.0,0.0,0.0,0.0,0.0,0.0,0.0,0.0,0.0,0.0,0.0,0.0,0.0,0.0,0.0,0.0,0.0,0.0,0.0,0.0,0.0,0.0,0.0,0.0,0.0,0.0,0.0,0.0,0.0,0.0,0.0,0.0,0.0,0.0,0.0,0.0,0.0,0.0,0.0,0.0,0.0,0.0,0.0,0.0,0.0,0.0,0.0,0.0,0.0,0.0,0.0,0.0,0.0,0.0,0.0,0.0,0.0,0.0,0.0,0.0,0.0,0.0,-3.284,0.0,0.0,0.0,0.0,0.0,0.0,0.0,0.0,0.0,0.0,0.0,0.0,0.0,0.0,0.0,0.0,0.0,0.0,0.0,0.0,0.0,0.0,0.0,0.0,0.0,0.0,0.0,0.0,0.0,0.0,0.0,0.0,0.0,0.0,0.0,0.0,0.0,0.0,0.0,0.0,0.0,0.0,0.0,0.0,0.0,0.0,0.0,0.0,0.0,0.0,0.0,0.0,0.0,0.0,0.0,0.0,0.0,0.0,0.0,0.0,0.0,0.0,0.0,0.0,0.0,0.0,0.0,0.0,0.0,0.0,0.0,0.0,0.0,0.0,0.0,0.0,0.0,0.0,0.0,0.0,0.0,0.0,0.0,0.0,0.0,0.0,0.0,0.0,0.0,0.0,0.0,0.0,0.0,0.0,0.0,0.0,0.0,0.0,0.0,0.0,0.0,0.0,0.0,0.0,0.0,0.0,0.0,0.0,-3.7552,-3.851,-3.9672,-3.8616,-3.9303,-4.0922,-3.6649,-3.597,-3.786,0.0,0.0,0.0,0.0,0.0,0.0,0.0,0.0,0.0,0.0,0.0,0.0,0.0,0.0,0.0,0.0,0.0,0.0,0.0,0.0,0.0,0.0,0.0,0.0,0.0,0.0,0.0,0.0,0.0,0.0,0.0,0.0,0.0,0.0,0.0,0.0,0.0,0.0,0.0,-4.1515,-4.2555,-4.3502,-4.4385,-4.4014,0.0,0.0,0.0,0.0,0.0,0.0,0.0,0.0,0.0,0.0,0.0,0.0,0.0,0.0,0.0,0.0,0.0,0.0,0.0,0.0,0.0,0.0,0.0,0.0,0.0,0.0,0.0,0.0,0.0,0.0,0.0,0.0,0.0,0.0,0.0,0.0,0.0,0.0,0.0,0.0,0.0,0.0,0.0,-3.6827,-3.5887,0.0,0.0,0.0,0.0,0.0,0.0,0.0,0.0,0.0,0.0,0.0,0.0,0.0,-4.0112,-3.9887,-4.0711,-4.0545,-3.9583,-4.2179,-4.3661,-4.4122,-4.4202,-4.442,-4.4557,-4.1827,0.0,-4.095,-4.0742,0.0,0.0,0.0,0.0,0.0,0.0,0.0,0.0,0.0,0.0,0.0,0.0,0.0,0.0,0.0,0.0,0.0,0.0,0.0,0.0,0.0,0.0,0.0,0.0,0.0,0.0,0.0,0.0,0.0,0.0,0.0,0.0,0.0,0.0,0.0,0.0,-4.17,-4.3574,-4.3939,-4.5027,-4.6892,-4.9202,-4.9117,-4.8726,-4.8105,-4.749,0.0,0.0,0.0,0.0,0.0,0.0,0.0,0.0,0.0,0.0,0.0,0.0,0.0,0.0,0.0,0.0,0.0,0.0,0.0,0.0,0.0,0.0,0.0,0.0,0.0,0.0,0.0,0.0,0.0,0.0,0.0,0.0,0.0,0.0,0.0,0.0,0.0,0.0,0.0,-3.7335,-3.6412,-3.3348,-3.3888,-3.4123,0.0,0.0,0.0,0.0,0.0,0.0,0.0,0.0,0.0,-4.3478,-4.4034,-4.4052,-4.3524,-4.3917,-4.3895,-4.3548,-4.5482,-4.7284,-4.8986,-4.8177,-4.8221,-4.8774,-4.5899,-4.438,-4.3766,-4.1429,-4.0468,-4.0313,0.0,0.0,0.0,0.0,-3.5871,-3.4774,0.0,0.0,0.0,0.0,0.0,0.0,0.0,0.0,0.0,0.0,0.0,0.0,0.0,0.0,0.0,0.0,0.0,0.0,0.0,0.0,0.0,0.0,0.0,0.0,0.0,0.0,0.0,0.0,-4.5083,-4.6389,-4.6487,-4.79,-4.9829,-5.2123,-5.3141,-5.2929,-5.1783,-5.0736,-4.8456,0.0,0.0,0.0,0.0,0.0,0.0,0.0,0.0,0.0,0.0,0.0,0.0,0.0,0.0,0.0,0.0,0.0,0.0,0.0,0.0,0.0,0.0,0.0,0.0,0.0,0.0,0.0,0.0,0.0,0.0,0.0,0.0,0.0,0.0,0.0,0.0,0.0,0.0,-3.692,-3.6383,-3.2305,-3.4172,-3.5065,0.0,0.0,0.0,0.0,0.0,0.0,-4.2559,-4.3705,-4.5356,-4.7611,-4.8581,-4.8588,-4.763,-4.771,-4.7557,-4.7082,-4.8287,-5.007,-5.2157,-5.0668,-5.0348,-5.09,-4.7555,-4.5792,-4.4771,-4.1996,-4.0585,-4.0161,-3.9241,-3.8617,-3.8079,-3.7744,-3.7143,-3.6287,0.0,0.0,0.0,0.0,0.0,0.0,0.0,0.0,0.0,0.0,0.0,0.0,0.0,0.0,0.0,0.0,0.0,0.0,0.0,0.0,0.0,0.0,0.0,0.0,0.0,0.0,0.0,-4.6291,-4.6442,-4.7384,-4.9047,-5.0918,-5.2057,-5.2695,-5.5506,-5.6903,-5.6898,-5.3365,-5.0706,-4.8494,0.0,0.0,0.0,0.0,0.0,0.0,0.0,0.0,0.0,0.0,0.0,0.0,0.0,0.0,0.0,0.0,0.0,0.0,0.0,0.0,0.0,0.0,0.0,0.0,0.0,0.0,0.0,0.0,0.0,0.0,0.0,0.0,0.0,0.0,0.0,0.0,0.0,0.0,0.0,-3.5353,-3.8164,0.0,0.0,0.0,0.0,-4.1079,-4.154,-4.291,-4.5534,-4.6711,-4.8893,-5.2238,-5.3432,-5.3473,-5.218,-5.2499,-5.1695,-4.9739,-5.1016,-5.2022,-5.2614,-5.1385,-5.0349,-4.9333,-4.5886,-4.373,-4.2794,-4.2618,-4.24,-4.1967,-4.0245,-3.9734,-3.9802,-3.8863,-3.8379,-3.8119,0.0,0.0,0.0,0.0,0.0,0.0,0.0,0.0,0.0,0.0,0.0,0.0,0.0,0.0,0.0,0.0,0.0,0.0,0.0,0.0,0.0,0.0,0.0,0.0,0.0,0.0,-4.3631,-4.5758,-4.789,-4.9211,-4.9808,-5.056,-5.1853,-5.3573,-5.4022,-5.4967,-5.6095,-5.4177,-5.1319,-4.7886,-4.4952,-4.192,0.0,0.0,0.0,0.0,0.0,0.0,0.0,0.0,0.0,0.0,0.0,0.0,0.0,0.0,0.0,0.0,0.0,0.0,0.0,0.0,0.0,0.0,0.0,0.0,0.0,0.0,0.0,0.0,0.0,0.0,0.0,0.0,0.0,0.0,0.0,0.0,0.0,-3.8842,-4.0775,0.0,-3.8738,-4.0695,-4.2325,-4.2695,-4.3561,-4.5497,-4.8398,-5.0235,-5.2354,-5.5049,-5.677,-5.6194,-5.3188,-5.3294,-5.2127,-4.9915,-5.0747,-5.171,-5.2712,-5.1834,-5.0685,-4.9187,-4.6154,-4.3999,-4.2597,-4.2015,-4.1535,-4.1322,-4.0874,-4.0754,-4.079,-4.0004,-3.9399,-3.8839,0.0,0.0,0.0,0.0,0.0,0.0,0.0,0.0,0.0,0.0,0.0,0.0,0.0,0.0,0.0,0.0,0.0,0.0,0.0,0.0,0.0,0.0,0.0,0.0,0.0,-4.1372,-4.4525,-4.6494,-4.8834,-5.0222,-5.0684,-5.1046,-5.1946,-5.3228,-5.2955,-5.3309,-5.4052,-5.2845,-5.0417,-4.7169,-4.4836,-4.1978,-3.8962,0.0,0.0,0.0,0.0,0.0,0.0,0.0,0.0,0.0,0.0,0.0,0.0,0.0,0.0,0.0,0.0,0.0,0.0,0.0,0.0,0.0,0.0,0.0,0.0,0.0,0.0,0.0,0.0,0.0,0.0,0.0,0.0,0.0,0.0,0.0,-4.3593,-4.1569,-4.4123,-4.5049,-4.2603,-4.4427,-4.5806,-4.5929,-4.6574,-4.7988,-5.0327,-5.2598,-5.458,-5.627,-5.8006,-5.7476,-5.4255,-5.4041,-5.2743,-5.0525,-5.0715,-5.1158,-5.1739,-5.098,-4.9603,-4.7675,-4.5501,-4.3535,-4.1729,-4.1225,-4.0946,-4.0963,-4.1271,-4.1351,-4.1259,-4.0767,-4.0327,-3.985,0.0,0.0,0.0,0.0,0.0,0.0,0.0,0.0,0.0,0.0,0.0,0.0,0.0,0.0,0.0,0.0,0.0,0.0,0.0,0.0,0.0,0.0,0.0,0.0,-3.8416,-4.0917,-4.4303,-4.8687,-4.9137,-5.0146,-5.1705,-5.2511,-5.2394,-5.1535,-5.2545,-5.2382,-5.1295,-4.9541,-4.8037,-4.6567,-4.387,-4.1807,-4.0232,0.0,0.0,0.0,0.0,0.0,0.0,0.0,0.0,0.0,0.0,0.0,0.0,0.0,0.0,0.0,0.0,0.0,0.0,0.0,0.0,0.0,0.0,0.0,0.0,0.0,0.0,0.0,0.0,0.0,0.0,0.0,0.0,0.0,-4.2242,-4.4545,-4.5495,-4.3623,-4.8387,-5.0847,-4.8442,-5.0457,-5.1646,-5.1037,-5.0367,-5.0348,-5.1224,-5.3685,-5.5329,-5.6117,-5.7399,-5.727,-5.5721,-5.5025,-5.3647,-5.1616,-5.1007,-5.0411,-4.9802,-4.8726,-4.6898,-4.4421,-4.4011,-4.2411,-4.0128,-4.0551,-4.0913,-4.125,-4.1638,-4.1516,-4.1263,-4.1023,-4.111,-4.1232,0.0,0.0,0.0,0.0,0.0,0.0,0.0,0.0,0.0,0.0,0.0,0.0,0.0,0.0,0.0,0.0,0.0,0.0,0.0,0.0,0.0,0.0,0.0,0.0,-3.8365,-4.1739,-4.4318,-4.5974,-4.7753,-4.8732,-4.8984,-4.9906,-4.9911,-4.9245,-4.9841,-4.9756,-4.9067,-4.757,-4.6219,-4.4857,-4.3349,-4.1565,-3.9884,0.0,0.0,0.0,0.0,0.0,0.0,0.0,0.0,0.0,0.0,0.0,0.0,0.0,0.0,0.0,0.0,0.0,0.0,0.0,0.0,0.0,0.0,0.0,0.0,0.0,0.0,0.0,0.0,0.0,0.0,0.0,0.0,-4.4274,-4.5914,-4.7712,-4.8967,-4.938,-5.1689,-5.2982,-5.2259,-5.2745,-5.3315,-5.3515,-5.2981,-5.2896,-5.3542,-5.4234,-5.453,-5.4476,-5.5721,-5.5366,-5.3088,-5.3467,-5.2511,-5.0339,-4.9785,-4.9204,-4.8624,-4.8289,-4.6563,-4.3856,-4.3838,-4.2411,-4.0128,-4.0551,-4.0583,-4.066,-4.1877,-4.2311,-4.2177,-4.1672,-4.1169,-4.063,0.0,0.0,0.0,0.0,0.0,0.0,0.0,0.0,0.0,0.0,0.0,0.0,0.0,0.0,0.0,0.0,0.0,0.0,0.0,0.0,0.0,0.0,0.0,-3.6024,-3.8559,-4.1503,-4.358,-4.4637,-4.5634,-4.6396,-4.689,-4.6781,-4.6721,-4.6649,-4.6595,-4.6422,-4.6085,-4.5084,-4.4114,-4.32,-4.2439,-4.1359,-4.0146,-3.9911,-3.9867,-3.9949,-3.9789,-3.9691,-3.9645,-3.9629,0.0,0.0,0.0,0.0,0.0,0.0,0.0,0.0,0.0,0.0,0.0,0.0,0.0,0.0,0.0,0.0,0.0,0.0,0.0,0.0,0.0,0.0,0.0,0.0,-4.3723,-4.504,-4.8025,-4.97,-5.0961,-5.1816,-5.3653,-5.4773,-5.4771,-5.4773,-5.4768,-5.4854,-5.4318,-5.3851,-5.3375,-5.4072,-5.4145,-5.3323,-5.4516,-5.458,-5.3172,-5.2924,-5.2098,-5.0614,-5.0057,-4.9122,-4.7947,-4.7947,-4.6218,0.0,-4.3187,-4.1935,-3.9829,-4.0457,-4.0499,0.0,0.0,0.0,0.0,0.0,-4.0747,-4.0019,0.0,0.0,0.0,0.0,0.0,0.0,0.0,0.0,0.0,0.0,0.0,0.0,0.0,0.0,0.0,0.0,0.0,0.0,0.0,0.0,0.0,-3.1366,-3.4003,-3.6474,-3.8794,-4.0549,-4.226,-4.3899,-4.3251,-4.3641,-4.4974,-4.3669,-4.3412,-4.3952,-4.3277,-4.2921,-4.2814,-4.249,-4.208,-4.1656,-4.1534,-4.1279,-4.0875,-4.0031,-4.0332,-4.1121,-4.0267,-4.002,-4.0162,-4.0521,0.0,0.0,0.0,0.0,0.0,0.0,0.0,0.0,0.0,0.0,0.0,0.0,0.0,0.0,0.0,0.0,0.0,0.0,0.0,0.0,0.0,0.0,0.0,0.0,-4.4131,-4.5227,-4.9011,-5.0737,-5.18,-5.2327,-5.4581,-5.6152,-5.6361,-5.6437,-5.6318,-5.5838,-5.5094,-5.3974,-5.2205,0.0,0.0,0.0,0.0,-5.4259,-5.4392,-5.3322,-5.2458,-5.1829,-5.0979,-4.9606,-4.758,-4.7395,-4.551,-4.2245,-4.2365,-4.121,-3.9507,-4.0246,-4.0511,-4.0402,-4.1273,-4.1258,-4.0795,-4.0593,-3.9956,0.0,0.0,0.0,0.0,0.0,0.0,0.0,0.0,0.0,0.0,0.0,0.0,0.0,0.0,0.0,0.0,0.0,0.0,0.0,0.0,0.0,-2.8257,-3.2042,-3.3803,-3.5906,-3.8518,-3.9404,-4.0349,-4.14,-4.1719,-4.1915,-4.1945,-4.2133,-4.1969,-4.1493,-4.1379,-4.1104,-4.0759,-4.131,-4.1261,-4.0898,-4.1687,-4.1803,-4.1621,-4.1418,-4.2106,-4.3092,-4.2387,-4.2326,-4.2572,-4.1803,-4.1524,-4.1542,-4.191,0.0,0.0,0.0,0.0,0.0,0.0,0.0,0.0,0.0,0.0,0.0,0.0,0.0,0.0,0.0,0.0,0.0,0.0,0.0,0.0,-4.5963,-4.7183,-4.8461,-5.0228,-5.0661,-5.1452,-5.3556,-5.4745,-5.6002,-5.7588,-5.7749,-5.7955,-5.8342,-5.6976,-5.5435,-5.4044,-5.3358,-5.2615,-5.1951,-5.2648,-5.32,-5.3833,-5.3592,-5.3038,-5.2415,0.0,0.0,-4.7567,-4.625,-4.4427,-4.2245,-4.2245,-4.141,-3.9882,-3.9705,-3.9829,-4.0328,-4.0834,-4.0887,-4.0491,-4.0287,-3.9639,-3.8907,0.0,0.0,0.0,0.0,0.0,0.0,0.0,0.0,0.0,0.0,0.0,0.0,0.0,0.0,0.0,0.0,0.0,0.0,0.0,-2.738,-2.965,-3.2755,-3.4538,-3.6271,-3.8009,-3.8618,-3.9295,-4.0103,-3.9764,-3.9891,-4.0431,-3.9982,-3.9785,-3.98,-4.0119,-4.0102,-3.9949,-4.1144,-4.1425,-4.1127,-4.1895,-4.2298,-4.2387,-4.2434,-4.2847,-4.3454,-4.3517,-4.3456,-4.3316,-4.3081,-4.3032,-4.3123,-4.3563,-4.3977,-4.411,0.0,0.0,0.0,0.0,0.0,0.0,0.0,0.0,0.0,0.0,0.0,0.0,0.0,0.0,-4.2037,0.0,0.0,-4.5252,-4.7537,-4.8481,-4.9309,-5.0628,-5.0341,-5.0659,-5.2477,-5.3593,-5.4835,-5.6496,-5.7229,-5.766,-5.765,-5.7114,-5.5807,-5.3661,-5.3243,-5.2581,-5.1736,-5.2661,-5.3457,-5.4047,-5.4047,-5.3416,-5.2275,-5.0655,-4.8727,-4.6474,-4.5436,-4.3871,-4.1906,-4.1637,-4.0999,-4.0117,-4.0257,-4.074,-4.1497,-4.1853,-4.1401,-4.0504,-4.0185,-3.9639,-3.8831,0.0,0.0,0.0,0.0,0.0,0.0,0.0,0.0,0.0,0.0,0.0,0.0,0.0,0.0,0.0,0.0,0.0,0.0,0.0,-2.8578,-3.1019,-3.3206,-3.5027,-3.642,-3.7366,-3.7657,-3.8261,-3.9252,-3.8138,-3.8285,-3.9517,-3.8409,-3.829,-3.905,-3.9488,-3.9725,-3.9929,-4.1371,-4.1814,-4.1556,-4.2178,-4.2637,-4.2942,-4.3213,-4.3355,-4.3611,-4.4278,-4.4031,-4.3414,-4.3904,-4.398,-4.3999,-4.4739,-4.5268,-4.5363,-4.3836,-4.3369,0.0,0.0,0.0,0.0,0.0,0.0,0.0,0.0,0.0,-4.2647,-4.31,-4.3237,-4.3669,-4.504,-4.5457,-4.6352,-4.8779,-4.9424,-4.9895,-5.0739,-5.009,-4.9895,-5.0954,-5.2192,-5.3563,-5.5044,-5.6241,-5.6793,-5.6354,-5.6297,-5.5282,-5.2747,-5.2728,-5.242,-5.1736,-5.2917,-5.394,-5.4497,-5.4268,-5.332,-5.1804,-5.026,-4.8033,-4.5348,-4.459,-4.3353,-4.1684,-4.0973,-4.0387,-3.9956,-4.0836,-4.1521,-4.225,-4.2587,-4.197,-4.067,-4.0453,-3.9728,-3.8982,0.0,0.0,0.0,0.0,0.0,0.0,0.0,0.0,0.0,0.0,0.0,0.0,0.0,0.0,0.0,0.0,0.0,0.0,-2.7097,-2.8911,-3.0785,-3.2852,-3.3969,-3.5192,-3.6588,-3.5972,-3.6539,-3.8351,-3.7841,-3.7965,-3.8644,-3.9002,-3.9435,-3.989,-3.9933,-4.023,-4.0696,-4.1608,-4.1814,-4.1574,-4.2538,-4.2804,-4.2727,-4.3668,-4.4237,-4.4647,-4.4857,-4.4297,-4.3503,-4.3642,-4.318,-4.2883,-4.4352,-4.4475,-4.3863,-4.2824,0.0,-4.1366,-3.956,-3.9582,-4.057,-4.2429,-4.272,-4.3505,0.0,0.0,-4.6081,-4.7469,-4.6955,-4.6464,-4.7335,-4.8072,-4.8895,-4.9885,-5.114,-5.1816,-5.1124,-5.034,-4.9984,-5.0534,-5.1574,-5.3069,-5.4999,-5.5852,-5.6347,-5.6325,-5.4409,-5.3022,-5.2679,-5.1136,-5.0762,-5.1709,-5.2917,-5.394,-5.4497,-5.3472,-5.2338,-5.1197,-4.8138,-4.6174,-4.5336,-4.3473,-4.2477,-4.2178,-4.0755,-3.9859,-3.9495,-4.0408,-4.0979,-4.1373,-4.172,-4.1798,-4.157,-4.135,-4.0377,-3.9183,0.0,0.0,0.0,0.0,0.0,0.0,0.0,0.0,0.0,0.0,0.0,0.0,0.0,0.0,0.0,0.0,0.0,0.0,-2.7641,-2.9234,-3.0907,-3.2702,-3.3313,-3.4203,-3.5477,-3.5171,-3.6055,-3.8198,-3.7914,-3.8356,-3.949,-3.9673,-3.9796,-3.9921,-4.0427,-4.1222,-4.224,-4.2544,-4.3028,-4.3504,-4.334,-4.3286,-4.3323,-4.409,-4.4107,-4.3716,-4.4071,-4.3664,0.0,0.0,-4.3546,-4.3874,-4.5013,-4.5174,-4.471,-4.3371,-4.2782,0.0,-4.1651,-4.1861,-4.2709,-4.4395,-4.5443,-4.6554,-4.8283,-4.8506,-4.8508,-4.9011,-4.9094,-4.9074,-4.9073,-4.9375,-4.9891,0.0,-5.1347,-5.1806,-5.1842,-5.0338,-4.941,-4.9997,-4.9749,-5.0543,-5.326,-5.4215,-5.4395,-5.4229,-5.3176,-5.2321,-5.1562,-5.1071,-5.1084,-5.1736,-5.2567,-5.3452,-5.4497,-5.2798,-5.1389,-5.0234,-4.7558,-4.5441,-4.4021,-4.3216,-4.2293,-4.1397,-4.0468,-3.9767,-3.9414,-4.0894,-4.155,-4.1768,-4.3003,-4.3031,-4.2385,-4.1491,-4.0657,-3.9956,0.0,0.0,0.0,0.0,0.0,0.0,0.0,0.0,0.0,0.0,0.0,0.0,0.0,0.0,0.0,0.0,0.0,0.0,0.0,-2.9899,-3.13,-3.2468,-3.2784,0.0,-3.4336,-3.4445,-3.5626,-3.7948,-3.7899,-3.868,-4.0222,-4.0377,-4.0479,-4.0587,-4.1461,-4.2517,-4.3646,-4.3646,-4.4121,-4.4841,-4.429,-4.3962,-4.3897,-4.4288,-4.3656,-4.263,-4.3447,-4.3008,0.0,0.0,-4.3186,-4.3679,-4.4508,-4.478,-4.453,-4.312,-4.2578,-4.2497,-4.2881,-4.3372,-4.4191,-4.5853,-4.735,-4.8546,-4.887,-4.9593,-5.0142,-5.0001,-5.01,-5.0148,-4.9906,-4.9742,-4.9876,-5.051,-5.1125,-5.1569,-5.1746,-5.0043,-4.8938,-4.9291,-4.7969,-4.7975,-5.0309,-5.1675,-5.2377,-5.2108,-5.1964,-5.1521,-5.0883,-5.1008,-5.1255,-5.1385,-5.2043,-5.2615,-5.3142,-5.1374,-4.9848,-4.8521,-4.6516,-4.478,-4.3085,-4.2798,-4.1994,-4.0789,-4.0135,-3.9561,-3.9219,-4.0564,-4.1452,-4.209,-4.3125,-4.3479,-4.328,-4.1817,-4.0997,-4.0593,0.0,0.0,0.0,0.0,0.0,0.0,0.0,0.0,0.0,0.0,0.0,0.0,0.0,0.0,0.0,0.0,0.0,0.0,0.0,-3.1116,-3.1986,-3.202,-3.2271,-3.2685,-3.3246,-3.3575,-3.4912,-3.7331,-3.7648,-3.8664,-4.0323,-4.116,-4.1859,-4.2468,-4.3329,-4.41,-4.4738,-4.4738,-4.4701,-4.4659,-4.5303,-4.5011,-4.4162,-4.4053,-4.2999,-4.176,-4.3487,0.0,0.0,0.0,-4.1436,-4.0967,-4.1851,-4.2191,0.0,-4.1255,-4.0469,-4.0271,-4.1961,-4.2825,-4.3811,-4.625,-4.7642,-4.8622,-4.9375,-5.0296,-5.0948,-5.0984,-4.9737,-4.8852,-4.9486,-4.9142,-4.8764,-4.8866,-5.0716,-5.1663,-5.027,-4.9345,-4.8589,-4.8094,-4.6741,-4.5852,0.0,-4.8319,-5.0355,-5.077,-5.0335,-5.022,-5.0817,-5.025,-5.0198,-5.0773,-5.1534,-5.1081,-4.9629,-4.8898,-4.7612,-4.5658,-4.4345,-4.3472,-4.3051,-4.2075,-4.1329,-4.0766,-3.9756,-3.9055,-3.8608,-3.8724,-4.0028,-4.1982,-4.089,-4.2138,-4.436,-4.2703,-4.1584,-4.0883,0.0,0.0,0.0,0.0,0.0,0.0,0.0,0.0,0.0,0.0,0.0,0.0,0.0,0.0,0.0,0.0,0.0,0.0,0.0,-3.0141,-3.0399,-3.0717,-3.0675,-3.1325,-3.2894,-3.2649,-3.4129,-3.7441,-3.8034,-3.9263,-4.1045,-4.2148,-4.2747,-4.2916,-4.3297,-4.4434,-4.604,-4.5539,-4.6129,-4.7239,-4.5707,-4.4953,-4.4596,-4.2768,-4.1873,-4.1646,0.0,0.0,0.0,0.0,0.0,-4.1532,-4.2432,-4.2389,-4.194,-4.1649,-4.1646,-4.2082,-4.3798,-4.5086,-4.635,-4.8123,-4.922,-4.9945,-5.0321,-5.0652,-5.0745,-5.0326,-4.9179,-4.8093,-4.747,-4.7403,-4.7402,-4.7335,-4.9289,-5.0642,-5.0107,-4.876,-4.7303,-4.6016,-4.4954,0.0,0.0,0.0,0.0,-4.7861,-4.8052,-4.865,-4.9584,-5.0185,-5.0394,-5.0198,-5.0191,-4.9939,-4.9456,-4.7134,-4.5871,-4.5609,-4.3361,-4.2201,-4.2052,-4.103,-4.0468,-4.0261,-3.9262,-3.8734,-3.8666,-3.8868,-4.0023,-4.148,-4.1741,-4.2629,-4.3972,-4.3382,-4.2497,-4.1584,0.0,0.0,0.0,0.0,0.0,0.0,0.0,0.0,0.0,0.0,0.0,0.0,0.0,0.0,0.0,0.0,0.0,0.0,0.0,0.0,-2.9476,-2.9512,-2.9106,-2.9595,-3.1258,-3.0925,-3.2368,-3.5615,-3.6667,-3.8271,-4.0443,-4.2083,-4.3046,-4.3417,-4.4238,-4.5395,-4.6734,-4.6266,-4.6685,-4.7526,-4.5819,-4.4812,-4.4145,-4.246,-4.1591,0.0,0.0,0.0,0.0,0.0,-4.0841,-4.1459,-4.2058,-4.1886,-4.1525,-4.1816,-4.2553,-4.3695,-4.5706,-4.7258,-4.8625,-4.9835,-5.0476,-5.0685,-5.0375,-5.0435,-5.0319,-4.9458,-4.8251,-4.7062,-4.6175,-4.5863,-4.5666,-4.563,-4.7063,-4.8277,-4.8179,-4.67,-4.5342,-4.4613,-4.3996,-4.3499,0.0,0.0,0.0,-4.6468,-4.7205,-4.7963,-4.8721,-4.9287,-4.9489,-4.9101,-4.8601,-4.7988,-4.7378,-4.554,-4.4739,-4.4642,-4.2657,-4.1673,-4.1811,-4.0605,-4.0054,-4.0008,-3.9193,-3.8746,-3.8678,-3.8891,-4.0134,-4.1802,-4.1939,-4.3052,-4.4508,-4.386,-4.3074,-4.2275,0.0,0.0,0.0,0.0,0.0,0.0,0.0,0.0,0.0,0.0,0.0,0.0,0.0,0.0,0.0,0.0,0.0,0.0,0.0,0.0,0.0,-2.8436,-2.7602,-2.758,-2.8545,-2.86,-2.9786,-3.2231,-3.3807,-3.593,-3.8536,-4.0921,-4.2613,-4.3753,-4.5733,-4.6644,-4.6699,-4.6738,-4.6344,-4.5707,-4.5625,-4.4549,-4.3017,-4.2947,0.0,0.0,0.0,0.0,0.0,0.0,-4.0699,-4.0773,-4.0787,-4.0812,-4.1016,-4.1867,-4.3226,-4.4989,-4.7548,-4.9235,-5.0497,-5.1295,-5.1313,-5.0818,-4.9619,-4.9641,-4.9612,-4.844,-4.6893,-4.5644,0.0,0.0,-4.3732,-4.3764,-4.4536,-4.5175,-4.5094,-4.3753,-4.3065,0.0,0.0,0.0,0.0,0.0,0.0,-4.6434,0.0,-4.8003,-4.8172,-4.7782,-4.7496,-4.758,-4.6648,-4.5379,-4.3814,-4.4362,-4.3992,-4.3005,-4.2006,-4.1776,-4.2178,-4.0686,-4.002,-3.9985,-3.9492,-3.8998,-3.8539,-3.8516,-4.0198,-4.2644,-4.1476,-4.3158,-4.5943,-4.4234,-4.3341,-4.279,0.0,0.0,0.0,0.0,0.0,0.0,0.0,0.0,0.0,0.0,0.0,0.0,0.0,0.0,0.0,0.0,0.0,0.0,0.0,0.0,0.0,0.0,0.0,0.0,0.0,0.0,0.0,0.0,0.0,-3.5111,-3.6851,-3.8977,-4.0106,0.0,-4.1979,-4.3129,-4.3967,-4.4604,-4.5228,-4.5679,0.0,-4.3704,-4.3102,0.0,0.0,0.0,0.0,0.0,0.0,0.0,-4.0652,-4.181,-4.1816,-4.2228,-4.3009,-4.4436,-4.552,-4.6797,-4.9336,-5.0739,-5.1483,-5.1476,-5.1438,-5.0888,-4.8859,-4.8059,-4.7361,-4.6123,-4.4339,-4.2869,-4.2493,0.0,0.0,-4.3615,-4.6344,0.0,-4.6717,-4.605,0.0,-4.3678,-4.4258,-4.4611,-4.4277,-4.538,0.0,0.0,-4.5808,-4.6088,-4.6917,-4.7032,-4.6873,-4.6439,-4.5548,-4.4671,-4.3814,-4.3177,-4.2557,-4.1948,-4.1317,-4.0881,-4.0605,-3.9848,-3.9492,-3.9469,-3.8987,-3.847,-3.7965,-3.7586,-3.8256,-3.9519,-4.0261,-4.1655,-4.3504,-4.401,-4.3642,-4.2887,0.0,0.0,0.0,0.0,0.0,0.0,0.0,0.0,0.0,0.0,0.0,0.0,0.0,0.0,0.0,0.0,0.0,0.0,0.0,0.0,0.0,0.0,0.0,0.0,0.0,0.0,0.0,0.0,0.0,0.0,0.0,-3.6817,-3.8014,-3.8775,-4.0178,-4.1187,-4.1892,0.0,0.0,0.0,0.0,0.0,0.0,0.0,0.0,0.0,0.0,0.0,0.0,0.0,0.0,-4.3518,-4.4286,-4.4781,-4.5409,-4.7101,-4.7792,-4.8471,-5.0644,-5.1837,-5.2431,-5.2286,-5.1954,-5.1094,-4.8832,-4.7729,-4.6581,-4.4556,-4.3053,-4.1886,-4.1278,-4.1853,-4.2425,0.0,0.0,0.0,-4.5768,-4.4918,-4.4296,0.0,-4.4414,-4.4569,-4.4523,-4.5686,-4.6222,0.0,-4.5385,-4.5348,-4.5972,-4.5723,-4.5518,-4.5445,-4.4235,-4.3482,-4.32,-4.2581,-4.2075,-4.157,-4.1065,-4.0548,-4.0043,-3.9538,-3.9308,-3.9274,0.0,-3.8413,-3.8103,-3.7575,-3.8037,-3.9312,-4.0297,-4.1445,-4.2767,-4.401,-4.3642,-4.2582,0.0,0.0,0.0,0.0,0.0,0.0,0.0,0.0,0.0,0.0,0.0,0.0,0.0,0.0,0.0,0.0,0.0,0.0,0.0,0.0,0.0,0.0,0.0,0.0,0.0,0.0,0.0,0.0,0.0,0.0,0.0,0.0,0.0,0.0,0.0,0.0,0.0,0.0,0.0,0.0,0.0,0.0,0.0,0.0,0.0,0.0,0.0,0.0,0.0,0.0,-4.4569,-4.5526,-4.7162,-4.7626,-4.7897,-4.9637,-4.9799,-4.9817,-5.1587,-5.2549,-5.3068,-5.3164,-5.2528,-5.125,-4.896,-4.777,-4.6285,-4.3324,-4.2262,-4.165,-4.0933,-4.0754,-4.0757,-4.1049,0.0,-4.224,-4.4057,-4.2653,-4.2365,-4.4799,-4.4434,-4.426,-4.4741,-4.5404,-4.5856,-4.6003,-4.5219,-4.4902,-4.5245,-4.4254,-4.3907,-4.4227,-4.3066,-4.2339,-4.2339,-4.2339,-4.2086,-4.1694,-4.1065,-4.0548,-4.0163,-3.9656,-3.9274,-3.9299,0.0,0.0,-3.8459,-3.7873,-3.8606,-4.0094,-4.0673,-4.1645,-4.2958,-4.3917,-4.3437,-4.2275,0.0,0.0,0.0,0.0,0.0,0.0,0.0,0.0,0.0,0.0,-3.574,-3.6297,0.0,0.0,0.0,0.0,0.0,0.0,0.0,0.0,0.0,0.0,0.0,0.0,0.0,0.0,0.0,0.0,0.0,0.0,0.0,0.0,0.0,0.0,0.0,0.0,0.0,0.0,0.0,0.0,0.0,0.0,0.0,0.0,0.0,0.0,0.0,0.0,0.0,0.0,-4.6288,-4.7235,-4.8244,-4.8964,-4.9741,-5.1392,-5.0768,-5.0069,-5.2338,-5.2568,-5.2299,-5.3029,-5.2363,-5.0856,-4.8213,-4.6354,-4.4417,-4.1736,-4.0634,-4.0066,-3.9795,-4.024,-4.0963,-4.1952,-4.2442,-4.32,-4.4778,-4.3895,-4.3333,0.0,-4.4531,-4.494,-4.5788,-4.5342,0.0,0.0,0.0,-4.3118,-4.5167,-4.4325,-4.347,-4.2743,-4.2385,-4.2339,-4.2339,-4.2339,-4.2213,-4.1943,-4.1188,-4.067,-4.0391,-3.9905,-3.9441,-3.9013,0.0,0.0,-3.7657,-3.7319,-3.7437,-3.8083,-3.9345,-4.0644,-4.1948,-4.3245,-4.3341,-4.279,0.0,0.0,0.0,0.0,0.0,0.0,0.0,0.0,-3.3787,-3.5304,-3.6155,-3.6479,-3.6161,-3.6407,0.0,0.0,0.0,0.0,0.0,0.0,0.0,0.0,0.0,0.0,0.0,0.0,-2.6202,-2.7306,0.0,0.0,0.0,0.0,0.0,0.0,0.0,0.0,0.0,0.0,0.0,0.0,0.0,0.0,0.0,0.0,0.0,0.0,0.0,0.0,0.0,0.0,-4.5687,-4.7245,-4.996,-5.0712,-5.0906,-5.2591,-5.1418,-5.0024,-5.2084,-5.1973,-5.1587,-5.2876,-5.1794,-4.9879,-4.7862,-4.5813,-4.354,-4.0704,-3.9833,-3.9556,-3.9439,-3.9589,-3.9876,-4.0169,-4.0606,-4.1331,-4.2667,-4.2578,-4.2874,-4.4354,-4.4516,-4.4678,-4.4909,-4.4396,-4.4184,-4.4161,0.0,-4.2766,-4.4393,-4.3828,-4.3096,-4.2362,-4.2201,-4.2188,-4.2188,-4.2059,-4.1912,-4.1497,-4.1131,-4.0746,-4.0363,-4.0118,-3.9732,-3.923,-3.8847,0.0,-3.749,-3.6858,-3.7126,-3.7844,-3.9092,-4.0224,-4.1259,-4.2652,-4.2763,-4.2105,0.0,0.0,0.0,0.0,0.0,0.0,0.0,-3.2952,-3.4082,-3.5835,-3.6474,-3.6839,-3.6997,-3.6826,-3.6331,0.0,0.0,0.0,0.0,0.0,0.0,0.0,0.0,0.0,0.0,0.0,0.0,-2.7358,-2.8285,0.0,0.0,0.0,0.0,0.0,-3.2161,0.0,0.0,0.0,0.0,0.0,0.0,0.0,0.0,0.0,0.0,0.0,0.0,0.0,0.0,0.0,-4.4473,-4.6254,-5.0092,-5.1015,-5.1025,-5.2745,-5.1536,-5.0012,-5.166,-5.1561,-5.1356,-5.2818,-5.1334,-4.9116,-4.7729,-4.5536,-4.2959,-3.999,-3.9427,-3.932,-3.9007,-3.862,-3.8203,-3.7798,-3.7729,-3.8232,-3.9878,-4.0538,-4.1694,-4.3907,-4.4243,0.0,-4.3928,-4.3658,0.0,0.0,0.0,0.0,-4.3292,-4.2867,-4.2465,-4.2305,-4.2047,-4.1951,-4.2067,-4.1935,-4.1539,-4.1129,-4.0999,-4.0669,-4.0174,-4.0174,-3.9844,-3.9243,-3.8494,0.0,0.0,-3.6668,-3.7012,-3.8291,-3.9104,-4.0045,-4.0997,-4.2289,-4.2302,-4.171,0.0,0.0,0.0,0.0,0.0,0.0,0.0,-3.3557,-3.4848,-3.6423,-3.7048,-3.7419,-3.7689,-3.7095,-3.6318,0.0,0.0,0.0,0.0,0.0,0.0,0.0,0.0,0.0,0.0,0.0,0.0,-2.8279,-2.9198,0.0,0.0,0.0,0.0,0.0,0.0,-3.2892,0.0,0.0,0.0,0.0,0.0,0.0,0.0,0.0,0.0,0.0,0.0,0.0,0.0,0.0,0.0,-4.4257,-4.619,-4.7826,-4.9337,-5.0952,-5.0708,-5.0199,-5.1683,-5.205,-5.2174,-5.2993,-5.1457,-4.9366,-4.777,-4.5164,-4.2315,-3.9602,-3.9137,-3.8924,-3.795,-3.6962,-3.6258,-3.6228,-3.464,-3.4548,-3.7754,-3.8705,-3.9925,-4.2603,0.0,0.0,-4.4298,-4.3473,0.0,0.0,0.0,0.0,-4.1776,-4.1306,-4.1337,-4.2114,-4.1626,-4.1714,-4.2427,-4.2056,-4.1671,-4.1507,-4.1129,-4.0587,-3.9974,-3.9974,-3.9315,-3.8378,-3.8111,0.0,0.0,-3.6506,-3.7215,-3.8699,-3.8792,-4.0134,-4.198,-4.2079,-4.2387,-4.279,0.0,0.0,0.0,0.0,0.0,0.0,-3.257,-3.3314,-3.4493,-3.6447,-3.6663,-3.6912,-3.7713,-3.718,-3.6443,0.0,0.0,0.0,0.0,0.0,0.0,0.0,0.0,0.0,0.0,0.0,-2.8233,-2.8528,-2.9492,0.0,0.0,0.0,0.0,0.0,0.0,-3.2959,-3.361,0.0,0.0,0.0,0.0,0.0,0.0,0.0,0.0,0.0,0.0,0.0,-4.0866,-4.171,-4.1933,-4.201,-4.2763,-4.3797,0.0,0.0,-4.949,-4.9612,-5.1671,-5.255,-5.3005,-5.3536,-5.1109,-4.8294,-4.7155,-4.413,-4.0933,-3.8781,-3.8264,-3.7914,-3.6816,-3.5608,-3.4592,-3.4218,-3.2538,0.0,-3.4283,-3.5223,-3.7047,-4.0492,-4.2453,0.0,0.0,0.0,-4.2541,0.0,0.0,0.0,-4.0203,-4.0594,-4.1027,-4.1591,-4.1333,-4.141,-4.1874,-4.1603,-4.1363,-4.1265,-4.1136,-4.0755,-4.0153,-4.0153,-3.9579,-3.8586,-3.8369,0.0,0.0,-3.67,-3.7631,-3.9299,-3.9299,-4.0427,-4.2079,-4.2079,-4.1993,-4.2007,0.0,0.0,0.0,0.0,0.0,-3.2582,-3.3039,-3.3849,-3.4929,-3.6393,-3.6614,-3.6881,-3.7536,-3.7315,-3.6793,-3.6033,0.0,0.0,0.0,0.0,0.0,0.0,0.0,0.0,0.0,0.0,-2.9059,-2.9273,-3.0224,-3.1072,0.0,0.0,-3.2765,-3.2916,0.0,0.0,0.0,0.0,0.0,0.0,0.0,0.0,0.0,0.0,0.0,0.0,0.0,0.0,0.0,0.0,0.0,-4.0455,-4.057,0.0,0.0,0.0,-4.7697,-4.8652,-5.0507,-5.1927,-5.2916,-5.2984,-5.0088,-4.6989,-4.6109,-4.278,-3.9393,-3.7648,-3.7183,-3.6732,-3.5545,-3.4397,-3.325,-3.2273,0.0,-3.0388,-3.1667,-3.292,-3.5011,-3.8512,0.0,-4.2087,0.0,-4.2969,0.0,0.0,0.0,0.0,0.0,-4.0117,-4.0687,-4.1178,-4.1046,-4.1094,-4.1625,-4.1333,-4.1184,-4.1184,-4.1028,-4.0667,-4.0162,-4.0006,-3.9429,-3.8575,0.0,0.0,0.0,-3.6916,-3.7844,-3.9506,-3.9506,-4.044,-4.1881,-4.1881,-4.1796,-4.1809,0.0,0.0,0.0,0.0,0.0,0.0,0.0,-3.558,-3.6644,-3.636,-3.7219,-3.7723,-3.7265,-3.7563,-3.7475,-3.6652,0.0,0.0,0.0,0.0,0.0,0.0,0.0,0.0,0.0,0.0,-3.0437,-3.0785,-3.1672,-3.2161,-3.2301,-3.3195,-3.3443,-3.3194,0.0,0.0,0.0,0.0,0.0,0.0,0.0,0.0,0.0,0.0,0.0,0.0,0.0,0.0,0.0,0.0,0.0,0.0,0.0,0.0,0.0,0.0,-4.5182,-4.7326,-4.7808,-4.9798,-5.1538,-5.0837,-4.8258,-4.5611,-4.447,-4.1087,-3.776,-3.6153,-3.583,-3.5436,-3.4048,-3.3324,-3.2302,-3.0508,-2.9652,0.0,-3.053,-3.2248,-3.4272,0.0,0.0,-3.9101,-4.0881,-4.0924,0.0,0.0,0.0,0.0,0.0,-3.9814,-4.0164,-4.0987,-4.0763,-4.1101,-4.1966,-4.1449,-4.1184,-4.1172,-4.0655,-4.0126,-3.9597,-3.9068,-3.8527,0.0,0.0,0.0,0.0,-3.7251,-3.7974,-3.9221,-3.9221,-4.0058,-4.1311,-4.1311,-4.2007,-4.2887,0.0,0.0,0.0,0.0,0.0,0.0,0.0,-3.5571,-3.6024,-3.5729,-3.5495,-3.5578,-3.6179,-3.6082,-3.6147,-3.6632,0.0,0.0,0.0,0.0,0.0,0.0,0.0,0.0,0.0,0.0,-3.2206,-3.3055,-3.2934,-3.3427,-3.4558,-3.4079,-3.4209,-3.477,-3.5032,-3.5207,0.0,0.0,0.0,0.0,0.0,0.0,0.0,0.0,0.0,0.0,0.0,0.0,0.0,0.0,0.0,0.0,0.0,0.0,0.0,-3.8973,-4.1708,-4.4689,-4.5658,-4.6448,-4.6791,-4.5993,-4.349,-4.0971,-4.022,-3.7701,-3.5291,-3.4428,-3.4154,-3.3779,-3.2811,-3.1782,-3.0964,-3.0722,-2.9404,-2.8851,0.0,0.0,0.0,-3.7643,-4.088,-4.2767,0.0,0.0,0.0,0.0,0.0,0.0,0.0,-4.0025,-4.0317,-4.0727,-4.069,-4.0922,-4.1437,-4.1268,-4.1004,-4.0643,-4.0475,-3.9934,-3.9068,-3.89,0.0,0.0,0.0,0.0,0.0,-3.7489,-3.8384,-3.9802,-3.9802,-4.0642,-4.1881,-4.2289,-4.2387,-4.2471,0.0,0.0,0.0,0.0,0.0,0.0,0.0,-3.6109,-3.6665,-3.6554,-3.5518,-3.4931,-3.5274,-3.5116,-3.5543,-3.6881,0.0,0.0,0.0,0.0,0.0,0.0,0.0,0.0,0.0,-3.2601,-3.3414,-3.3954,-3.4271,-3.4814,-3.5572,-3.56,-3.5892,-3.6368,-3.6155,-3.614,0.0,0.0,0.0,0.0,0.0,0.0,-4.0454,0.0,0.0,0.0,0.0,0.0,0.0,0.0,0.0,0.0,0.0,0.0,0.0,0.0,-3.7184,-3.9447,-4.1581,-4.2426,-4.2454,-4.1548,-3.9294,-3.7259,-3.6995,-3.5129,-3.3365,-3.3002,-3.2822,-3.244,-3.1499,-3.0672,-3.0086,-2.991,-2.8924,-2.8678,0.0,0.0,0.0,-3.7798,0.0,0.0,0.0,0.0,0.0,0.0,0.0,0.0,0.0,-3.9942,-4.0278,-4.0838,-4.0838,-4.0954,-4.1184,-4.1184,-4.1016,-4.0691,-4.0282,-3.9753,-3.9104,-3.8695,0.0,0.0,0.0,0.0,0.0,-3.801,-3.8828,-3.993,-4.0122,-4.0945,-4.2177,-4.2484,-4.2666,-4.2749,0.0,0.0,0.0,0.0,0.0,0.0,0.0,0.0,-3.8316,-3.8383,-3.6833,-3.5446,-3.467,-3.4722,-3.5533,-3.7337,0.0,0.0,0.0,0.0,0.0,0.0,0.0,0.0,0.0,-3.4017,-3.4216,-3.3902,-3.5565,-3.6121,-3.5661,-3.7382,-3.8028,-3.7666,-3.6931,-3.6754,-3.7055,-3.7128,-3.8141,-3.9687,-3.9652,-3.9956,0.0,0.0,0.0,0.0,0.0,0.0,0.0,0.0,0.0,0.0,0.0,0.0,0.0,0.0,0.0,0.0,0.0,-3.7604,-3.8246,-3.7166,-3.5451,-3.4166,-3.4583,-3.3246,0.0,-3.1744,-3.1778,-3.1398,-3.0189,-2.996,-2.9599,-2.8467,-2.8298,-2.8964,0.0,-3.2252,0.0,0.0,-3.951,0.0,0.0,0.0,0.0,0.0,0.0,0.0,0.0,-3.9741,-4.0038,-4.1052,-4.11,-4.1148,-4.1184,-4.1148,-4.11,-4.1052,-4.0042,-3.9525,-3.9453,-3.8443,0.0,0.0,0.0,0.0,0.0,-3.8619,-3.9154,-3.98,-4.03,-4.1198,-4.2079,-4.2177,-4.2749,-4.36,0.0,0.0,0.0,0.0,0.0,0.0,0.0,0.0,0.0,0.0,-3.646,-3.5206,-3.5477,-3.5131,-3.5553,0.0,0.0,0.0,0.0,0.0,0.0,0.0,0.0,0.0,0.0,-3.4353,-3.522,-3.5695,-3.5965,-3.6306,-3.6732,-3.703,-3.7004,-3.6742,-3.7318,-3.789,-3.8443,-3.8721,-3.9101,-3.959,-4.002,-4.0207,0.0,0.0,0.0,0.0,-3.4807,-3.3269,0.0,0.0,0.0,0.0,0.0,0.0,0.0,0.0,-2.8962,-2.8848,-2.9146,0.0,-3.1657,-3.116,-3.0347,-2.9767,0.0,-3.021,-3.0069,-3.0258,-3.0495,-3.0553,-2.9997,-2.9809,-2.9544,-2.8891,-2.9019,-2.9741,-3.1384,-3.5598,0.0,-4.1285,-4.2782,-4.2761,0.0,0.0,0.0,0.0,0.0,0.0,0.0,-3.9758,-3.9908,-3.9982,-4.0367,-4.0775,-4.1184,-4.0775,-4.0379,-3.997,-3.9308,-3.8779,-3.8359,-3.8094,0.0,0.0,0.0,0.0,-3.808,-3.9,-3.9544,-3.9788,-4.0782,-4.1471,-4.2177,-4.2582,-4.3053,-4.36,0.0,0.0,0.0,0.0,0.0,0.0,0.0,0.0,0.0,0.0,0.0,0.0,0.0,0.0,0.0,0.0,0.0,0.0,0.0,0.0,0.0,0.0,0.0,0.0,-3.434,-3.5048,-3.5641,-3.607,-3.5931,-3.6079,-3.6505,-3.6425,-3.6445,-3.6557,-3.7175,-3.7839,-3.8473,-3.8247,-3.8814,-3.985,-3.9783,0.0,0.0,0.0,0.0,0.0,-3.3999,-3.1997,0.0,-2.9968,-2.9086,-2.7862,0.0,0.0,0.0,0.0,-2.6598,-2.6639,-2.6315,-2.7491,-2.8742,-2.8328,-2.8125,-2.8188,-2.8836,-2.9074,-2.9349,-2.964,-3.0094,-3.0253,-2.9809,-2.9848,-2.9682,-2.8911,-2.9619,0.0,0.0,0.0,-4.08,-4.2868,-4.3056,0.0,0.0,0.0,0.0,0.0,0.0,0.0,0.0,-3.9361,-3.9439,-3.9609,-3.9645,-3.9922,-4.0451,-4.0415,-4.0126,-3.9597,-3.9068,-3.8659,-3.8359,-3.8094,-3.7986,0.0,0.0,0.0,-3.8792,-3.9609,-4.0236,-4.0844,-4.1367,-4.1944,-4.2343,-4.2453,-4.274,-4.3227,0.0,0.0,0.0,0.0,0.0,0.0,0.0,0.0,0.0,0.0,0.0,0.0,0.0,0.0,0.0,0.0,0.0,0.0,0.0,0.0,0.0,0.0,0.0,-3.588,-3.5875,-3.5722,-3.5646,-3.5675,-3.556,-3.5453,-3.534,-3.5548,-3.5936,-3.649,-3.6644,-3.7192,-3.7872,-3.7209,-3.8131,-3.9961,-3.9272,0.0,0.0,0.0,0.0,0.0,0.0,0.0,0.0,-2.7157,-2.6058,-2.4826,-2.4482,0.0,0.0,0.0,0.0,0.0,-2.5686,-2.6908,-2.7975,-2.7293,-2.7498,-2.8004,-2.8674,-2.8923,-2.9088,-2.9593,-3.0001,-3.0179,-2.9685,-3.0009,0.0,0.0,0.0,0.0,-3.6661,-3.8799,-4.0908,-4.3132,0.0,0.0,0.0,0.0,0.0,0.0,0.0,0.0,0.0,-3.8883,-3.89,-3.9259,-3.9008,-3.8996,-3.9357,-3.9886,-3.9934,-3.9477,-3.8948,-3.8695,-3.8671,-3.8202,-3.7986,0.0,0.0,0.0,-3.9597,-4.0122,-4.0989,-4.1839,-4.1855,-4.2191,-4.2471,-4.2004,-4.2098,-4.254,0.0,0.0,0.0,0.0,0.0,0.0,0.0,0.0,0.0,0.0,0.0,0.0,0.0,0.0,0.0,0.0,0.0,0.0,0.0,0.0,0.0,0.0,-3.5781,-3.5786,-3.5722,-3.5498,-3.5271,-3.5115,-3.4828,-3.4133,-3.3102,-3.4037,-3.4786,-3.5469,-3.5876,-3.6595,-3.7511,-3.7893,-3.8302,-3.8692,-3.8842,0.0,0.0,0.0,0.0,0.0,0.0,0.0,0.0,-2.2196,-2.286,-2.3385,-2.2456,0.0,0.0,0.0,0.0,0.0,-2.5611,-2.7227,-2.8336,-2.7012,-2.7026,-2.7509,-2.8008,-2.8445,-2.8896,-2.9431,-2.9935,-3.0191,-3.0101,-3.0537,-3.0928,0.0,0.0,-3.692,0.0,0.0,-4.2423,0.0,0.0,0.0,0.0,0.0,0.0,0.0,0.0,0.0,0.0,-3.8441,-3.8297,-3.7965,-3.8515,-3.8623,-3.8238,-3.8779,-3.902,-3.8936,-3.8383,-3.8106,-3.8106,-3.8022,-3.7986,0.0,0.0,-3.8594,-3.9674,-4.0102,-4.0696,-4.1239,-4.1701,-4.1851,-4.1851,-4.139,-4.1575,-4.1782,0.0,0.0,0.0,0.0,0.0,0.0,0.0,0.0,0.0,0.0,0.0,0.0,0.0,0.0,0.0,0.0,0.0,0.0,0.0,0.0,0.0,-3.6313,-3.5804,-3.5525,-3.548,-3.5154,-3.4775,-3.4357,-3.3455,-3.2702,-3.2187,-3.2898,-3.3444,-3.3893,-3.4848,-3.5864,-3.6882,-3.7164,-3.7608,-3.8154,0.0,0.0,0.0,0.0,0.0,0.0,0.0,0.0,0.0,0.0,-1.808,-1.9406,-2.0527,0.0,0.0,0.0,0.0,0.0,-2.6685,-2.7816,-2.8638,-2.7591,-2.8107,-2.8865,-2.8779,-2.9194,-2.9566,-2.985,-3.0296,-3.0732,0.0,0.0,-3.2863,-3.4795,0.0,-3.8788,-4.0449,-4.1717,-4.2447,0.0,0.0,0.0,0.0,0.0,0.0,0.0,0.0,0.0,0.0,0.0,-3.7816,-3.7619,-3.7941,-3.7905,-3.7565,-3.8094,-3.8371,-3.8359,-3.8106,-3.7829,-3.7553,-3.7553,-3.7397,-3.7144,0.0,-3.8465,-4.004,-4.0179,-4.1146,-4.2326,-4.1862,-4.168,-4.1577,-4.0841,-4.0599,-4.0428,0.0,0.0,0.0,0.0,0.0,0.0,0.0,0.0,0.0,0.0,0.0,0.0,0.0,0.0,0.0,0.0,0.0,0.0,0.0,0.0,-3.6378,-3.6298,-3.5405,-3.496,-3.5085,-3.4527,-3.3853,-3.3058,-3.186,-3.1331,-3.1347,-3.1591,-3.2035,-3.2635,-3.3826,-3.5023,-3.613,-3.6316,-3.6773,-3.7435,0.0,0.0,0.0,0.0,0.0,0.0,0.0,0.0,0.0,0.0,0.0,0.0,0.0,0.0,0.0,-2.5416,-2.6726,-2.773,-2.8238,-2.8716,-2.9051,-2.8411,-2.9109,-2.988,-2.9969,-2.9991,-3.0072,-3.0706,-3.1117,-3.1479,0.0,-3.3009,0.0,-3.7903,-3.9202,-4.0308,-4.1375,0.0,0.0,0.0,0.0,0.0,0.0,0.0,0.0,0.0,0.0,0.0,0.0,0.0,-3.7411,-3.7323,-3.7405,-3.7355,-3.7012,-3.7409,-3.7613,-3.7613,-3.7733,-3.7517,-3.7012,-3.7012,-3.6795,-3.6423,-3.6831,-3.8189,-4.0161,-3.9836,-4.0937,-4.2768,-4.156,-4.0952,-4.0775,-4.0033,-3.9535,-3.9141,0.0,0.0,0.0,0.0,0.0,0.0,0.0,0.0,0.0,0.0,0.0,0.0,0.0,0.0,0.0,0.0,0.0,0.0,0.0,0.0,-3.5158,-3.4763,-3.4083,-3.3954,-3.4433,-3.3387,-3.2209,-3.0937,-3.0391,-3.0082,-2.9999,-2.9769,-3.0533,-3.2266,-3.3048,-3.4107,-3.5345,-3.6028,-3.6156,-3.5994,-3.6347,0.0,0.0,0.0,0.0,0.0,0.0,0.0,0.0,0.0,0.0,0.0,0.0,0.0,-2.3956,-2.6418,-2.7608,-2.8431,-3.0244,-3.0225,-2.96,-2.9572,-2.9206,-2.9332,-3.1096,-3.0264,-2.9724,-3.2133,-3.2626,-3.2528,0.0,-3.4323,-3.6732,-3.8424,-4.0493,-4.2339,0.0,0.0,0.0,0.0,0.0,0.0,0.0,0.0,0.0,0.0,0.0,0.0,0.0,0.0,0.0,-3.6473,-3.6951,-3.7,-3.6471,-3.6507,-3.6519,-3.6519,-3.7012,-3.6976,-3.6459,-3.6459,-3.6447,-3.6411,-3.6447,-3.763,-3.9451,-3.8466,-3.9269,-4.0976,-3.9885,-3.9195,-3.8836,-3.8746,-3.8423,-3.8018,0.0,0.0,0.0,0.0,0.0,0.0,0.0,0.0,0.0,0.0,0.0,0.0,0.0,0.0,0.0,0.0,0.0,0.0,0.0,0.0,-3.4318,-3.3872,-3.249,-3.153,-3.1062,-3.0549,-2.9874,-2.9099,-2.9202,-2.9674,-3.0412,-3.1099,-3.189,-3.2714,-3.373,-3.4442,-3.4913,-3.5195,-3.5362,-3.5391,-3.5199,-3.507,0.0,0.0,0.0,0.0,0.0,0.0,0.0,0.0,-0.8281,-1.2574,0.0,-2.168,-2.5295,-2.7944,-2.9783,-3.0983,-3.1117,-3.1258,-3.1124,-2.9904,-2.9613,-2.9895,-3.0708,-3.0852,-3.087,-3.1598,-3.2274,-3.2969,0.0,0.0,-3.6838,-3.8259,-4.06,-4.2268,0.0,0.0,0.0,0.0,0.0,0.0,0.0,0.0,0.0,0.0,0.0,0.0,0.0,0.0,0.0,-3.6403,-3.6466,-3.6243,-3.5918,-3.6242,-3.6074,-3.5437,-3.629,-3.6423,-3.5918,-3.5918,-3.5737,-3.5437,-3.5773,-3.7059,-3.8945,-3.8208,-3.9057,-4.0749,-3.9714,-3.9038,-3.8602,-3.8602,-3.8344,-3.79,0.0,0.0,0.0,0.0,0.0,0.0,0.0,0.0,0.0,0.0,0.0,0.0,0.0,0.0,0.0,0.0,0.0,0.0,-3.4263,-3.3655,-3.2999,-3.221,-3.0515,-2.9067,-2.7869,-2.7249,-2.706,-2.7273,-2.8074,-2.917,-3.0602,-3.1582,-3.236,-3.2898,-3.3612,-3.4023,-3.4087,-3.4268,-3.4137,-3.3809,-3.384,-3.3639,0.0,0.0,0.0,0.0,0.0,0.0,0.0,0.0,-0.8294,0.0,0.0,0.0,-2.6535,-2.9378,-3.1249,-3.2318,-3.1915,-3.1772,-3.1452,-3.039,-3.0023,-3.0044,-3.0674,-3.1034,-3.1406,-3.1704,-3.2039,-3.2723,-3.398,0.0,0.0,0.0,-3.9557,0.0,0.0,0.0,0.0,0.0,0.0,0.0,0.0,0.0,0.0,0.0,0.0,0.0,0.0,0.0,0.0,0.0,-3.6411,-3.6181,-3.5844,-3.5656,-3.5292,-3.4583,-3.5148,-3.5316,-3.5112,-3.5112,-3.4835,-3.4366,-3.5175,-3.6513,-3.8175,-3.7751,-3.8425,-3.959,-3.9029,-3.8452,-3.7904,-3.8198,-3.8043,-3.7625,0.0,0.0,0.0,0.0,0.0,0.0,0.0,0.0,0.0,0.0,0.0,0.0,0.0,0.0,0.0,0.0,0.0,0.0,-3.3246,-3.2247,-3.1011,-2.9533,-2.8165,-2.6777,-2.5324,-2.3688,-2.3685,-2.5394,-2.6947,-2.8627,-3.0395,-3.0533,-3.1282,-3.2588,-3.2374,-3.244,-3.2819,-3.33,-3.2438,-3.0932,-3.2331,-3.2244,-3.1142,0.0,0.0,0.0,0.0,0.0,0.0,0.0,-1.0701,-1.4408,0.0,0.0,0.0,-3.065,-3.1702,-3.2015,-3.2946,-3.1615,-3.0131,-3.1137,-3.0283,-2.961,-3.1241,-3.0843,-3.072,-3.2966,-3.2251,-3.1968,-3.4003,-3.3905,0.0,-3.5919,0.0,0.0,0.0,0.0,0.0,0.0,0.0,0.0,0.0,0.0,0.0,0.0,0.0,0.0,0.0,0.0,0.0,0.0,-3.7107,-3.6872,-3.632,-3.4759,-3.4042,-3.403,-3.3525,-3.3549,-3.403,-3.403,-3.3765,-3.3413,-3.4817,-3.6016,-3.6996,-3.6946,-3.6972,-3.7063,-3.7652,-3.7155,-3.624,-3.7442,-3.7508,-3.6998,0.0,0.0,0.0,0.0,0.0,0.0,0.0,0.0,0.0,0.0,0.0,0.0,0.0,0.0,0.0,0.0,0.0,0.0,-3.1747,-3.052,-2.9221,-2.7814,-2.5654,-2.4253,-2.3677,-2.295,-2.3106,-2.4177,-2.577,-2.7644,-2.9923,-3.0258,-3.0779,-3.1354,-3.168,-3.1151,-3.0031,-3.0906,-3.0867,-3.0283,-3.0809,-3.082,-3.0415,0.0,0.0,0.0,0.0,0.0,0.0,0.0,0.0,0.0,0.0,0.0,0.0,-3.1856,-3.3024,-3.3051,-3.2422,-3.2085,-3.183,-3.1761,-3.0967,-3.0413,-3.1485,-3.0737,-3.0393,-3.1678,-3.1495,-3.1351,-3.2819,-3.292,0.0,0.0,0.0,0.0,0.0,0.0,0.0,0.0,0.0,0.0,0.0,0.0,0.0,0.0,0.0,0.0,0.0,0.0,0.0,0.0,-3.7204,-3.7516,-3.7348,-3.5873,-3.504,-3.5028,-3.3509,-3.3008,-3.3513,-3.3513,-3.3428,-3.3389,-3.4421,-3.5659,-3.7085,-3.7643,-3.7595,-3.6985,-3.6737,-3.6423,-3.6149,-3.6502,-3.6528,-3.6371,0.0,0.0,0.0,0.0,0.0,0.0,0.0,0.0,0.0,0.0,0.0,0.0,0.0,0.0,0.0,0.0,0.0,0.0,0.0,0.0,-2.6958,-2.5427,-2.3554,-2.2512,-2.2537,-2.2402,-2.2615,-2.3176,-2.459,-2.6451,-2.8519,-2.8474,-2.8799,-2.9487,-2.9519,-2.885,-2.7766,-2.8579,-2.8581,-2.8046,-2.8995,-2.9374,-2.9308,0.0,0.0,0.0,0.0,0.0,0.0,0.0,0.0,0.0,0.0,0.0,-2.9245,-3.1748,-3.2738,-3.28,-3.1557,-3.1487,-3.1614,-3.1281,-3.1199,-3.104,-3.0575,-3.0087,-3.0033,-3.1341,-3.0791,-3.0538,-3.2166,-3.2269,0.0,0.0,0.0,0.0,0.0,0.0,0.0,0.0,0.0,0.0,0.0,0.0,0.0,0.0,0.0,0.0,0.0,0.0,0.0,0.0,-3.7848,-3.7997,-3.7997,-3.6199,-3.5199,-3.4839,-3.3128,-3.2354,-3.2346,-3.2779,-3.2851,-3.275,-3.4248,-3.5665,-3.6877,-3.7736,-3.7377,-3.6305,-3.6162,-3.5822,-3.5482,-3.5926,-3.5966,-3.5783,0.0,0.0,0.0,0.0,0.0,0.0,0.0,0.0,0.0,0.0,0.0,0.0,0.0,0.0,0.0,0.0,0.0,0.0,0.0,0.0,-2.4449,-2.2842,-2.1987,-2.1603,-2.1795,-2.2136,-2.2338,-2.2478,-2.3616,-2.4948,-2.6413,-2.5663,-2.5997,-2.7118,-2.648,-2.6027,-2.577,-2.6371,-2.5925,-2.5009,-2.7179,-2.804,-2.8024,-2.8363,0.0,0.0,0.0,0.0,0.0,0.0,0.0,0.0,-2.6983,-2.8617,-2.9885,-3.093,-3.1514,-3.155,-3.0445,-3.0335,-3.0479,-3.03,-3.116,-3.1496,-2.9273,-2.8841,-2.9307,-3.11,0.0,-2.9483,-3.1869,-3.1764,0.0,0.0,0.0,0.0,0.0,0.0,0.0,0.0,0.0,0.0,0.0,0.0,0.0,0.0,0.0,0.0,0.0,0.0,0.0,0.0,-3.8715,-3.8333,-3.8333,-3.6207,-3.4813,0.0,-3.2739,-3.1744,-3.105,-3.1925,-3.2183,-3.2025,-3.435,-3.5814,-3.6715,-3.7189,-3.6588,-3.5424,-3.577,-3.5312,-3.4528,-3.5561,-3.5639,-3.5221,0.0,0.0,0.0,0.0,0.0,0.0,0.0,0.0,0.0,0.0,0.0,0.0,0.0,0.0,0.0,0.0,0.0,0.0,0.0,0.0,-2.3103,-2.1777,-2.1659,-2.1776,-2.1955,-2.2777,-2.3026,-2.2883,-2.3229,-2.3731,-2.4343,-2.4723,-2.4701,-2.4249,-2.4446,-2.4186,-2.3662,-2.4299,-2.4745,-2.5225,-2.6659,-2.724,-2.7323,-2.8221,-2.7926,0.0,0.0,0.0,0.0,0.0,0.0,0.0,-2.9819,-2.9923,-2.9512,-3.0869,-3.0842,-3.0368,-2.9946,-3.0396,-3.1211,-3.1551,-3.1177,-3.0512,-2.9388,-2.7353,-2.5897,-2.6995,-2.8198,-2.9361,-2.9874,-3.128,0.0,0.0,0.0,0.0,0.0,0.0,0.0,0.0,0.0,0.0,0.0,0.0,0.0,0.0,0.0,0.0,0.0,0.0,0.0,-3.7558,-3.8392,-3.8782,-3.8782,-3.6634,-3.5666,0.0,-3.2753,-3.1571,-3.2204,-3.1549,-3.2118,-3.3759,-3.4862,-3.5969,-3.7098,-3.6906,-3.6381,-3.5672,-3.5063,-3.462,-3.4424,-3.4672,-3.4685,-3.4593,0.0,0.0,0.0,0.0,0.0,0.0,0.0,0.0,0.0,0.0,0.0,0.0,0.0,0.0,0.0,0.0,0.0,0.0,0.0,0.0,0.0,-1.989,-2.0547,-2.1393,-2.2533,-2.3452,-2.3732,-2.3414,-2.3111,-2.2972,-2.2796,-2.2615,-2.2453,-2.2259,-2.2397,-2.2288,-2.2165,-2.3,-2.3604,-2.4189,-2.5788,-2.6653,-2.7024,-2.8227,-2.8468,-2.8157,-2.8863,0.0,0.0,0.0,0.0,0.0,0.0,0.0,-2.9704,-3.0456,-3.0327,-2.9849,-2.9152,-2.9859,-3.1055,-3.2185,-3.1799,-3.0588,-2.8794,-2.6737,-2.5291,-2.4986,-2.6519,-2.8002,-2.8965,0.0,0.0,0.0,0.0,0.0,0.0,0.0,0.0,0.0,0.0,0.0,0.0,0.0,0.0,0.0,0.0,0.0,0.0,-3.7364,-3.7745,-3.7881,-3.8212,-3.8397,-3.8397,-3.7045,-3.6154,-3.5789,-3.326,-3.1818,-3.1455,-3.1113,-3.1918,-3.3527,-3.4158,-3.5136,-3.6171,-3.5939,-3.5608,-3.5152,-3.4599,-3.4397,-3.4397,-3.4397,-3.4397,-3.4397,0.0,0.0,0.0,0.0,0.0,0.0,0.0,0.0,0.0,0.0,0.0,0.0,0.0,0.0,0.0,0.0,0.0,0.0,0.0,0.0,0.0,-1.8193,-1.9427,-2.1075,-2.3047,-2.3982,-2.4309,-2.3964,-2.3244,-2.2574,-2.1998,-2.0818,-2.0495,-2.0875,-2.0698,-2.0829,-2.1334,-2.2288,-2.2804,-2.3273,-2.5133,-2.6212,-2.6787,-2.8187,-2.9112,-2.9854,-3.0509,-3.0905,-3.0994,-3.0664,0.0,0.0,0.0,0.0,-3.0012,-2.9923,-2.9824,-2.9628,-2.8635,-2.9276,-3.0661,-3.2356,-3.1999,-3.0616,-2.8129,-2.6645,-2.5516,-2.4329,-2.5083,-2.6696,0.0,0.0,0.0,0.0,0.0,0.0,0.0,0.0,0.0,0.0,0.0,0.0,0.0,0.0,0.0,0.0,0.0,0.0,-3.7324,-3.7452,-3.7841,-3.8552,-3.8018,-3.7737,-3.7672,-3.6957,-3.6036,-3.4937,-3.3589,-3.2034,-3.0253,-3.087,-3.1782,-3.2759,-3.3251,-3.4175,-3.5236,-3.5168,-3.4908,-3.4481,-3.4397,-3.4397,-3.4397,-3.4397,-3.4397,-3.4397,0.0,0.0,0.0,0.0,0.0,0.0,0.0,0.0,0.0,0.0,0.0,0.0,0.0,0.0,0.0,0.0,0.0,0.0,-2.3799,0.0,0.0,-1.8063,-1.987,-2.1536,-2.2882,-2.3867,-2.4526,-2.4789,-2.3886,-2.3187,-2.284,-2.1587,-2.0574,-1.9913,-2.0072,-2.0973,-2.2214,-2.2102,-2.2876,-2.4372,-2.5433,-2.595,-2.6229,-2.7673,-2.8984,-3.0047,-3.0681,-3.1551,-3.245,-3.2372,-3.1941,0.0,0.0,0.0,-2.9935,-2.9453,-2.9249,-2.912,-2.8877,-2.9659,-3.0765,-3.188,-3.0757,-2.9259,-2.8489,0.0,-2.4849,0.0,-2.5211,-2.6487,0.0,0.0,0.0,0.0,0.0,0.0,0.0,0.0,0.0,0.0,0.0,0.0,0.0,0.0,0.0,0.0,0.0,0.0,-3.7263,-3.7615,-3.77,-3.7259,-3.7147,-3.6962,-3.6595,-3.5446,-3.4821,-3.4746,-3.2953,-3.1308,-2.9917,-3.0955,-3.2118,-3.3414,-3.3496,-3.4324,-3.5562,-3.5236,-3.5072,-3.499,-3.4564,-3.4397,-3.4397,-3.4397,-3.4397,-3.4397,0.0,0.0,0.0,0.0,0.0,0.0,0.0,0.0,0.0,0.0,0.0,0.0,0.0,0.0,0.0,-2.8734,-2.794,-2.5783,-2.1711,-1.9685,-1.8483,-1.8132,-1.9634,-2.137,-2.3405,-2.4363,-2.5156,-2.5792,-2.4719,-2.4149,-2.3987,-2.2306,-2.1212,-2.066,-2.0555,-2.1105,-2.2106,-2.2142,-2.2862,-2.4024,-2.5041,-2.5633,-2.6085,-2.8046,-2.9294,-3.0208,-3.1468,-3.2447,-3.3195,-3.3195,-3.3025,-3.2725,-3.2123,0.0,0.0,0.0,-2.9923,-2.9671,-2.9788,-3.0515,-3.1295,-3.1705,-3.1481,-3.0574,-2.8375,-2.7131,-2.6167,-2.5326,-2.5563,0.0,0.0,0.0,0.0,0.0,0.0,0.0,0.0,0.0,0.0,0.0,0.0,0.0,0.0,0.0,0.0,0.0,0.0,-3.6451,-3.7214,-3.7372,-3.7324,-3.7092,-3.7042,-3.6665,-3.5978,-3.5511,-3.4593,-3.327,-3.1854,-3.0748,-2.9888,-3.0367,-3.1447,-3.3006,-3.3372,-3.4107,-3.4977,-3.4812,-3.4743,-3.4647,-3.4481,-3.4397,-3.4397,-3.4397,-3.4397,-3.4397,0.0,0.0,0.0,0.0,0.0,0.0,0.0,0.0,0.0,0.0,0.0,0.0,0.0,0.0,0.0,0.0,-2.8144,-2.5458,-2.0441,-1.9396,-1.8775,-1.8288,-1.9616,-2.1409,-2.368,-2.4784,-2.5683,-2.6513,-2.5681,-2.5125,-2.4897,-2.339,-2.2389,-2.21,-2.1363,-2.1511,-2.2199,-2.2429,-2.3163,-2.4152,-2.4869,-2.5529,-2.6282,-2.8091,-2.9398,-3.0456,-3.2039,-3.3251,-3.4045,-3.4188,-3.4136,-3.3927,-3.3313,-3.2633,0.0,0.0,0.0,-3.006,-3.04,-3.1066,-3.1672,-3.1413,-3.2124,-3.2059,0.0,0.0,-2.7604,0.0,0.0,0.0,0.0,0.0,0.0,0.0,0.0,0.0,0.0,0.0,0.0,0.0,0.0,0.0,0.0,0.0,0.0,0.0,0.0,-3.6631,-3.7246,-3.726,-3.7275,-3.7141,-3.7042,-3.6508,-3.5562,-3.5143,-3.3865,-3.1833,-3.1063,-3.0589,-3.0381,-3.0381,-3.1223,-3.2636,-3.3034,-3.3548,-3.4188,-3.4188,-3.4188,-3.4188,-3.4188,-3.4188,-3.4175,-3.4018,-3.4209,-3.4397,0.0,0.0,0.0,0.0,0.0,0.0,0.0,0.0,0.0,0.0,0.0,0.0,-3.2486,-3.1899,-3.0943,-2.958,-2.8609,-2.5884,-2.072,-1.9578,-1.8972,-1.8571,-2.0411,0.0,-2.3143,-2.478,-2.5924,-2.6508,-2.6467,-2.6092,-2.5336,-2.4819,-2.4382,-2.4021,-2.2205,-2.2013,-2.3028,-2.3019,-2.4055,-2.573,-2.5379,-2.5733,-2.6594,-2.7171,-2.8785,-3.086,-3.2006,-3.3639,-3.5286,-3.5796,-3.5626,-3.5103,-3.4502,-3.3548,-3.2542,0.0,0.0,0.0,-3.0036,-3.0849,-3.1567,-3.0851,-3.197,-3.2435,0.0,0.0,0.0,0.0,0.0,0.0,0.0,0.0,0.0,0.0,0.0,0.0,0.0,0.0,0.0,0.0,0.0,0.0,0.0,0.0,0.0,0.0,0.0,-3.7519,-3.7567,-3.7962,-3.7825,-3.7056,-3.6978,-3.6429,-3.5154,-3.3506,-3.2016,-3.0884,-3.0716,-3.0951,-3.1618,-3.1618,-3.1966,-3.2619,-3.2163,-3.2581,-3.3639,-3.3639,-3.3639,-3.3639,-3.3639,-3.3639,-3.3561,-3.2986,-3.3582,-3.451,0.0,0.0,0.0,0.0,0.0,0.0,0.0,0.0,0.0,0.0,0.0,0.0,0.0,-3.3614,-3.2848,-3.1191,-2.8349,-2.5378,-2.2285,-2.085,-2.0438,-2.1264,-2.1578,-2.2442,-2.3992,-2.4875,-2.578,-2.6462,-2.6538,-2.6367,-2.6163,-2.5181,-2.4546,-2.4108,-2.2954,-2.3046,-2.4131,-2.3504,-2.4157,-2.543,-2.5284,-2.577,-2.6724,-2.8048,-2.9543,-3.0992,-3.2604,-3.4276,-3.5848,-3.6044,-3.6227,-3.6292,-3.5678,-3.4463,-3.3012,-3.1679,-3.0979,-3.0672,-3.0672,-3.1297,-3.1819,-3.136,-3.2066,-3.2134,-2.9355,-2.8796,-2.8411,0.0,0.0,0.0,0.0,0.0,0.0,0.0,0.0,0.0,0.0,0.0,0.0,0.0,0.0,0.0,0.0,0.0,0.0,0.0,0.0,0.0,-3.8055,-3.8173,-3.8113,-3.7904,-3.694,-3.5471,-3.3554,-3.2566,-3.1665,-3.0861,-3.0382,-3.0319,-3.0567,-3.0567,-3.0958,-3.1588,-3.1378,-3.1954,-3.3012,-3.3012,-3.3012,-3.3092,-3.3542,-3.4005,-3.4338,-3.4172,-3.4692,-3.5418,0.0,0.0,0.0,0.0,0.0,0.0,0.0,0.0,0.0,-3.6779,0.0,0.0,0.0,0.0,-3.4399,-3.2012,-2.893,-2.619,-2.3995,-2.2877,-2.223,-2.2069,-2.2503,-2.3308,-2.4469,-2.5212,-2.6006,-2.6747,-2.699,-2.679,-2.6387,-2.5495,-2.4872,-2.4484,-2.3801,-2.3879,-2.4514,-2.4205,-2.4913,-2.6083,-2.5767,-2.637,-2.7717,-2.9255,-3.0584,-3.1901,-3.3903,-3.557,-3.6711,-3.6711,-3.6972,-3.7207,-3.6593,-3.5234,-3.3522,-3.1784,-3.1274,-3.1235,-3.1039,-3.1529,-3.1984,-3.1526,-3.2136,-3.2137,-2.9504,0.0,-2.882,0.0,0.0,0.0,0.0,0.0,0.0,0.0,0.0,0.0,0.0,0.0,0.0,0.0,0.0,0.0,0.0,0.0,0.0,0.0,0.0,0.0,-3.8679,-3.8634,-3.831,-3.7661,-3.5857,-3.4126,-3.2411,-3.2032,-3.15,-3.0894,-3.0535,-3.0355,-3.0355,-3.0355,-3.0596,-3.0986,-3.0986,-3.1522,-3.2411,-3.2411,-3.2411,-3.2476,-3.3225,-3.3761,-3.4186,-3.4307,-3.4902,-3.5617,0.0,0.0,0.0,0.0,0.0,0.0,0.0,0.0,-3.8293,-3.9206,0.0,0.0,0.0,0.0,0.0,-3.1976,-3.0384,-2.8497,-2.5943,-2.5688,-2.4198,-2.091,-2.3217,-2.4594,-2.4598,0.0,0.0,0.0,0.0,0.0,0.0,-2.5895,-2.5637,-2.5192,-2.4736,-2.4421,-2.4276,-2.5032,-2.636,-2.7984,-2.6966,-2.7712,-2.9519,-3.0536,-3.1855,-3.3562,-3.5949,-3.7256,-3.79,-3.7887,-3.7913,-3.7848,-3.7207,-3.5822,-3.411,-3.2398,-3.1811,-3.1771,0.0,0.0,0.0,-3.1198,0.0,0.0,-2.9898,0.0,-2.9886,0.0,0.0,0.0,0.0,0.0,0.0,0.0,0.0,0.0,0.0,0.0,0.0,0.0,0.0,0.0,0.0,0.0,0.0,0.0,0.0,-3.9424,-3.9424,-3.9322,-3.8311,-3.6132,-3.3866,-3.2398,-3.1746,-3.1823,-3.1535,-3.0986,-3.0986,-3.0986,-3.0986,-3.0986,-3.0986,-3.0986,-3.0986,-3.13,-3.1823,-3.181,-3.1823,-3.1913,-3.2697,-3.3071,-3.3104,-3.3254,-3.4113,-3.5074,0.0,0.0,0.0,0.0,0.0,0.0,0.0,-3.9511,-3.9363,0.0,0.0,0.0,-3.9271,-3.7536,-3.5525,-3.3231,-3.1993,-3.1048,-3.038,-2.8361,-2.7139,-2.6757,-2.6302,-2.6166,-2.6418,0.0,0.0,0.0,0.0,0.0,0.0,0.0,0.0,-2.4726,-2.5243,-2.5401,-2.5349,-2.5593,-2.6744,-2.8525,-2.8604,-2.9498,-3.0997,-3.2051,-3.3162,-3.4173,-3.5302,-3.6636,-3.7835,-3.7403,-3.8096,-3.8893,-3.7456,-3.6371,-3.5299,-3.36,-3.3104,-3.2881,-3.1875,0.0,0.0,0.0,0.0,0.0,0.0,0.0,0.0,0.0,0.0,0.0,0.0,0.0,0.0,0.0,0.0,0.0,0.0,0.0,0.0,0.0,0.0,0.0,0.0,0.0,0.0,0.0,-3.9265,-3.9424,-3.9424,-3.8427,-3.6896,-3.4761,-3.3635,-3.2382,-3.1222,-3.1222,-3.1143,-3.0986,-3.0986,-3.0986,-3.0986,-3.0986,-3.0986,-3.0986,-3.0986,-3.1078,-3.1297,-3.1769,-3.232,-3.282,-3.3649,-3.4526,-3.5354,-3.4981,-3.5414,-3.6096,0.0,0.0,0.0,0.0,0.0,0.0,0.0,-4.0805,-4.0784,0.0,0.0,0.0,-4.032,-3.8854,-3.7265,-3.5327,-3.3874,-3.269,-3.1991,-3.0432,-2.9608,-2.9889,-2.8943,-2.8518,-2.8771,0.0,0.0,0.0,0.0,0.0,0.0,0.0,0.0,0.0,0.0,0.0,-2.6894,-2.6976,-2.7902,-2.93,-2.9816,-3.0956,-3.2388,-3.3662,-3.473,-3.5587,-3.6651,-3.7756,-3.8566,-3.8214,-3.8606,-3.8972,-3.7469,-3.6763,-3.6136,-3.4424,-3.3927,-3.3679,-3.2515,-3.2315,-3.2342,-3.1494,0.0,0.0,-2.9255,-2.8539,0.0,0.0,0.0,0.0,0.0,0.0,0.0,0.0,0.0,0.0,0.0,0.0,0.0,0.0,0.0,0.0,0.0,0.0,0.0,-3.9424,-3.9424,-3.929,-3.9005,-3.7127,-3.5468,-3.424,-3.2668,-3.1588,-3.0986,-3.0751,-3.0751,-3.0986,-3.0986,-3.0986,-3.0986,-3.0986,-3.0986,-3.0986,-3.0986,-3.0979,-3.111,-3.1864,-3.2362,-3.2823,-3.4182,-3.5009,-3.5525,-3.5807,-3.5983,-3.6073,0.0,0.0,0.0,0.0,0.0,0.0,0.0,-4.2147,-4.2258,0.0,-4.349,-4.2552,-4.1892,-4.1193,-3.9919,-3.7728,-3.5697,-3.3831,-3.2244,-3.1965,-3.1548,-3.1008,-3.1046,-3.1087,-3.0958,-3.0996,0.0,0.0,0.0,0.0,0.0,0.0,0.0,0.0,0.0,0.0,-2.8438,-2.8779,0.0,-3.0193,-3.0834,-3.2183,0.0,0.0,-3.631,-3.7111,-3.889,-3.9547,-3.9625,-3.9852,-3.9488,-3.8727,-3.7845,-3.754,-3.7016,-3.5247,-3.4748,-3.4485,-3.3117,-3.2424,-3.2006,-3.1798,-3.1023,0.0,-2.9985,-2.9432,-2.8563,0.0,0.0,0.0,0.0,0.0,0.0,0.0,0.0,0.0,0.0,0.0,0.0,0.0,0.0,0.0,0.0,-3.9145,-3.9305,-3.9305,-3.923,-3.8829,-3.8127,-3.5597,-3.407,-3.3858,-3.1428,-3.0346,-3.079,-3.0294,-3.0333,-3.0895,-3.0895,-3.0934,-3.0986,-3.0986,-3.0986,-3.0986,-3.1061,-3.1136,-3.1205,-3.2096,-3.2333,-3.2451,-3.4335,-3.4826,-3.4587,-3.5844,-3.5938,-3.5504,-4.3277,0.0,0.0,0.0,0.0,0.0,0.0,-4.3093,-4.3343,-4.5585,-4.5893,-4.5561,-4.4566,-4.3346,-4.1424,-3.8544,-3.6804,-3.5451,-3.4339,-3.2707,-3.1538,-3.0997,-3.1552,-3.1576,-3.1003,-3.1021,0.0,0.0,0.0,0.0,0.0,0.0,0.0,0.0,0.0,0.0,0.0,0.0,0.0,-3.0486,-3.2412,-3.403,-3.5519,-3.6673,-3.7371,-3.7831,-3.859,-3.9194,-3.9839,-4.1579,-4.1153,-3.9992,0.0,0.0,0.0,-3.7473,-3.6926,-3.6407,-3.4081,-3.3339,-3.3025,-3.2084,-3.1628,0.0,-2.9605,-2.9112,-2.8398,0.0,0.0,0.0,0.0,0.0,0.0,0.0,0.0,0.0,0.0,0.0,0.0,0.0,0.0,0.0,0.0,-3.846,-3.8601,-3.8601,-3.8108,-3.7218,-3.5956,-3.4839,-3.3463,-3.1856,-3.0724,-2.9967,-2.9614,-2.9497,-2.9732,-3.0307,-3.0307,-3.0542,-3.0986,-3.0986,-3.0986,-3.1048,-3.1603,-3.1604,-3.1232,-3.3095,-3.3571,-3.3212,-3.3682,-3.4446,-3.5234,-3.4961,-3.5145,-3.5504,-4.2775,0.0,0.0,0.0,0.0,0.0,0.0,0.0,-4.4014,-4.6731,-4.7666,-4.7224,-4.4918,-4.4261,-4.2916,-4.0353,-3.8279,-3.6782,-3.5995,-3.3938,-3.245,-3.1863,-3.2163,-3.2254,-3.1849,-3.185,-3.1707,0.0,0.0,0.0,0.0,0.0,0.0,0.0,0.0,0.0,0.0,0.0,-3.0622,-3.1508,-3.3226,0.0,-3.6181,-3.7091,-3.7703,-3.7978,-3.8514,-3.9544,-4.0977,-4.2178,-4.2053,0.0,-4.1906,-4.1348,-4.0335,0.0,-3.8087,-3.7121,0.0,0.0,0.0,-3.2868,-3.2001,0.0,0.0,-2.9032,-2.8233,-2.6891,0.0,0.0,0.0,0.0,0.0,0.0,0.0,0.0,0.0,0.0,0.0,0.0,0.0,0.0,0.0,-3.8162,-3.7898,-3.7898,-3.6912,-3.6035,-3.5339,-3.3903,-3.2684,-3.1653,-3.0619,-3.0137,-3.0137,-2.9849,-2.9993,-3.0555,-3.0555,-3.0712,-3.0986,-3.0986,-3.1185,-3.1603,-3.1942,-3.2176,-3.23,-3.3054,-3.3214,-3.3048,-3.4107,-3.4696,-3.4996,-3.4996,-3.5205,-3.5504,-4.2068,-4.2032,0.0,0.0,0.0,0.0,0.0,0.0,-4.4192,-4.7192,-4.859,-4.8167,-4.5107,-4.4914,-4.4373,-4.2906,-3.9873,-3.8042,-3.7938,-3.5211,-3.3446,-3.3107,-3.308,-3.3054,-3.2972,-3.3198,-3.2972,0.0,0.0,0.0,0.0,0.0,0.0,0.0,0.0,-2.9394,-3.0394,0.0,0.0,-3.2252,0.0,-3.5102,-3.6322,-3.7195,-3.7703,-3.7978,-3.8687,-4.0281,-4.2013,-4.2626,-4.2655,-4.2471,-4.2295,-4.1696,0.0,0.0,0.0,0.0,0.0,0.0,0.0,0.0,0.0,-3.114,0.0,0.0,0.0,0.0,0.0,0.0,0.0,0.0,0.0,0.0,0.0,0.0,0.0,0.0,0.0,0.0,0.0,0.0,0.0,-3.7624,-3.7045,-3.7045,-3.5648,-3.4719,-3.4568,-3.2764,-3.1676,-3.1532,-3.054,-3.0189,-3.066,-3.0202,-3.0255,-3.083,-3.083,-3.0944,-3.1185,-3.1185,-3.1603,-3.229,-3.242,-3.2862,-3.3369,-3.299,-3.2709,-3.2662,-3.4158,-3.4562,-3.4352,-3.4921,-3.528,-3.5504,-4.1657,-4.1499,-4.1366,0.0,0.0,0.0,0.0,0.0,-4.3558,-4.5981,-4.7881,-4.8617,-4.7481,-4.6253,-4.5795,-4.6571,-4.1796,-3.949,-4.1056,-3.6439,-3.3859,-3.4456,-3.4535,-3.4394,-3.405,-3.5111,-3.5111,-3.3924,0.0,0.0,0.0,0.0,0.0,0.0,-2.9564,-3.0417,-3.1535,0.0,-3.1373,0.0,-3.427,-3.5732,0.0,-3.7442,-3.79,-3.8057,-3.9489,-4.0905,-4.2424,0.0,-4.34,-4.2936,0.0,-4.3677,-4.2583,-4.0589,0.0,0.0,0.0,0.0,0.0,0.0,-3.3496,0.0,0.0,0.0,-2.9375,-2.7859,0.0,0.0,0.0,0.0,0.0,0.0,0.0,0.0,0.0,0.0,0.0,0.0,0.0,0.0,0.0,0.0,-3.5729,-3.5729,-3.3927,-3.2551,-3.1895,-3.102,-3.0319,-2.96,-2.9476,-2.9405,-2.947,-2.9418,-2.9666,-3.0228,-3.0228,-3.0831,-3.1942,-3.1942,-3.2376,-3.3073,-3.3754,-3.383,-3.3478,-3.3987,-3.3572,-3.2482,-3.2123,-3.2647,-3.3619,-3.3694,-3.4472,-3.5504,-4.2437,-4.2323,-4.221,0.0,0.0,0.0,0.0,0.0,0.0,-4.5896,-4.7975,-4.9282,-4.8769,-4.747,-4.6954,-4.7758,-4.412,-4.1863,-4.1949,-3.8964,-3.7332,-3.7741,-3.7393,-3.7121,-3.6916,-3.707,-3.638,-3.4702,-3.4145,0.0,0.0,0.0,0.0,0.0,-3.1288,0.0,-3.2403,0.0,-3.2417,0.0,0.0,0.0,0.0,-3.6586,-3.7421,-3.8532,-4.0932,-4.2136,-4.2883,0.0,-4.4086,0.0,0.0,0.0,0.0,-4.2248,0.0,0.0,0.0,0.0,0.0,0.0,0.0,0.0,-3.0879,0.0,-2.9309,0.0,0.0,0.0,0.0,0.0,0.0,0.0,-2.9784,0.0,0.0,0.0,0.0,0.0,0.0,0.0,0.0,0.0,0.0,0.0,0.0,-3.1716,-3.1387,-3.0337,-2.9601,-2.9274,-2.9601,-2.9771,-2.9771,-3.0111,-3.0385,-3.0634,-3.1037,-3.1567,-3.2074,-3.2506,-3.3143,-3.3837,-3.4177,-3.4163,-3.4046,-3.3928,-3.3365,-3.2452,-3.1735,-3.2108,-3.2931,-3.2931,-3.3769,-3.4906,-4.3906,-4.3477,-4.2809,-4.2481,0.0,0.0,0.0,0.0,0.0,0.0,-4.731,-4.8773,-4.9316,-4.7955,-4.7728,-4.9479,-4.6285,-4.3963,-4.3411,-4.1269,-3.9956,-3.9932,-3.9491,-3.9173,-3.9083,-3.8717,-3.7653,-3.5939,0.0,0.0,0.0,0.0,0.0,0.0,0.0,-3.2961,-3.3213,0.0,-3.3592,-3.3969,-3.3934,-3.4592,-3.5707,-3.6324,-3.7483,-3.9144,-4.1389,-4.2315,-4.2687,-4.3558,-4.3938,0.0,-4.4148,0.0,0.0,0.0,0.0,0.0,-3.8839,0.0,0.0,0.0,0.0,0.0,0.0,0.0,0.0,0.0,0.0,0.0,0.0,0.0,-3.0254,-2.9469,0.0,-2.9475,0.0,0.0,0.0,0.0,0.0,0.0,0.0,0.0,0.0,-3.3995,-3.2217,-3.1061,-3.0881,-2.9713,-2.9078,-2.9026,-2.9601,-2.9967,-3.0137,-3.0699,-3.1123,-3.1334,-3.1809,-3.229,-3.2706,-3.3283,-3.3905,-3.461,-3.461,-3.4587,-3.4427,-3.3769,-3.3095,-3.2452,-3.1735,-3.1824,-3.2273,-3.2452,-3.323,-3.4233,-4.6199,-4.4595,-4.274,-4.1896,0.0,0.0,0.0,0.0,0.0,0.0,0.0,0.0,-4.9059,-4.7519,-4.8147,-5.2636,-4.8113,-4.5492,-4.6687,-4.3069,-4.0572,-4.0054,-4.006,-3.988,-3.9354,-3.9847,-3.9343,-3.8023,0.0,0.0,0.0,0.0,0.0,0.0,-3.3449,-3.3959,-3.4002,-3.4802,-3.4799,-3.4336,-3.4735,-3.5297,-3.5983,0.0,-3.8564,-3.9996,-4.0039,0.0,0.0,-4.2468,-4.2602,0.0,0.0,0.0,0.0,0.0,0.0,0.0,0.0,0.0,0.0,-3.6193,0.0,0.0,0.0,0.0,-2.9614,0.0,0.0,0.0,0.0,-3.038,-3.0642,-2.9457,-2.9274,0.0,0.0,0.0,0.0,0.0,0.0,0.0,0.0,0.0,0.0,-3.2587,-3.1322,-3.0266,-2.9637,-2.8894,-2.8478,-2.8454,-2.8987,-2.9575,-3.0124,-3.0699,-3.1334,-3.2087,-3.2074,-3.2847,-3.423,-3.4245,-3.4677,-3.5439,-3.5439,-3.5115,-3.4427,-3.3769,-3.3095,-3.2452,-3.1735,-3.1482,-3.1586,-3.2273,-3.2946,-3.3619,-4.6406,-4.6335,-4.5777,-4.4776,-4.3749,0.0,0.0,-4.5101,0.0,0.0,-5.0841,0.0,0.0,-5.4561,-5.3637,-5.6021,-5.1446,-4.8492,-4.863,-4.5996,-4.4635,-4.5042,-4.3909,-4.3057,-4.2451,-4.1991,-4.0746,-3.8575,0.0,0.0,0.0,0.0,0.0,0.0,0.0,-3.4773,0.0,0.0,0.0,0.0,0.0,-3.5554,-3.633,0.0,0.0,-3.9557,-4.0551,-4.1126,0.0,-4.1881,-4.2108,-4.2273,-4.3021,-4.3054,-4.2923,-4.3464,-4.2689,0.0,0.0,0.0,-3.7738,-3.6107,0.0,0.0,0.0,0.0,0.0,0.0,0.0,0.0,0.0,-3.0634,-3.0454,-2.9476,-2.8948,-2.8864,0.0,0.0,0.0,0.0,0.0,0.0,0.0,0.0,0.0,-3.2482,-3.0866,-2.9763,0.0,-2.8839,-2.8316,-2.7811,-2.8386,-2.8778,-2.8974,-2.9941,-3.0752,-3.1504,-3.2384,-3.3339,-3.4312,-3.4824,-3.5213,-3.5504,-3.5504,-3.4876,-3.3814,-3.3589,-3.2841,-3.1839,-3.1556,-3.1482,-3.1497,-3.1779,-3.2273,-3.3006,-4.72,-4.7355,-4.6983,0.0,0.0,0.0,0.0,0.0,0.0,0.0,-5.4232,0.0,-6.0344,0.0,-5.6653,0.0,-5.4591,-5.1738,-5.0374,-4.8986,-4.7743,-4.6696,-4.5597,-4.457,-4.353,-4.2939,-4.141,-3.9016,-3.8282,-3.7214,0.0,0.0,0.0,0.0,0.0,-3.5213,-3.5469,-3.5377,-3.5336,0.0,0.0,-3.623,0.0,0.0,-3.9026,-3.9787,0.0,-4.126,-4.1194,-4.1827,-4.1986,-4.2147,-4.3059,-4.3247,-4.3161,-4.4008,-4.3114,-4.1807,-4.1164,-3.9561,0.0,-3.617,-3.4818,0.0,-3.1738,0.0,0.0,0.0,0.0,0.0,0.0,0.0,-3.023,-2.945,-2.8778,-2.8692,0.0,-3.0644,0.0,0.0,0.0,0.0,0.0,0.0,-3.1582,-3.1537,-3.0804,-2.9987,0.0,0.0,-2.8468,-2.7523,-2.8085,-2.851,-2.8769,-2.9879,-3.1007,-3.1972,-3.3057,-3.3973,-3.4758,-3.5279,-3.5504,-3.5539,-3.5539,-3.4853,-3.3622,-3.3834,-3.3048,-3.1853,-3.2048,-3.2104,-3.2048,-3.164,-3.1943,-3.2632,-4.8493,-4.7627,0.0,0.0,-4.4784,0.0,0.0,0.0,-5.1773,0.0,-5.5458,-5.7564,-5.9625,-5.791,-5.7375,-5.9267,-5.7401,-5.493,-5.2007,-5.1719,-4.9723,-4.5376,-4.5075,-4.4398,-4.2784,-4.2547,-4.1485,-3.9525,-3.8583,0.0,0.0,0.0,0.0,0.0,-3.5082,0.0,-3.5504,-3.5504,-3.5504,-3.5619,-3.6226,-3.734,-3.8592,-3.9235,-3.9953,-4.0668,-4.1229,-4.1053,-4.0753,-4.2103,-4.2282,-4.2141,-4.3698,-4.4214,-4.4246,-4.4461,-4.4045,-4.3132,-4.1841,-4.0132,-3.8337,-3.6389,0.0,0.0,0.0,0.0,-3.082,0.0,0.0,0.0,0.0,0.0,0.0,-2.9366,-2.8808,-2.8719,-2.9401,-3.0644,-3.1627,0.0,0.0,0.0,0.0,-3.1377,-3.1212,-2.9961,-3.1031,-3.0835,0.0,0.0,-2.8889,-2.759,-2.8127,-2.873,-2.9321,-3.0568,-3.1916,-3.3369,-3.4008,-3.4743,-3.5504,-3.5504,-3.5604,-3.5752,-3.5752,-3.509,-3.3985,-3.4472,-3.3785,-3.2539,-3.3002,-3.3198,-3.3039,-3.1951,-3.1943,-3.2512,-4.7924,-4.8426,-4.8804,0.0,-4.768,-4.7057,0.0,0.0,0.0,0.0,-5.9676,-6.1906,-6.5171,-6.2896,-6.1461,-6.1902,-5.8287,0.0,0.0,0.0,-4.9788,-4.7517,-4.6569,-4.5489,-4.3925,-4.316,-4.1884,-3.9935,-3.8304,0.0,-3.6272,0.0,0.0,0.0,0.0,-3.5148,-3.5504,-3.5504,-3.5733,-3.6304,-3.7467,-3.8419,0.0,0.0,-4.1482,-4.1917,-4.099,-4.0277,-3.9849,-4.0403,-4.0863,-4.1528,-4.2549,-4.2899,-4.3071,-4.3588,-4.2589,-4.1225,-4.0781,-3.9299,-3.7531,-3.6253,-3.5292,-3.412,0.0,0.0,0.0,0.0,0.0,0.0,0.0,0.0,0.0,-2.9301,-2.9241,-2.9245,-2.947,0.0,0.0,-3.3141,0.0,0.0,-3.1743,-3.1394,-3.1061,-3.0728,-3.089,0.0,0.0,0.0,0.0,-2.8287,-2.8369,-2.8581,-2.8698,-3.048,-3.1811,-3.2751,-3.379,-3.4743,-3.5504,-3.5589,-3.5928,-3.6384,-3.6523,-3.6391,-3.5995,-3.5586,-3.4911,-3.407,-3.3546,-3.3039,-3.2586,-3.2287,-3.2604,-3.3127,-4.9062,-4.9838,0.0,-5.0856,0.0,0.0,-5.138,0.0,0.0,-5.9015,-6.1069,0.0,-6.5028,-6.366,-6.2491,-6.2108,-5.9453,0.0,-5.4349,0.0,0.0,-4.8187,-4.6879,-4.5521,-4.4166,-4.3149,-4.1773,-4.0104,-3.8492,0.0,-3.6272,0.0,0.0,0.0,0.0,-3.5213,-3.5519,-3.6163,-3.6743,-3.7417,-3.8835,0.0,0.0,-4.1195,-4.1802,-4.2081,-4.0896,-4.0496,-4.0593,-4.0769,-4.0934,-4.128,-4.2099,-4.2351,-4.2493,-4.2815,-4.1743,-4.04,-4.0019,-3.8575,-3.6884,-3.5763,-3.5007,-3.4056,-3.2376,-3.2015,-3.1942,0.0,0.0,0.0,0.0,0.0,0.0,-2.8995,-2.9343,-2.9752,-3.0011,0.0,0.0,0.0,-3.3087,0.0,0.0,-3.1799,-3.1287,-3.0693,0.0,0.0,0.0,0.0,0.0,-2.9093,-2.9605,-2.9748,-2.9359,-3.163,-3.2796,-3.2974,-3.4206,-3.5103,-3.5604,-3.5928,-3.6384,-3.6859,-3.7219,-3.7218,-3.6909,-3.6395,-3.5736,-3.492,-3.4311,-3.3681,-3.314,-3.2857,-3.2669,-3.2528,-5.0856,-5.1483,0.0,0.0,0.0,0.0,0.0,-5.5405,0.0,-5.8916,0.0,-6.2312,-6.2312,-6.2146,-6.1781,-6.1169,0.0,-5.8098,-5.4646,-5.3946,-5.1941,-4.7949,-4.6435,-4.5154,-4.4008,-4.2742,-4.1499,-4.0246,-3.8804,0.0,0.0,0.0,0.0,0.0,0.0,0.0,0.0,-3.7075,-3.801,-3.8647,-4.0196,-4.1157,-4.158,-4.1585,-4.1693,-4.171,-4.1013,-4.1151,-4.1765,-4.1856,-4.1644,-4.1392,-4.2036,-4.2255,-4.2269,-4.2115,-4.121,-4.0124,-3.9353,-3.7949,-3.6411,-3.5222,-3.4543,-3.4016,-3.3297,-3.269,-3.2245,-3.2042,-3.1529,-3.1009,0.0,0.0,0.0,0.0,0.0,0.0,0.0,0.0,0.0,0.0,0.0,0.0,0.0,0.0,0.0,0.0,0.0,0.0,0.0,0.0,0.0,-3.0125,-3.1182,0.0,-3.0962,0.0,-3.4322,-3.383,-3.4936,-3.5604,-3.5864,-3.6384,-3.6919,-3.7338,-3.7905,-3.7906,-3.747,-3.7209,-3.6536,-3.5627,-3.5265,-3.4677,-3.4062,-3.3514,-3.2539,-3.1482,-5.0986,0.0,0.0,0.0,0.0,-5.5467,-5.6774,-5.784,-5.9059,-6.0523,-6.2096,-6.309,-6.309,-6.2013,-6.1251,-6.1119,-5.8927,0.0,0.0,0.0,0.0,-4.7888,-4.642,-4.5125,-4.4008,-4.2821,-4.1778,0.0,0.0,0.0,0.0,0.0,0.0,0.0,0.0,0.0,-3.5797,-3.7822,0.0,-3.888,-4.1419,-4.2128,-4.1763,-4.2252,-4.2483,-4.2379,-4.1716,-4.122,-4.0842,-4.0842,-4.1266,-4.1793,-4.1931,-4.2108,-4.2061,-4.0976,-4.0114,-3.9337,-3.8062,-3.7185,-3.63,-3.5169,-3.481,-3.4327,-3.2648,-3.2704,-3.2789,-3.1809,-3.175,-3.1688,-3.0857,0.0,0.0,0.0,0.0,0.0,0.0,0.0,0.0,0.0,0.0,-3.3598,0.0,0.0,0.0,0.0,0.0,0.0,0.0,0.0,0.0,0.0,0.0,0.0,0.0,0.0,-3.4976,-3.5561,-3.5514,-3.591,-3.6723,-3.6829,-3.7499,-3.858,-3.8887,-3.9229,-3.9547,-3.8874,-3.8052,-3.7053,-3.6415,-3.5382,-3.4228,-3.4067,-3.2971,-3.1482,-5.2192,0.0,0.0,0.0,0.0,0.0,0.0,-5.8967,0.0,-5.9651,-6.0237,-6.0536,-6.0218,-5.9821,-5.9408,-5.9185,-5.7563,-5.5879,-5.4135,-5.2681,-5.0927,-4.8747,-4.7196,-4.5889,-4.4736,-4.318,-4.1896,-4.0935,0.0,-3.7652,-3.673,0.0,0.0,-3.5213,0.0,-3.5784,0.0,0.0,0.0,-3.9486,-4.1543,-4.2128,-4.181,-4.1744,-4.1765,-4.1714,-4.127,-4.0951,-4.0689,-4.0689,-4.0978,-4.1288,-4.1062,-4.1036,-4.0965,-3.998,-3.9319,-3.8617,-3.7673,-3.6952,-3.6289,-3.5479,-3.4887,-3.42,-3.3352,-3.2709,-3.2263,-3.192,-3.1483,-3.0888,-2.9737,-2.9992,0.0,0.0,0.0,0.0,0.0,0.0,-3.2476,0.0,0.0,0.0,0.0,0.0,0.0,0.0,0.0,0.0,0.0,0.0,0.0,0.0,0.0,0.0,0.0,0.0,0.0,-3.7011,-3.753,-3.7933,-3.8086,-3.8424,-3.9194,-4.0211,-4.0204,-4.0387,-4.0544,-3.8989,-3.7829,-3.6928,-3.6142,-3.5054,-3.39,-3.381,-3.3082,-3.2137,0.0,-5.4441,0.0,0.0,-5.6609,0.0,-5.8613,-5.915,-5.9245,-5.8897,-5.8591,-5.8207,-5.7624,-5.779,-5.768,-5.708,-5.6118,-5.494,-5.3556,-5.249,-5.1031,-4.9304,-4.7757,-4.6454,-4.5341,-4.3654,-4.215,0.0,0.0,0.0,0.0,0.0,0.0,0.0,0.0,0.0,0.0,0.0,-3.9257,-3.9847,-4.1342,-4.1875,-4.1674,-4.107,-4.091,-4.0934,-4.072,-4.0784,-4.0926,-4.0849,-4.0802,-4.0707,-4.022,-4.0003,-3.9747,-3.9028,-3.8463,-3.7953,-3.7342,-3.6831,-3.6321,-3.5649,-3.4816,-3.4085,-3.3743,-3.2616,-3.1685,-3.1714,-3.0767,-2.9724,-2.8773,-2.9832,0.0,0.0,0.0,0.0,0.0,0.0,0.0,0.0,0.0,0.0,-3.2299,0.0,0.0,0.0,0.0,0.0,0.0,0.0,0.0,0.0,0.0,-3.5683,-3.6153,0.0,-3.893,0.0,-3.9585,-3.9898,-3.9706,-4.0163,-4.0812,-4.1566,-4.1466,-4.1339,-4.1052,-3.8873,-3.7627,-3.6956,-3.5813,-3.4775,-3.3838,-3.3736,-3.3253,-3.2795,0.0,0.0,0.0,0.0,0.0,0.0,0.0,-5.8044,-5.8663,-6.0169,-5.9772,-5.907,-5.8351,-5.7733,-5.7064,-5.6385,-5.4586,-5.3257,-5.274,-5.0834,-4.9359,-4.8666,-4.7107,-4.5799,-4.4993,-4.411,-4.3083,0.0,0.0,-3.9431,0.0,0.0,0.0,0.0,0.0,0.0,0.0,-3.8503,-3.9295,-3.9441,-4.1311,-4.1665,-4.1059,-4.0992,-4.0917,-4.081,-4.0789,-4.1047,-4.1348,-4.0926,-4.0802,-4.0689,-4.0118,-3.9647,-3.9028,-3.7911,-3.7519,-3.7342,-3.6723,-3.6554,-3.6213,-3.5074,-3.4738,-3.4244,-3.2724,-3.2263,-3.1815,-3.0774,-2.952,-2.8746,-2.9175,-2.9442,-2.9771,0.0,0.0,0.0,0.0,0.0,-3.1898,-3.2053,0.0,0.0,0.0,-3.2893,0.0,0.0,0.0,0.0,0.0,0.0,0.0,-3.507,0.0,-3.7478,-3.9876,-3.942,0.0,-4.1144,-4.0353,-4.0453,-4.1203,-4.1147,-4.1533,-4.2233,-4.2219,-4.1813,-4.1085,-3.9529,-3.8754,-3.8404,-3.6505,-3.5263,-3.4585,-3.4666,-3.3817,-3.2856,0.0,0.0,0.0,0.0,0.0,0.0,0.0,-5.734,-5.7363,-5.7651,-5.7682,-5.748,-5.6847,-5.6018,-5.5446,-5.5286,-5.3686,-5.259,-5.2335,-5.0975,-4.9769,-4.8944,-4.8129,-4.7152,-4.5853,-4.5091,-4.388,0.0,0.0,0.0,0.0,0.0,0.0,0.0,0.0,-3.6503,-3.6998,-3.7875,-3.8402,-3.8764,-3.9896,-4.0417,-4.0442,-4.0442,-4.0442,-4.0402,-4.0707,-4.048,-4.0152,-4.0234,-4.0283,-4.0184,-3.9647,-3.9102,-3.8518,-3.7637,-3.7417,-3.7298,-3.6662,-3.6492,-3.626,-3.5385,-3.4668,-3.3984,-3.3283,-3.1874,-3.0786,-3.0782,-3.0147,-2.9373,-2.8906,-3.0165,-3.106,0.0,0.0,0.0,0.0,0.0,0.0,-3.2453,0.0,-3.2801,0.0,0.0,0.0,0.0,0.0,0.0,0.0,0.0,0.0,-3.5225,0.0,-3.8051,-4.036,-4.0935,-4.1684,-4.2625,-4.27,-4.2682,-4.2618,-4.2546,-4.2438,-4.2286,-4.2286,-4.188,-4.1,-3.8807,-3.782,-3.7569,-3.5497,-3.4613,-3.4365,-3.4352,-3.4195,-3.4091,-5.7167,0.0,-5.7421,0.0,-5.7782,-5.7409,-5.7314,-5.6825,-5.62,-5.5651,-5.5792,-5.5736,-5.5412,-5.4766,-5.4361,-5.4279,-5.3061,-5.2251,-5.2085,-5.0994,-5.0026,-4.9194,-4.8745,0.0,-4.6601,-4.5781,-4.4393,-4.2402,-4.1632,0.0,0.0,0.0,0.0,0.0,-3.68,-3.672,-3.7525,-3.7416,-3.7637,-3.8067,-3.8684,-3.9189,-3.9575,-3.9575,-3.9575,-3.961,-3.9935,-3.9577,-3.9011,-3.9301,-3.932,-3.9126,-3.8778,-3.8261,-3.7639,-3.7235,-3.6977,-3.6808,-3.6677,-3.6616,-3.6476,-3.5639,-3.4799,-3.3968,-3.3379,-3.1722,-3.042,-3.0721,-3.0394,-2.9802,-2.894,-3.0439,-3.1536,-3.0669,0.0,0.0,0.0,0.0,0.0,-3.2895,-3.3055,-3.3255,-3.3441,-3.3971,0.0,0.0,0.0,0.0,0.0,0.0,0.0,0.0,0.0,0.0,0.0,-4.2178,-4.3099,-4.3775,-4.4316,-4.4376,-4.3926,-4.3926,-4.3481,-4.2608,-4.2388,-4.188,-4.0983,-3.822,-3.7119,-3.6853,-3.4637,-3.3798,-3.3918,-3.4085,-3.4423,-3.4729,-5.8996,-5.9142,-5.9399,-6.0206,-5.911,-5.8033,-5.7926,-5.6555,-5.5507,-5.5402,-5.4799,-5.448,-5.4584,-5.46,-5.4296,-5.3585,-5.2773,-5.2234,-5.2135,-5.0557,-4.9557,0.0,0.0,-4.7441,-4.6924,-4.5956,-4.4504,-4.2477,0.0,0.0,-3.8294,0.0,-3.731,-3.8059,-3.6956,-3.6861,-3.7525,-3.7416,-3.7401,-3.746,-3.8067,-3.8351,-3.8334,-3.8334,-3.8334,-3.8334,-3.8334,-3.8334,-3.8278,-3.8334,-3.7895,-3.7401,-3.7401,-3.6943,-3.6416,-3.6461,-3.6014,-3.5766,-3.6706,-3.7015,-3.6747,-3.5701,-3.5153,-3.4421,-3.2522,-3.1766,-3.119,-3.0222,-2.9718,-2.9532,-2.9504,-3.0086,-3.0539,-3.0524,0.0,0.0,0.0,0.0,0.0,-3.3182,-3.3697,-3.3809,-3.3097,0.0,0.0,0.0,0.0,0.0,0.0,0.0,0.0,-3.7052,-3.9176,0.0,-4.2269,-4.3031,-4.3809,-4.457,-4.4587,-4.4852,-4.5303,-4.5303,-4.459,-4.3369,-4.2625,-4.188,-4.0983,-3.822,-3.7119,-3.6853,-3.421,-3.3198,-3.3319,-3.4167,-3.4386,-3.4272,-5.7519,-5.8015,-5.8455,-5.8712,-5.8388,-5.7832,-5.7291,-5.6689,-5.6112,-5.5548,-5.5231,-5.5113,-5.5129,-5.4388,-5.3754,0.0,-5.2756,-5.2097,0.0,-5.0419,-4.9516,-4.8804,-4.8296,-4.7701,-4.6924,-4.6099,-4.4892,-4.328,0.0,0.0,0.0,-3.8197,-3.8163,-3.8846,-3.7233,-3.6861,-3.7461,-3.7018,-3.7013,-3.7417,-3.7637,-3.7953,-3.8278,-3.8278,-3.8278,-3.8278,-3.8278,-3.8181,-3.8042,-3.8042,-3.7451,-3.6738,-3.6738,-3.6287,-3.59,-3.6353,-3.6121,-3.5975,-3.6751,-3.7105,-3.7093,-3.6295,-3.5828,-3.5179,-3.3681,-3.2182,-3.0852,-2.9875,-2.995,-3.0208,-3.0208,-3.0718,-3.1321,-3.1751,-3.216,0.0,0.0,0.0,0.0,-3.3748,-3.3984,-3.4153,0.0,-3.4861,0.0,0.0,0.0,0.0,0.0,0.0,0.0,0.0,-4.0136,0.0,-4.2859,-4.4422,-4.5371,-4.5631,-4.5631,-4.5528,-4.5285,-4.4785,-4.3853,-4.2608,-4.1863,-4.091,-3.9684,-3.7929,-3.701,-3.6437,-3.4751,-3.4364,-3.4829,-3.5058,-3.5309,-3.5491,-5.6804,-5.7446,-5.7997,-5.7997,-5.7997,-5.7839,-5.7302,-5.7134,-5.6861,-5.6277,-5.5925,-5.5733,-5.5733,-5.4354,0.0,-5.3815,-5.2872,-5.2097,-5.1657,-5.0517,-4.9614,-4.8919,-4.8442,-4.7766,-4.6908,0.0,0.0,-4.3628,-4.2211,-4.1183,-4.0604,-3.9686,-3.9707,-4.0401,-3.8207,-3.7639,-3.8168,-3.7126,-3.6923,-3.7254,-3.7254,-3.7476,-3.7812,-3.7679,-3.7679,-3.7812,-3.7812,-3.7754,-3.7663,-3.7409,-3.6943,-3.6374,-3.6048,-3.5566,-3.526,-3.6193,-3.6266,-3.6256,-3.7081,-3.7433,-3.7419,-3.6908,-3.639,-3.5607,-3.3965,-3.2619,-3.1471,-3.0433,-3.0584,-3.0896,-3.0896,-3.1219,-3.1697,-3.2287,-3.2547,-3.2911,-3.3475,0.0,0.0,0.0,0.0,0.0,0.0,-3.5198,0.0,0.0,0.0,0.0,0.0,0.0,0.0,-3.7905,-4.0546,0.0,-4.3093,-4.4803,-4.5817,-4.6098,-4.631,-4.6,-4.5285,-4.4732,-4.3683,-4.2252,-4.1281,-4.011,-3.8705,-3.7475,-3.6598,-3.5947,-3.4922,-3.4737,-3.5122,-3.5399,-3.5676,-3.5937,-5.673,-5.7409,0.0,0.0,-5.7997,0.0,-5.7839,-5.7697,-5.7534,-5.7382,-5.6721,-5.6259,-5.6223,-5.4501,-5.36,-5.4229,0.0,0.0,0.0,-5.0767,-4.9782,-4.9438,-4.8592,-4.7747,-4.6841,-4.6096,-4.5003,-4.3545,-4.2309,-4.1849,-4.2105,-4.1488,-4.1609,-4.2129,-3.9622,-3.8837,-3.9297,-3.7668,-3.6999,-3.6999,-3.7015,-3.7015,-3.6954,-3.6616,-3.6754,-3.7015,-3.6999,-3.7178,-3.7243,-3.6627,-3.6358,-3.6226,-3.5505,-3.4857,-3.4604,-3.6011,-3.6374,-3.6584,-3.762,-3.7943,-3.7841,-3.7494,-3.6846,-3.5734,-3.3505,-3.2953,-3.2682,-3.1717,-3.1482,-3.1482,-3.1482,-3.1482,-3.1697,-3.2342,-3.2895,-3.3407,-3.4101,0.0,0.0,0.0,0.0,0.0,0.0,-3.5198,-3.5371,0.0,0.0,0.0,0.0,0.0,-3.8783,-3.8055,-4.0645,-4.2417,-4.3192,-4.4463,-4.5492,-4.6213,-4.6653,-4.6318,-4.5252,-4.4991,-4.3831,-4.2115,-4.0788,-3.9421,-3.8091,-3.6934,-3.6074,-3.5433,-3.4833,-3.4614,-3.4691,-3.5322,-3.5553,-3.5645,0.0,0.0,-5.7997,-5.7997,-5.7997,-5.7997,-5.795,-5.7839,-5.7478,-5.6744,-5.6412,-5.5948,-5.5288,-5.4349,-5.3664,-5.3387,-5.2203,-5.1234,-5.0659,-5.0287,-4.9468,-4.8135,-4.7747,-4.7187,-4.6234,-4.5379,-4.4301,-4.2991,-4.2245,-4.1959,-4.2105,-4.1616,-4.1157,-4.0804,-3.9218,-3.8462,-3.8279,-3.7419,-3.7105,-3.7314,-3.706,-3.7015,-3.7015,-3.6877,-3.6938,-3.6999,-3.7194,-3.7128,-3.6924,-3.6765,-3.6181,-3.5444,-3.5267,-3.5106,-3.5198,-3.6124,-3.6197,-3.623,-3.755,-3.8075,-3.823,-3.8181,-3.6902,-3.5194,-3.3398,-3.2588,-3.2065,-3.1627,-3.1482,-3.1482,-3.1482,-3.1482,-3.1853,-3.2841,-3.3145,-3.3563,-3.4578,-3.4804,0.0,0.0,-3.4899,-3.4947,-3.5105,-3.5198,-3.5572,0.0,0.0,0.0,0.0,-3.9375,-4.0027,-3.9289,-4.1975,-4.3669,-4.4245,-4.6096,-4.7122,-4.7302,-4.6837,-4.6061,-4.5009,-4.3816,-4.2351,-4.07,-3.9823,-3.875,-3.7556,-3.7282,-3.6789,-3.6243,-3.6076,-3.6014,-3.6045,-3.6184,-3.6245,-3.6276,-5.4968,-5.6345,-5.7574,-5.7941,-5.7703,-5.7446,-5.7446,-5.7043,-5.6483,-5.5905,-5.5738,-5.5468,-5.4943,-5.3656,-5.2713,-5.2378,-5.1256,-5.0311,-4.961,-4.8968,-4.8146,-4.7154,-4.6999,-4.6525,-4.553,-4.5009,-4.4321,-4.3397,-4.3053,-4.3021,-4.3242,-4.2987,-4.2689,-4.2295,-4.0998,-4.0038,-3.9297,-3.8551,-3.8014,-3.7594,-3.7492,-3.7492,-3.7653,-3.7314,-3.7373,-3.7663,-3.7287,-3.7093,-3.6917,-3.6258,-3.5695,-3.5121,-3.4797,-3.4683,-3.4923,-3.6053,-3.6405,-3.6731,-3.7842,-3.8432,-3.8518,-3.7938,-3.6926,-3.5577,-3.3487,-3.271,-3.2304,-3.1657,-3.1482,-3.1482,-3.1482,-3.1482,-3.1894,-3.3024,-3.3182,-3.3614,-3.4739,-3.4899,0.0,-3.4899,-3.5229,-3.554,-3.5682,-3.6095,-3.6683,-3.749,0.0,0.0,-3.9032,-4.044,-4.0735,-3.9715,-4.2271,-4.3979,-4.4571,-4.6675,-4.7434,-4.6805,-4.6374,-4.5446,-4.406,-4.294,-4.1626,-4.0216,-3.9232,-3.806,-3.6959,-3.6993,-3.6599,-3.6061,-3.6368,-3.6492,-3.6492,-3.6492,-3.6492,-3.6492,-5.4216,-5.55,-5.6693,-5.7501,-5.7079,-5.662,-5.662,-5.5943,-5.534,-5.503,-5.481,-5.4578,-5.4363,-5.2569,-5.1361,-5.1262,-5.024,-4.9367,-4.8829,-4.7539,-4.6659,-4.6406,-4.6346,-4.5814,-4.4797,-4.472,-4.448,-4.4039,-4.4039,-4.4229,-4.457,-4.457,-4.4514,-4.4406,-4.3143,-4.2012,-4.0943,-4.0033,-3.9048,-3.8157,-3.81,-3.8254,-3.8446,-3.7796,-3.7905,-3.8219,-3.7247,-3.698,-3.6859,-3.5643,-3.5104,-3.491,-3.4295,-3.4101,-3.441,-3.5841,-3.6637,-3.727,-3.8114,-3.8521,-3.8459,-3.7134,-3.6777,-3.6055,-3.3537,-3.2947,-3.2622,-3.1702,-3.1482,-3.1482,-3.1467,-3.1482,-3.1838,-3.2879,-3.3145,-3.3563,-3.4643,0.0,-3.4932,-3.5096,-3.574,-3.63,-3.6578,-3.7278,-3.8001,-3.8743,-3.9403,-4.0026,0.0,-4.1364,-4.1305,-4.0145,-4.2351,-4.3989,-4.4879,-4.6663,-4.6873,-4.5596,-4.5489,-4.4551,-4.2904,-4.2046,-4.1087,-3.9957,-3.8723,-3.7454,-3.6263,-3.6336,-3.5999,-3.5537,-3.6122,-3.6399,-3.6492,-3.6492,-3.6492,-3.6492,-5.4106,-5.4601,-5.5023,-5.5812,-5.5868,-5.5776,-5.5776,-5.5666,-5.5247,-5.431,-5.359,-5.2826,-5.1964,-5.0968,-5.0145,-4.962,-4.8852,-4.8201,-4.7829,-4.718,-4.6515,-4.5831,-4.5547,-4.5001,-4.4223,-4.3972,-4.3863,-4.3956,-4.3956,-4.4039,-4.4367,-4.4367,-4.4105,-4.3639,-4.2332,-4.1515,-4.1009,-3.977,-3.9288,-3.9332,-3.9082,-3.881,-3.8518,-3.8351,-3.8033,-3.7568,-3.7339,-3.6674,-3.5891,-3.5337,-3.4781,-3.4246,-3.4133,-3.4201,-3.4496,-3.5778,-3.6142,-3.6371,-3.7633,-3.7812,-3.7403,-3.634,-3.5636,-3.4851,-3.3347,-3.2552,-3.2061,-3.1612,-3.1482,-3.1467,-3.1351,-3.1409,-3.1682,-3.2185,-3.281,-3.3407,-3.4134,0.0,-3.5162,-3.5921,-3.6152,-3.6566,-3.7412,-3.7629,-3.8235,-3.9541,-3.9725,-4.0323,-4.1513,-4.2091,-4.2248,-4.1996,-4.3572,-4.5,-4.6163,-4.6517,-4.6062,-4.4793,-4.4071,-4.3182,-4.2144,-4.0794,-3.9625,-3.8553,-3.7844,-3.6845,-3.5656,-3.5644,-3.5584,-3.5491,-3.5599,-3.5984,-3.6492,-3.6492,-3.6492,-3.6492,-5.2234,-5.2803,-5.35,-5.473,-5.4234,-5.3794,-5.4234,-5.3573,-5.2791,-5.2156,-5.1748,-5.1297,-5.0732,-4.9927,-4.935,-4.9046,-4.8064,-4.737,-4.7219,-4.6426,-4.5665,-4.4963,-4.4832,-4.449,-4.3998,-4.3747,-4.3704,-4.3898,-4.3898,-4.4056,-4.431,-4.431,-4.4018,-4.3451,-4.3002,-4.2152,-4.1038,-4.0567,-3.9865,-3.8973,-3.887,-3.8585,-3.8219,-3.7961,-3.7814,-3.7619,-3.6727,-3.6271,-3.5876,-3.4919,-3.4527,-3.4399,-3.4399,-3.4513,-3.4918,-3.6031,-3.6975,-3.7797,-3.8388,-3.852,-3.8275,-3.7082,-3.6174,-3.5183,-3.3303,-3.2641,-3.2231,-3.164,-3.1482,-3.1467,-3.1409,-3.1467,-3.1697,-3.216,-3.2788,0.0,0.0,-3.4972,-3.574,-3.6169,-3.7017,-3.7784,-3.8252,-3.8787,-3.9467,-4.0372,-4.0761,-4.1354,-4.2198,-4.2693,-4.292,-4.2786,-4.3786,-4.4718,-4.5588,-4.5588,-4.4861,-4.3419,-4.2644,-4.1679,-4.0561,-3.9126,-3.8203,-3.7748,-3.6784,-3.5994,-3.546,-3.5091,-3.4937,-3.4937,-3.4937,-3.5353,-3.5953,-3.5953,-3.6184,-3.6445,-5.06,-5.1151,-5.1885,-5.3316,-5.2527,-5.1922,-5.2564,-5.1591,-5.0703,-5.0417,-5.0253,-5.0059,-4.9862,-4.9112,-4.8641,-4.8641,-4.7661,-4.7044,-4.6908,-4.6098,-4.5303,-4.4558,-4.435,-4.4071,-4.3573,-4.3439,-4.3356,-4.3323,-4.3381,-4.3497,-4.3749,-4.3973,-4.3765,-4.3203,-4.3318,-4.2448,-4.0916,-4.0814,-3.9881,-3.852,-3.852,-3.828,-3.795,-3.7646,-3.7641,-3.7547,-3.6272,-3.5972,-3.5994,-3.4758,-3.4578,-3.4818,-3.4849,-3.5005,-3.5367,-3.6333,-3.7802,-3.9049,-3.8841,-3.8814,-3.8568,-3.7509,-3.6636,-3.5494,-3.3487,-3.3039,-3.268,-3.1682,-3.1582,-3.164,-3.1482,-3.1601,-3.182,-3.2094,0.0,0.0,0.0,-3.5235,-3.6285,-3.6501,-3.7868,-3.889,-3.9126,-3.9866,-4.0517,-4.1019,-4.1656,-4.218,-4.2631,-4.3142,-4.3305,-4.3012,-4.364,-4.4079,-4.4289,-4.4181,-4.3296,-4.1586,-4.1011,-4.0143,-3.9058,-3.797,-3.7412,-3.7277,-3.6156,-3.5519,-3.5199,-3.4666,-3.433,-3.4287,-3.4388,-3.4747,-3.5276,-3.5414,-3.5707,-3.603,-5.049,-5.0251,-5.0031,-5.0912,-5.0967,-5.0912,-5.0967,-5.0875,-5.0703,-5.0417,-4.976,-4.9222,-4.9003,-4.8279,-4.7808,-4.7808,-4.7693,-4.7407,-4.6954,-4.6817,-4.631,-4.525,-4.4502,-4.3664,-4.2618,-4.2601,-4.227,-4.1574,-4.1737,-4.1922,-4.2088,-4.287,-4.3006,-4.2513,-4.1989,-4.1389,-4.0631,-3.9348,-3.8722,-3.8573,-3.8573,-3.8357,-3.7997,-3.795,-3.7492,-3.6818,-3.6393,-3.6081,-3.5762,-3.5287,-3.5131,-3.5224,-3.5386,-3.552,-3.5786,-3.6474,-3.7703,-3.8681,-3.8056,-3.7426,-3.6828,-3.649,-3.5807,-3.5021,-3.4038,-3.3652,-3.3182,-3.1796,-3.1966,-3.212,-3.1452,-3.1901,-3.2184,-3.1498,0.0,0.0,-3.3539,-3.5054,-3.6566,-3.748,-3.8302,-3.9159,-4.0102,-4.0271,-4.0549,-4.1213,-4.1725,-4.2262,-4.2844,-4.3268,-4.3268,-4.275,-4.3328,-4.3378,-4.2757,-4.2371,-4.1205,-3.9138,-3.9086,-3.8743,-3.8085,-3.8171,-3.787,-3.7157,-3.6556,-3.5634,-3.4549,-3.4304,-3.3951,-3.3532,-3.4046,-3.4388,-3.4629,-3.5245,-3.5122,-3.4824,-4.904,-4.9003,-4.9058,-4.9903,-4.9609,-4.9426,-4.9958,-4.9591,-4.9221,-4.9062,-4.8707,-4.8425,-4.8314,-4.794,-4.7717,-4.7717,-4.7717,-4.7398,-4.6704,-4.6668,-4.5996,-4.4578,-4.3386,-4.2551,-4.2155,-4.2155,-4.2005,-4.1722,-4.181,-4.1904,-4.2013,-4.2463,-4.2354,-4.1784,-4.1254,-4.0648,-3.9907,-3.8997,-3.8336,-3.7905,-3.7905,-3.7524,-3.6945,-3.6945,-3.6774,-3.6456,-3.6101,-3.6065,-3.6028,-3.5407,-3.5436,-3.5793,-3.5864,-3.6088,-3.6446,-3.7055,-3.7625,-3.7966,-3.7584,-3.7509,-3.7487,-3.7178,-3.6388,-3.5464,-3.4655,-3.4284,-3.3802,-3.2879,-3.2532,-3.2342,-3.2007,-3.195,-3.1925,-3.2094,0.0,-3.3762,-3.4002,-3.5414,-3.6575,-3.6956,-3.8212,-3.9205,-3.9591,-4.018,-4.0426,-4.0176,-4.071,-4.0901,-4.0686,-4.1005,-4.1119,-4.0987,-4.0877,-4.0937,-4.1173,-4.0528,-3.9931,-3.9385,-3.8451,-3.8156,-3.8299,-3.698,-3.6737,-3.7232,-3.5621,-3.5144,-3.5458,-3.4494,-3.3962,-3.3805,-3.4014,-3.4181,-3.4351,-3.4632,-3.4623,-3.4562,-4.8141,-4.8306,-4.8489,-4.9077,-4.8691,-4.8508,-4.9095,-4.8673,-4.8286,-4.8226,-4.809,-4.797,-4.7902,-4.7759,-4.7717,-4.7717,-4.7717,-4.7482,-4.692,-4.6272,-4.5374,-4.417,-4.2858,-4.2132,-4.1984,-4.1698,-4.1489,-4.1452,-4.1308,-4.1362,-4.1452,-4.1863,-4.1732,-4.117,-4.0566,-3.989,-3.9147,-3.8257,-3.7577,-3.7111,-3.7111,-3.6784,-3.6301,-3.6301,-3.6301,-3.6259,-3.6045,-3.6174,-3.636,-3.5854,-3.5985,-3.6409,-3.6451,-3.6701,-3.7055,-3.7485,-3.7577,-3.7594,-3.7447,-3.7553,-3.7679,-3.7391,-3.6483,-3.5494,-3.4922,-3.4539,-3.4169,-3.3463,-3.3108,-3.2873,-3.2695,-3.24,-3.2251,-3.2578,-3.3282,-3.3957,-3.4235,-3.5654,-3.6709,-3.6755,-3.8014,-3.8891,-3.8938,-3.959,-3.9753,-3.9267,-3.9739,-3.9898,-3.9517,-3.9682,-3.98,-3.9704,-3.9095,-3.9108,-3.9756,-3.9216,-3.8964,-3.8991,-3.7974,-3.7631,-3.777,-3.6455,-3.6267,-3.6888,-3.5313,-3.5114,-3.5736,-3.4673,-3.4136,-3.4036,-3.4185,-3.421,-3.4139,-3.4345,-3.4415,-3.4375,-4.8217,-4.8306,-4.8306,-4.8306,-4.8306,-4.8306,-4.8306,-4.8306,-4.8267,-4.8226,-4.8072,-4.797,-4.7902,-4.7759,-4.7717,-4.7717,-4.7717,-4.7699,-4.7681,-4.5724,-4.4492,-4.4281,-4.3305,-4.2615,-4.2206,-4.1291,-4.0712,-4.04,-4.007,-4.0003,-4.0138,-4.0985,-4.1153,-4.0662,-3.9873,-3.9164,-3.8491,-3.6973,-3.6318,-3.6301,-3.6301,-3.6301,-3.6301,-3.6301,-3.6301,-3.6301,-3.6301,-3.6502,-3.6702,-3.6702,-3.6846,-3.7027,-3.722,-3.7447,-3.7577,-3.7577,-3.7577,-3.7577,-3.7577,-3.7317,-3.693,-3.6725,-3.5783,-3.4882,-3.4805,-3.4489,-3.4021,-3.3367,-3.3697,-3.3933,-3.3303,-3.3388,-3.3377,-3.2695,-3.3852,-3.4623,-3.4084,-3.5668,-3.6951,-3.7058,-3.7752,-3.8259,-3.8368,-3.8414,-3.8459,-3.8577,-3.8998,-3.9441,-3.9863,-3.9863,-3.9686,-3.9294,-3.8503,-3.8262,-3.8577,-3.8577,-3.8215,-3.7508,-3.7491,-3.7051,-3.6277,-3.6972,-3.6842,-3.6022,-3.6071,-3.5663,-3.4991,-3.4857,-3.448,-3.4086,-3.4577,-3.448,-3.4066,-3.4729,-3.4552,-3.4183,-4.8451,-4.8658,-4.8586,-4.8344,-4.8306,-4.8122,-4.7553,-4.748,-4.7442,-4.7442,-4.7289,-4.739,-4.7915,-4.7824,-4.7759,-4.7819,-4.7759,-4.7228,-4.6087,-4.4375,-4.3376,-4.3336,-4.2388,-4.1834,-4.1681,-4.1424,-4.1319,-4.1338,-4.0896,-4.0707,-4.0784,-4.0886,-4.0805,-4.0662,-3.9967,-3.9531,-3.9301,-3.8318,-3.7611,-3.7172,-3.7299,-3.7012,-3.6602,-3.6731,-3.6811,-3.6811,-3.6811,-3.6851,-3.6908,-3.6908,-3.7027,-3.7259,-3.7447,-3.754,-3.7577,-3.7577,-3.7577,-3.7577,-3.7577,-3.6891,-3.6268,-3.6768,-3.6288,-3.5659,-3.5627,-3.5273,-3.4931,-3.4721,-3.4382,-3.4084,-3.3935,-3.367,-3.363,-3.407,-3.4513,-3.4936,-3.5362,-3.5909,-3.6273,-3.6317,-3.7055,-3.7562,-3.7607,-3.8195,-3.8326,-3.7853,-3.7413,-3.7269,-3.7359,-3.7359,-3.7335,-3.7186,-3.7498,-3.7733,-3.7818,-3.7818,-3.8232,-3.9026,-3.8508,-3.8422,-3.8618,-3.7703,-3.7376,-3.7509,-3.6383,-3.6047,-3.6231,-3.5635,-3.527,-3.5131,-3.5316,-3.5021,-3.461,-3.4807,-3.4497,-3.4118,-4.8282,-4.824,-4.801,-4.7997,-4.7847,-4.757,-4.7169,-4.6948,-4.6893,-4.7057,-4.6903,-4.7077,-4.7897,-4.7783,-4.7717,-4.7801,-4.7511,-4.6599,-4.4928,-4.3991,-4.3358,-4.2994,-4.244,-4.2139,-4.2115,-4.1785,-4.1743,-4.2015,-4.1366,-4.1094,-4.1168,-4.0853,-4.0745,-4.0758,-3.9996,-3.9571,-3.9351,-3.8607,-3.7888,-3.7321,-3.7428,-3.7207,-3.6846,-3.6948,-3.6987,-3.6987,-3.6987,-3.7066,-3.7105,-3.7105,-3.7259,-3.7447,-3.754,-3.7577,-3.7577,-3.7577,-3.7362,-3.7113,-3.7113,-3.6271,-3.553,-3.6282,-3.5751,-3.5241,-3.5752,-3.5357,-3.4968,-3.5241,-3.5179,-3.4923,-3.4659,-3.4496,-3.4428,-3.4578,-3.4847,-3.5174,-3.5481,-3.5854,-3.6148,-3.6233,-3.6732,-3.7068,-3.7068,-3.7525,-3.7595,-3.706,-3.6559,-3.6301,-3.6301,-3.6301,-3.6301,-3.6301,-3.6766,-3.7163,-3.7491,-3.7491,-3.7939,-3.8819,-3.837,-3.8215,-3.8318,-3.7361,-3.7075,-3.7336,-3.6385,-3.6178,-3.6418,-3.5915,-3.5667,-3.5667,-3.5622,-3.5424,-3.5131,-3.5131,-3.4927,-3.4673,-4.7765,-4.7387,-4.6986,-4.7452,-4.7124,-4.6844,-4.6947,-4.6588,-4.649,-4.6892,-4.6832,-4.7044,-4.7793,-4.7747,-4.7609,-4.7609,-4.6894,-4.5809,-4.4225,-4.4233,-4.3924,-4.3141,-4.3196,-4.3196,-4.3141,-4.236,-4.2144,-4.258,-4.1682,-4.1268,-4.1332,-4.099,-4.0802,-4.074,-4.0084,-3.9465,-3.8877,-3.8198,-3.7592,-3.7075,-3.7115,-3.7079,-3.7027,-3.7066,-3.7048,-3.7048,-3.7048,-3.7182,-3.7334,-3.7334,-3.7447,-3.7577,-3.7577,-3.7577,-3.7577,-3.7577,-3.7023,-3.6399,-3.6399,-3.5491,-3.4738,-3.5392,-3.4616,-3.4031,-3.5328,-3.4992,-3.4589,-3.527,-3.5958,-3.6209,-3.5555,-3.5735,-3.5661,-3.4644,-3.5021,-3.5328,-3.4971,-3.5732,-3.6402,-3.6661,-3.6702,-3.6702,-3.6742,-3.6702,-3.6602,-3.6301,-3.6301,-3.6301,-3.6301,-3.6301,-3.6301,-3.6301,-3.6422,-3.6784,-3.737,-3.7508,-3.7577,-3.7577,-3.7577,-3.7198,-3.6508,-3.6439,-3.6379,-3.6311,-3.626,-3.6122,-3.5975,-3.5861,-3.5817,-3.5817,-3.5667,-3.5622,-3.5622,-3.5622,-3.5622,-3.5622,-4.7345,-4.7303,-4.7145,-4.6997,-4.6885,-4.6604,-4.6003,-4.584,-4.5954,-4.6453,-4.6408,-4.6728,-4.7846,-4.7365,-4.6961,-4.6916,-4.563,-4.4687,-4.4361,-4.3742,-4.3305,-4.3178,-4.3305,-4.334,-4.3323,-4.305,-4.2995,-4.3196,-4.2655,-4.206,-4.1546,-4.1623,-4.0989,-3.9821,-4.0106,-3.9817,-3.9108,-3.8975,-3.8526,-3.7865,-3.8025,-3.775,-3.7259,-3.7392,-3.7466,-3.7466,-3.7466,-3.7521,-3.754,-3.754,-3.754,-3.7577,-3.7577,-3.7577,-3.7577,-3.7577,-3.7023,-3.6364,-3.6202,-3.4976,-3.4001,-3.5035,-3.4472,-3.4072,-3.5416,-3.5476,-3.5441,-3.6182,-3.6357,-3.6407,-3.6426,-3.6447,-3.6359,-3.5875,-3.5932,-3.6002,-3.5968,-3.6156,-3.6402,-3.6661,-3.6702,-3.6766,-3.6908,-3.6806,-3.6602,-3.6301,-3.6301,-3.6301,-3.6301,-3.6301,-3.6301,-3.6301,-3.7456,-3.7594,-3.6559,-3.7749,-3.8353,-3.8353,-3.8353,-3.8249,-3.8077,-3.7491,-3.7172,-3.705,-3.6423,-3.6122,-3.5975,-3.5861,-3.5861,-3.5932,-3.5817,-3.5773,-3.5773,-3.5773,-3.5667,-3.5622,-4.6796,-4.6601,-4.6353,-4.6447,-4.6263,-4.598,-4.5641,-4.5368,-4.5378,-4.5867,-4.5755,-4.5983,-4.6948,-4.6537,-4.6018,-4.5576,-4.4853,-4.4272,-4.3871,-4.3488,-4.3305,-4.3305,-4.3393,-4.3446,-4.3446,-4.3393,-4.3393,-4.3446,-4.265,-4.2067,-4.1687,-4.1196,-4.0531,-3.9726,-3.9929,-3.964,-3.8996,-3.8853,-3.847,-3.7881,-3.7957,-3.7802,-3.7447,-3.754,-3.7577,-3.7577,-3.7577,-3.7577,-3.7577,-3.7577,-3.7577,-3.7577,-3.7577,-3.7577,-3.7577,-3.7577,-3.7023,-3.6274,-3.574,-3.4816,-3.4084,-3.4518,-3.4425,-3.4449,-3.5457,-3.5639,-3.5768,-3.6527,-3.6949,-3.7131,-3.6835,-3.7194,-3.7166,-3.6076,-3.6105,-3.6191,-3.6088,-3.6318,-3.6585,-3.6806,-3.6926,-3.7044,-3.7143,-3.6886,-3.6643,-3.6502,-3.6343,-3.6301,-3.6301,-3.6301,-3.6301,-3.6301,-3.7077,-3.7301,-3.687,-3.7663,-3.8232,-3.8594,-3.8232,-3.8249,-3.856,-3.7818,-3.7473,-3.7335,-3.6578,-3.6191,-3.6148,-3.6036,-3.6036,-3.6079,-3.5949,-3.564,-3.5324,-3.5681,-3.5728,-3.5622,-4.6156,-4.5755,-4.5442,-4.5903,-4.5605,-4.5357,-4.5515,-4.5155,-4.5029,-4.5386,-4.5246,-4.5305,-4.5914,-4.557,-4.4996,-4.4216,-4.4273,-4.4072,-4.3287,-4.3393,-4.3463,-4.3411,-4.3463,-4.3497,-4.3497,-4.3532,-4.3532,-4.3532,-4.2428,-4.1848,-4.1702,-4.0655,-4.0022,-3.977,-3.9654,-3.9238,-3.8653,-3.8409,-3.8053,-3.7577,-3.7577,-3.7577,-3.7577,-3.7577,-3.7577,-3.7577,-3.7577,-3.7577,-3.7577,-3.7577,-3.7577,-3.7577,-3.7577,-3.7577,-3.7577,-3.7577,-3.7023,-3.6185,-3.5349,-3.4812,-3.4387,-3.4214,-3.4421,-3.4873,-3.5453,-3.5622,-3.5842,-3.662,-3.7505,-3.7874,-3.7211,-3.7803,-3.7877,-3.6163,-3.6131,-3.6251,-3.6173,-3.6446,-3.6818,-3.7202,-3.7291,-3.7334,-3.7297,-3.7005,-3.6766,-3.6702,-3.6502,-3.636,-3.6301,-3.6301,-3.6301,-3.6301,-3.6422,-3.6818,-3.7473,-3.7611,-3.8043,-3.8767,-3.8163,-3.8112,-3.8577,-3.7956,-3.7611,-3.7439,-3.6784,-3.6422,-3.6301,-3.6208,-3.6225,-3.6208,-3.6062,-3.56,-3.5036,-3.5579,-3.5773,-3.5711,-4.543,-4.5373,-4.5316,-4.5388,-4.5352,-4.5314,-4.5344,-4.5271,-4.5304,-4.5538,-4.5536,-4.5599,-4.581,-4.5076,-4.4291,-4.3648,-4.3468,-4.3396,-4.3463,-4.3446,-4.3446,-4.3497,-4.3497,-4.3497,-4.3497,-4.3548,-4.3582,-4.3582,-4.2739,-4.2,-4.1346,-4.1024,-4.0119,-3.8821,-3.9286,-3.8989,-3.8111,-3.8077,-3.7882,-3.7577,-3.7577,-3.7577,-3.7577,-3.7577,-3.7577,-3.7577,-3.7577,-3.7577,-3.7577,-3.7577,-3.7577,-3.7577,-3.7577,-3.7577,-3.7577,-3.7577,-3.6915,-3.6056,-3.5766,-3.4973,-3.431,-3.4682,-3.4729,-3.4873,-3.5453,-3.5622,-3.5842,-3.662,-3.7505,-3.8074,-3.803,-3.8254,-3.8139,-3.7369,-3.6706,-3.6567,-3.7394,-3.7043,-3.7108,-3.8157,-3.7856,-3.7484,-3.7297,-3.7259,-3.7066,-3.6742,-3.6661,-3.6544,-3.6301,-3.6301,-3.6301,-3.6301,-3.6956,-3.737,-3.7491,-3.8112,-3.8819,-3.9543,-3.9439,-3.9112,-3.8594,-3.8491,-3.8094,-3.7473,-3.737,-3.6939,-3.6301,-3.6208,-3.6251,-3.6259,-3.6208,-3.6114,-3.5985,-3.5827,-3.5949,-3.6079,-4.5297,-4.5297,-4.5297,-4.5297,-4.5297,-4.5297,-4.5297,-4.5297,-4.5113,-4.4543,-4.4361,-4.4231,-4.4077,-4.3973,-4.3777,-4.3465,-4.3393,-4.3428,-4.3479,-4.3463,-4.3279,-4.2855,-4.2818,-4.2616,-4.2176,-4.2224,-4.2304,-4.2318,-4.2018,-4.173,-4.1391,-4.0399,-3.9568,-3.8873,-3.9032,-3.8775,-3.8219,-3.8052,-3.7863,-3.7577,-3.7577,-3.7577,-3.7577,-3.7577,-3.7577,-3.7577,-3.7577,-3.7577,-3.7577,-3.7577,-3.7577,-3.7577,-3.7577,-3.7577,-3.7594,-3.7484,-3.7124,-3.6602,-3.584,-3.5531,-3.5301,-3.4983,-3.5121,-3.5365,-3.5644,-3.5756,-3.614,-3.7284,-3.7904,-3.8338,-3.8853,-3.8688,-3.8353,-3.7767,-3.7376,-3.72,-3.7318,-3.7544,-3.7778,-3.798,-3.7772,-3.7558,-3.7484,-3.7372,-3.7238,-3.7044,-3.6806,-3.6643,-3.6544,-3.6817,-3.6956,-3.6956,-3.7698,-3.8301,-3.8715,-3.8629,-3.8957,-3.9698,-3.9698,-3.975,-3.9853,-3.9405,-3.8918,-3.8432,-3.8014,-3.7493,-3.6939,-3.6696,-3.6615,-3.6597,-3.6343,-3.5975,-3.5565,-3.5839,-3.5693,-3.5446]}]]